<?xml version='1.0' encoding='UTF-8'?><gpx version="1.1" creator="JPX - https://github.com/jenetics/jpx" xmlns="http://www.topografix.com/GPX/1/1"><trk><trkseg><trkpt lat="40.5208667" lon="9.8254582"><ele>2.9999999999999996</ele><time>2026-04-17T09:49:25.939Z</time></trkpt><trkpt lat="40.520924" lon="9.8254977"><ele>3.0</ele><time>2026-04-17T09:49:28.939Z</time></trkpt><trkpt lat="40.5209856" lon="9.8255295"><ele>3.0</ele><time>2026-04-17T09:49:31.939Z</time></trkpt><trkpt lat="40.5210672" lon="9.8255616"><ele>3.0</ele><time>2026-04-17T09:49:34.939Z</time></trkpt><trkpt lat="40.5211314" lon="9.8255825"><ele>3.0</ele><time>2026-04-17T09:49:36.924Z</time></trkpt><trkpt lat="40.521205" lon="9.8255783"><ele>2.9999999999999996</ele><time>2026-04-17T09:49:38.939Z</time></trkpt><trkpt lat="40.5212711" lon="9.8255572"><ele>3.0</ele><time>2026-04-17T09:49:40.938Z</time></trkpt><trkpt lat="40.5213484" lon="9.8255389"><ele>3.5</ele><time>2026-04-17T09:49:43.939Z</time></trkpt><trkpt lat="40.5214169" lon="9.8254833"><ele>4.0</ele><time>2026-04-17T09:49:46.939Z</time></trkpt><trkpt lat="40.5215021" lon="9.825457"><ele>4.5</ele><time>2026-04-17T09:49:49.938Z</time></trkpt><trkpt lat="40.5215823" lon="9.8254354"><ele>5.0</ele><time>2026-04-17T09:49:52.926Z</time></trkpt><trkpt lat="40.5216281" lon="9.8255074"><ele>5.5</ele><time>2026-04-17T09:49:55.939Z</time></trkpt><trkpt lat="40.521685" lon="9.8255546"><ele>6.0</ele><time>2026-04-17T09:49:58.883Z</time></trkpt><trkpt lat="40.5217777" lon="9.8255981"><ele>5.999999999999999</ele><time>2026-04-17T09:50:01.938Z</time></trkpt><trkpt lat="40.5218612" lon="9.8256397"><ele>6.0</ele><time>2026-04-17T09:50:04.938Z</time></trkpt><trkpt lat="40.5218946" lon="9.8257142"><ele>6.0</ele><time>2026-04-17T09:50:06.938Z</time></trkpt><trkpt lat="40.5219442" lon="9.8257667"><ele>6.0</ele><time>2026-04-17T09:50:08.939Z</time></trkpt><trkpt lat="40.5220077" lon="9.8257654"><ele>6.0</ele><time>2026-04-17T09:50:10.94Z</time></trkpt><trkpt lat="40.5220736" lon="9.8257462"><ele>5.999999999999999</ele><time>2026-04-17T09:50:12.939Z</time></trkpt><trkpt lat="40.5221245" lon="9.8256826"><ele>6.0</ele><time>2026-04-17T09:50:14.939Z</time></trkpt><trkpt lat="40.5221608" lon="9.8256043"><ele>6.333333333333333</ele><time>2026-04-17T09:50:16.925Z</time></trkpt><trkpt lat="40.5222237" lon="9.8255793"><ele>6.666666666666666</ele><time>2026-04-17T09:50:18.938Z</time></trkpt><trkpt lat="40.5223084" lon="9.8255561"><ele>7.0</ele><time>2026-04-17T09:50:21.937Z</time></trkpt><trkpt lat="40.5223863" lon="9.8255489"><ele>7.333333333333333</ele><time>2026-04-17T09:50:25.938Z</time></trkpt><trkpt lat="40.5224092" lon="9.8256434"><ele>7.666666666666666</ele><time>2026-04-17T09:50:28.855Z</time></trkpt><trkpt lat="40.5224359" lon="9.8257357"><ele>8.0</ele><time>2026-04-17T09:50:31.939Z</time></trkpt><trkpt lat="40.5224853" lon="9.8258316"><ele>8.0</ele><time>2026-04-17T09:50:34.938Z</time></trkpt><trkpt lat="40.5225449" lon="9.8258672"><ele>7.999999999999999</ele><time>2026-04-17T09:50:36.938Z</time></trkpt><trkpt lat="40.5226038" lon="9.8259068"><ele>8.0</ele><time>2026-04-17T09:50:38.938Z</time></trkpt><trkpt lat="40.5226571" lon="9.8259602"><ele>8.0</ele><time>2026-04-17T09:50:40.939Z</time></trkpt><trkpt lat="40.5227158" lon="9.8260065"><ele>7.999999999999999</ele><time>2026-04-17T09:50:42.939Z</time></trkpt><trkpt lat="40.5227782" lon="9.8260382"><ele>8.0</ele><time>2026-04-17T09:50:44.939Z</time></trkpt><trkpt lat="40.5228369" lon="9.826077"><ele>8.0</ele><time>2026-04-17T09:50:46.939Z</time></trkpt><trkpt lat="40.5228961" lon="9.8261259"><ele>7.166666666666666</ele><time>2026-04-17T09:50:48.937Z</time></trkpt><trkpt lat="40.5229639" lon="9.8261738"><ele>6.333333333333333</ele><time>2026-04-17T09:50:50.938Z</time></trkpt><trkpt lat="40.5230372" lon="9.8262118"><ele>5.5</ele><time>2026-04-17T09:50:52.938Z</time></trkpt><trkpt lat="40.523108" lon="9.8262425"><ele>4.666666666666666</ele><time>2026-04-17T09:50:54.938Z</time></trkpt><trkpt lat="40.523181" lon="9.8262439"><ele>3.833333333333333</ele><time>2026-04-17T09:50:56.939Z</time></trkpt><trkpt lat="40.5232498" lon="9.8262083"><ele>3.0</ele><time>2026-04-17T09:50:58.905Z</time></trkpt><trkpt lat="40.5233034" lon="9.8261429"><ele>2.9999999999999996</ele><time>2026-04-17T09:51:00.94Z</time></trkpt><trkpt lat="40.5233662" lon="9.8260725"><ele>3.0</ele><time>2026-04-17T09:51:03.934Z</time></trkpt><trkpt lat="40.5234207" lon="9.826018"><ele>3.0</ele><time>2026-04-17T09:51:06.94Z</time></trkpt><trkpt lat="40.5235081" lon="9.8260197"><ele>3.0</ele><time>2026-04-17T09:51:09.939Z</time></trkpt><trkpt lat="40.5235779" lon="9.8260169"><ele>3.0</ele><time>2026-04-17T09:51:11.94Z</time></trkpt><trkpt lat="40.5236482" lon="9.8260055"><ele>2.9999999999999996</ele><time>2026-04-17T09:51:13.939Z</time></trkpt><trkpt lat="40.5237122" lon="9.8259776"><ele>3.0</ele><time>2026-04-17T09:51:15.938Z</time></trkpt><trkpt lat="40.5237671" lon="9.8259318"><ele>3.666666666666667</ele><time>2026-04-17T09:51:17.938Z</time></trkpt><trkpt lat="40.5238444" lon="9.8258769"><ele>4.333333333333334</ele><time>2026-04-17T09:51:20.939Z</time></trkpt><trkpt lat="40.5239354" lon="9.8258653"><ele>5.0</ele><time>2026-04-17T09:51:23.914Z</time></trkpt><trkpt lat="40.5240093" lon="9.825815"><ele>5.666666666666667</ele><time>2026-04-17T09:51:26.938Z</time></trkpt><trkpt lat="40.523984" lon="9.8257171"><ele>6.333333333333334</ele><time>2026-04-17T09:51:29.938Z</time></trkpt><trkpt lat="40.5239902" lon="9.8256334"><ele>7.0</ele><time>2026-04-17T09:51:32.939Z</time></trkpt><trkpt lat="40.5240045" lon="9.8255426"><ele>7.000000000000001</ele><time>2026-04-17T09:51:35.939Z</time></trkpt><trkpt lat="40.5240802" lon="9.8254788"><ele>7.0</ele><time>2026-04-17T09:51:38.94Z</time></trkpt><trkpt lat="40.524167" lon="9.8254372"><ele>7.0</ele><time>2026-04-17T09:51:41.948Z</time></trkpt><trkpt lat="40.5242366" lon="9.8253748"><ele>7.0</ele><time>2026-04-17T09:51:44.938Z</time></trkpt><trkpt lat="40.5243036" lon="9.8253356"><ele>7.000000000000001</ele><time>2026-04-17T09:51:47.938Z</time></trkpt><trkpt lat="40.5243507" lon="9.8252752"><ele>7.0</ele><time>2026-04-17T09:51:59.884Z</time></trkpt><trkpt lat="40.5244282" lon="9.8252989"><ele>7.000000000000001</ele><time>2026-04-17T09:52:10.938Z</time></trkpt><trkpt lat="40.5244876" lon="9.8253828"><ele>7.0</ele><time>2026-04-17T09:52:13.903Z</time></trkpt><trkpt lat="40.5245504" lon="9.8254351"><ele>7.0</ele><time>2026-04-17T09:52:15.938Z</time></trkpt><trkpt lat="40.5246351" lon="9.8254812"><ele>7.0</ele><time>2026-04-17T09:52:18.873Z</time></trkpt><trkpt lat="40.5246966" lon="9.825552"><ele>7.000000000000001</ele><time>2026-04-17T09:52:20.937Z</time></trkpt><trkpt lat="40.5247605" lon="9.8256289"><ele>7.0</ele><time>2026-04-17T09:52:22.939Z</time></trkpt><trkpt lat="40.5248282" lon="9.825708"><ele>6.8</ele><time>2026-04-17T09:52:24.938Z</time></trkpt><trkpt lat="40.5248972" lon="9.8257936"><ele>6.6</ele><time>2026-04-17T09:52:26.939Z</time></trkpt><trkpt lat="40.5249776" lon="9.8258725"><ele>6.3999999999999995</ele><time>2026-04-17T09:52:28.938Z</time></trkpt><trkpt lat="40.5250644" lon="9.8259416"><ele>6.199999999999999</ele><time>2026-04-17T09:52:30.937Z</time></trkpt><trkpt lat="40.5251505" lon="9.825998"><ele>6.0</ele><time>2026-04-17T09:52:32.939Z</time></trkpt><trkpt lat="40.5252418" lon="9.8260416"><ele>6.0</ele><time>2026-04-17T09:52:34.94Z</time></trkpt><trkpt lat="40.5253329" lon="9.826061"><ele>6.0</ele><time>2026-04-17T09:52:36.938Z</time></trkpt><trkpt lat="40.5254187" lon="9.8260719"><ele>6.0</ele><time>2026-04-17T09:52:38.938Z</time></trkpt><trkpt lat="40.5254977" lon="9.8260827"><ele>6.0</ele><time>2026-04-17T09:52:40.939Z</time></trkpt><trkpt lat="40.5255772" lon="9.8260915"><ele>6.0</ele><time>2026-04-17T09:52:42.938Z</time></trkpt><trkpt lat="40.5256582" lon="9.8260936"><ele>6.0</ele><time>2026-04-17T09:52:44.939Z</time></trkpt><trkpt lat="40.525745" lon="9.8260938"><ele>6.6</ele><time>2026-04-17T09:52:46.937Z</time></trkpt><trkpt lat="40.5258393" lon="9.8260978"><ele>7.199999999999999</ele><time>2026-04-17T09:52:48.939Z</time></trkpt><trkpt lat="40.5259406" lon="9.8261018"><ele>7.800000000000001</ele><time>2026-04-17T09:52:50.938Z</time></trkpt><trkpt lat="40.5260391" lon="9.8261001"><ele>8.4</ele><time>2026-04-17T09:52:52.939Z</time></trkpt><trkpt lat="40.5261239" lon="9.8261413"><ele>9.0</ele><time>2026-04-17T09:52:54.938Z</time></trkpt><trkpt lat="40.5262033" lon="9.8261826"><ele>9.166666666666666</ele><time>2026-04-17T09:52:56.939Z</time></trkpt><trkpt lat="40.5262793" lon="9.8261803"><ele>9.333333333333334</ele><time>2026-04-17T09:52:58.939Z</time></trkpt><trkpt lat="40.5263487" lon="9.8261583"><ele>9.5</ele><time>2026-04-17T09:53:00.939Z</time></trkpt><trkpt lat="40.5264194" lon="9.8261385"><ele>9.666666666666668</ele><time>2026-04-17T09:53:02.938Z</time></trkpt><trkpt lat="40.5265126" lon="9.8261419"><ele>9.833333333333334</ele><time>2026-04-17T09:53:05.938Z</time></trkpt><trkpt lat="40.526593" lon="9.8261327"><ele>10.0</ele><time>2026-04-17T09:53:08.938Z</time></trkpt><trkpt lat="40.5266729" lon="9.8261152"><ele>10.0</ele><time>2026-04-17T09:53:12.937Z</time></trkpt><trkpt lat="40.5267388" lon="9.8260568"><ele>10.0</ele><time>2026-04-17T09:53:15.938Z</time></trkpt><trkpt lat="40.5268054" lon="9.8259968"><ele>10.0</ele><time>2026-04-17T09:53:18.872Z</time></trkpt><trkpt lat="40.5268972" lon="9.825995"><ele>10.0</ele><time>2026-04-17T09:53:21.938Z</time></trkpt><trkpt lat="40.5269547" lon="9.8260814"><ele>10.0</ele><time>2026-04-17T09:53:24.939Z</time></trkpt><trkpt lat="40.5269805" lon="9.8261898"><ele>10.0</ele><time>2026-04-17T09:53:27.939Z</time></trkpt><trkpt lat="40.5269856" lon="9.8262801"><ele>10.0</ele><time>2026-04-17T09:53:29.858Z</time></trkpt><trkpt lat="40.5269954" lon="9.8263847"><ele>10.0</ele><time>2026-04-17T09:53:31.937Z</time></trkpt><trkpt lat="40.5270043" lon="9.8264997"><ele>10.0</ele><time>2026-04-17T09:53:34.938Z</time></trkpt><trkpt lat="40.527016" lon="9.8265923"><ele>10.0</ele><time>2026-04-17T09:53:36.918Z</time></trkpt><trkpt lat="40.5270462" lon="9.8267147"><ele>10.0</ele><time>2026-04-17T09:53:38.938Z</time></trkpt><trkpt lat="40.5271109" lon="9.8268405"><ele>9.166666666666668</ele><time>2026-04-17T09:53:40.938Z</time></trkpt><trkpt lat="40.5272111" lon="9.8268989"><ele>8.333333333333334</ele><time>2026-04-17T09:53:42.938Z</time></trkpt><trkpt lat="40.5273" lon="9.8269342"><ele>7.5</ele><time>2026-04-17T09:53:44.938Z</time></trkpt><trkpt lat="40.5273824" lon="9.8269852"><ele>6.666666666666667</ele><time>2026-04-17T09:53:46.939Z</time></trkpt><trkpt lat="40.5274532" lon="9.8270163"><ele>5.833333333333334</ele><time>2026-04-17T09:53:48.937Z</time></trkpt><trkpt lat="40.5275212" lon="9.8270422"><ele>5.0</ele><time>2026-04-17T09:53:50.937Z</time></trkpt><trkpt lat="40.5275872" lon="9.8270637"><ele>5.0</ele><time>2026-04-17T09:53:52.937Z</time></trkpt><trkpt lat="40.5276521" lon="9.8270773"><ele>5.0</ele><time>2026-04-17T09:53:54.937Z</time></trkpt><trkpt lat="40.527716" lon="9.8271058"><ele>5.0</ele><time>2026-04-17T09:53:56.938Z</time></trkpt><trkpt lat="40.527789" lon="9.827125"><ele>5.0</ele><time>2026-04-17T09:53:58.94Z</time></trkpt><trkpt lat="40.5278693" lon="9.8271437"><ele>5.0</ele><time>2026-04-17T09:54:00.94Z</time></trkpt><trkpt lat="40.5279454" lon="9.8271454"><ele>5.0</ele><time>2026-04-17T09:54:02.888Z</time></trkpt><trkpt lat="40.5280087" lon="9.8271595"><ele>5.0</ele><time>2026-04-17T09:54:04.937Z</time></trkpt><trkpt lat="40.5280654" lon="9.8271983"><ele>5.571428571428571</ele><time>2026-04-17T09:54:06.938Z</time></trkpt><trkpt lat="40.5281196" lon="9.8272628"><ele>6.142857142857143</ele><time>2026-04-17T09:54:08.938Z</time></trkpt><trkpt lat="40.5281849" lon="9.8273133"><ele>6.714285714285715</ele><time>2026-04-17T09:54:10.939Z</time></trkpt><trkpt lat="40.5282556" lon="9.8273509"><ele>7.2857142857142865</ele><time>2026-04-17T09:54:12.937Z</time></trkpt><trkpt lat="40.5283311" lon="9.827357"><ele>7.857142857142858</ele><time>2026-04-17T09:54:14.938Z</time></trkpt><trkpt lat="40.5283907" lon="9.8272866"><ele>8.428571428571429</ele><time>2026-04-17T09:54:16.895Z</time></trkpt><trkpt lat="40.5284346" lon="9.8272184"><ele>9.0</ele><time>2026-04-17T09:54:18.938Z</time></trkpt><trkpt lat="40.5285064" lon="9.8271826"><ele>9.0</ele><time>2026-04-17T09:54:21.84Z</time></trkpt><trkpt lat="40.528589" lon="9.827153"><ele>9.0</ele><time>2026-04-17T09:54:24.938Z</time></trkpt><trkpt lat="40.5286386" lon="9.8270975"><ele>9.0</ele><time>2026-04-17T09:54:26.937Z</time></trkpt><trkpt lat="40.528697" lon="9.8270474"><ele>9.0</ele><time>2026-04-17T09:54:28.937Z</time></trkpt><trkpt lat="40.5287602" lon="9.8269907"><ele>9.0</ele><time>2026-04-17T09:54:30.938Z</time></trkpt><trkpt lat="40.5288267" lon="9.8269322"><ele>9.0</ele><time>2026-04-17T09:54:32.939Z</time></trkpt><trkpt lat="40.5288988" lon="9.8268857"><ele>8.833333333333334</ele><time>2026-04-17T09:54:34.937Z</time></trkpt><trkpt lat="40.528968" lon="9.8268282"><ele>8.666666666666666</ele><time>2026-04-17T09:54:36.938Z</time></trkpt><trkpt lat="40.529037" lon="9.8267638"><ele>8.5</ele><time>2026-04-17T09:54:38.939Z</time></trkpt><trkpt lat="40.5291192" lon="9.8267219"><ele>8.333333333333332</ele><time>2026-04-17T09:54:40.937Z</time></trkpt><trkpt lat="40.5291998" lon="9.826656"><ele>8.166666666666666</ele><time>2026-04-17T09:54:42.938Z</time></trkpt><trkpt lat="40.5292758" lon="9.8265817"><ele>8.0</ele><time>2026-04-17T09:54:44.938Z</time></trkpt><trkpt lat="40.5293577" lon="9.8265288"><ele>7.999999999999999</ele><time>2026-04-17T09:54:46.937Z</time></trkpt><trkpt lat="40.5294401" lon="9.8264854"><ele>8.0</ele><time>2026-04-17T09:54:48.937Z</time></trkpt><trkpt lat="40.5295068" lon="9.8264242"><ele>8.0</ele><time>2026-04-17T09:54:50.938Z</time></trkpt><trkpt lat="40.5295665" lon="9.8263593"><ele>8.0</ele><time>2026-04-17T09:54:52.939Z</time></trkpt><trkpt lat="40.5296454" lon="9.8262943"><ele>7.999999999999999</ele><time>2026-04-17T09:54:55.938Z</time></trkpt><trkpt lat="40.5297052" lon="9.8261771"><ele>8.0</ele><time>2026-04-17T09:54:57.939Z</time></trkpt><trkpt lat="40.5297663" lon="9.8261037"><ele>7.999999999999999</ele><time>2026-04-17T09:54:59.937Z</time></trkpt><trkpt lat="40.5298287" lon="9.8260376"><ele>8.0</ele><time>2026-04-17T09:55:01.939Z</time></trkpt><trkpt lat="40.5298855" lon="9.8259655"><ele>8.0</ele><time>2026-04-17T09:55:03.937Z</time></trkpt><trkpt lat="40.5299368" lon="9.8258827"><ele>8.0</ele><time>2026-04-17T09:55:05.937Z</time></trkpt><trkpt lat="40.529988" lon="9.8257921"><ele>7.999999999999999</ele><time>2026-04-17T09:55:07.937Z</time></trkpt><trkpt lat="40.5300563" lon="9.8257198"><ele>8.0</ele><time>2026-04-17T09:55:09.938Z</time></trkpt><trkpt lat="40.5301208" lon="9.825639"><ele>7.999999999999999</ele><time>2026-04-17T09:55:11.938Z</time></trkpt><trkpt lat="40.5301731" lon="9.8255775"><ele>8.0</ele><time>2026-04-17T09:55:13.88Z</time></trkpt><trkpt lat="40.5302437" lon="9.8254682"><ele>8.0</ele><time>2026-04-17T09:55:15.937Z</time></trkpt><trkpt lat="40.5303022" lon="9.8253814"><ele>8.0</ele><time>2026-04-17T09:55:17.889Z</time></trkpt><trkpt lat="40.5303607" lon="9.8252984"><ele>7.999999999999999</ele><time>2026-04-17T09:55:19.853Z</time></trkpt><trkpt lat="40.5304146" lon="9.8251976"><ele>8.0</ele><time>2026-04-17T09:55:21.938Z</time></trkpt><trkpt lat="40.5304719" lon="9.8251085"><ele>7.800000000000001</ele><time>2026-04-17T09:55:23.939Z</time></trkpt><trkpt lat="40.5305362" lon="9.825027"><ele>7.6000000000000005</ele><time>2026-04-17T09:55:25.939Z</time></trkpt><trkpt lat="40.5305911" lon="9.824933"><ele>7.3999999999999995</ele><time>2026-04-17T09:55:27.939Z</time></trkpt><trkpt lat="40.5306511" lon="9.8248389"><ele>7.199999999999999</ele><time>2026-04-17T09:55:29.938Z</time></trkpt><trkpt lat="40.5307079" lon="9.8247398"><ele>7.0</ele><time>2026-04-17T09:55:31.939Z</time></trkpt><trkpt lat="40.5307571" lon="9.8246338"><ele>7.0</ele><time>2026-04-17T09:55:33.938Z</time></trkpt><trkpt lat="40.5308088" lon="9.8245357"><ele>6.999999999999999</ele><time>2026-04-17T09:55:35.938Z</time></trkpt><trkpt lat="40.5308602" lon="9.8244325"><ele>6.999999999999999</ele><time>2026-04-17T09:55:37.939Z</time></trkpt><trkpt lat="40.530909" lon="9.8243273"><ele>7.0</ele><time>2026-04-17T09:55:39.938Z</time></trkpt><trkpt lat="40.5309616" lon="9.8242192"><ele>7.0</ele><time>2026-04-17T09:55:41.938Z</time></trkpt><trkpt lat="40.5310098" lon="9.8241084"><ele>6.8</ele><time>2026-04-17T09:55:43.937Z</time></trkpt><trkpt lat="40.5310599" lon="9.8240031"><ele>6.6</ele><time>2026-04-17T09:55:45.938Z</time></trkpt><trkpt lat="40.5311142" lon="9.8239081"><ele>6.3999999999999995</ele><time>2026-04-17T09:55:47.938Z</time></trkpt><trkpt lat="40.531159" lon="9.8237953"><ele>6.199999999999999</ele><time>2026-04-17T09:55:49.937Z</time></trkpt><trkpt lat="40.5312102" lon="9.8236806"><ele>6.0</ele><time>2026-04-17T09:55:51.938Z</time></trkpt><trkpt lat="40.5312649" lon="9.8235664"><ele>6.6</ele><time>2026-04-17T09:55:53.937Z</time></trkpt><trkpt lat="40.5313193" lon="9.8234476"><ele>7.199999999999999</ele><time>2026-04-17T09:55:55.938Z</time></trkpt><trkpt lat="40.5313671" lon="9.8233291"><ele>7.800000000000001</ele><time>2026-04-17T09:55:57.937Z</time></trkpt><trkpt lat="40.5314233" lon="9.8232138"><ele>8.4</ele><time>2026-04-17T09:55:59.937Z</time></trkpt><trkpt lat="40.5314744" lon="9.823099"><ele>9.0</ele><time>2026-04-17T09:56:01.938Z</time></trkpt><trkpt lat="40.5315215" lon="9.8229855"><ele>9.0</ele><time>2026-04-17T09:56:03.937Z</time></trkpt><trkpt lat="40.5315576" lon="9.8228753"><ele>9.0</ele><time>2026-04-17T09:56:05.937Z</time></trkpt><trkpt lat="40.5315935" lon="9.8227887"><ele>9.0</ele><time>2026-04-17T09:56:07.938Z</time></trkpt><trkpt lat="40.5316346" lon="9.8227097"><ele>9.0</ele><time>2026-04-17T09:56:09.938Z</time></trkpt><trkpt lat="40.5316838" lon="9.8226233"><ele>9.0</ele><time>2026-04-17T09:56:11.938Z</time></trkpt><trkpt lat="40.53173" lon="9.8225239"><ele>9.0</ele><time>2026-04-17T09:56:13.938Z</time></trkpt><trkpt lat="40.5317816" lon="9.8224154"><ele>9.6</ele><time>2026-04-17T09:56:15.939Z</time></trkpt><trkpt lat="40.5318345" lon="9.8223065"><ele>10.2</ele><time>2026-04-17T09:56:17.939Z</time></trkpt><trkpt lat="40.5318903" lon="9.8221957"><ele>10.799999999999999</ele><time>2026-04-17T09:56:19.939Z</time></trkpt><trkpt lat="40.5319412" lon="9.8220809"><ele>11.4</ele><time>2026-04-17T09:56:21.938Z</time></trkpt><trkpt lat="40.5319979" lon="9.8219628"><ele>12.0</ele><time>2026-04-17T09:56:23.938Z</time></trkpt><trkpt lat="40.5320532" lon="9.8218399"><ele>11.0</ele><time>2026-04-17T09:56:25.938Z</time></trkpt><trkpt lat="40.5321069" lon="9.8217177"><ele>10.0</ele><time>2026-04-17T09:56:27.939Z</time></trkpt><trkpt lat="40.5321661" lon="9.8215942"><ele>9.0</ele><time>2026-04-17T09:56:29.939Z</time></trkpt><trkpt lat="40.5322206" lon="9.8214716"><ele>8.0</ele><time>2026-04-17T09:56:31.939Z</time></trkpt><trkpt lat="40.532276" lon="9.8213559"><ele>7.0</ele><time>2026-04-17T09:56:33.938Z</time></trkpt><trkpt lat="40.5323271" lon="9.8212467"><ele>7.0</ele><time>2026-04-17T09:56:35.939Z</time></trkpt><trkpt lat="40.5323799" lon="9.8211432"><ele>6.999999999999999</ele><time>2026-04-17T09:56:37.938Z</time></trkpt><trkpt lat="40.5324326" lon="9.8210425"><ele>6.999999999999999</ele><time>2026-04-17T09:56:39.937Z</time></trkpt><trkpt lat="40.5324791" lon="9.8209378"><ele>7.0</ele><time>2026-04-17T09:56:41.938Z</time></trkpt><trkpt lat="40.5325191" lon="9.820833"><ele>7.0</ele><time>2026-04-17T09:56:43.938Z</time></trkpt><trkpt lat="40.5325696" lon="9.8207361"><ele>7.6</ele><time>2026-04-17T09:56:45.937Z</time></trkpt><trkpt lat="40.5326177" lon="9.8206338"><ele>8.2</ele><time>2026-04-17T09:56:47.937Z</time></trkpt><trkpt lat="40.5326683" lon="9.8205343"><ele>8.8</ele><time>2026-04-17T09:56:49.937Z</time></trkpt><trkpt lat="40.5327068" lon="9.820429"><ele>9.4</ele><time>2026-04-17T09:56:51.939Z</time></trkpt><trkpt lat="40.5327608" lon="9.8203301"><ele>10.0</ele><time>2026-04-17T09:56:53.938Z</time></trkpt><trkpt lat="40.5328001" lon="9.8202201"><ele>10.8</ele><time>2026-04-17T09:56:55.938Z</time></trkpt><trkpt lat="40.5328484" lon="9.8201158"><ele>11.6</ele><time>2026-04-17T09:56:57.937Z</time></trkpt><trkpt lat="40.5328998" lon="9.8200197"><ele>12.399999999999999</ele><time>2026-04-17T09:56:59.937Z</time></trkpt><trkpt lat="40.5329501" lon="9.8199157"><ele>13.2</ele><time>2026-04-17T09:57:01.937Z</time></trkpt><trkpt lat="40.5329981" lon="9.819804"><ele>14.0</ele><time>2026-04-17T09:57:03.937Z</time></trkpt><trkpt lat="40.5330495" lon="9.8196892"><ele>12.2</ele><time>2026-04-17T09:57:05.937Z</time></trkpt><trkpt lat="40.5331023" lon="9.8195661"><ele>10.399999999999999</ele><time>2026-04-17T09:57:07.939Z</time></trkpt><trkpt lat="40.53316" lon="9.8194446"><ele>8.6</ele><time>2026-04-17T09:57:09.937Z</time></trkpt><trkpt lat="40.5332117" lon="9.8193127"><ele>6.8</ele><time>2026-04-17T09:57:11.938Z</time></trkpt><trkpt lat="40.5332712" lon="9.8191835"><ele>5.0</ele><time>2026-04-17T09:57:13.937Z</time></trkpt><trkpt lat="40.5333346" lon="9.8190618"><ele>5.0</ele><time>2026-04-17T09:57:15.939Z</time></trkpt><trkpt lat="40.5333902" lon="9.8189361"><ele>5.0</ele><time>2026-04-17T09:57:17.938Z</time></trkpt><trkpt lat="40.5334451" lon="9.8188089"><ele>5.0</ele><time>2026-04-17T09:57:19.938Z</time></trkpt><trkpt lat="40.5335021" lon="9.8186764"><ele>5.0</ele><time>2026-04-17T09:57:21.937Z</time></trkpt><trkpt lat="40.5335631" lon="9.8185487"><ele>4.8</ele><time>2026-04-17T09:57:23.937Z</time></trkpt><trkpt lat="40.5336201" lon="9.8184198"><ele>4.6</ele><time>2026-04-17T09:57:25.938Z</time></trkpt><trkpt lat="40.533678" lon="9.8183005"><ele>4.4</ele><time>2026-04-17T09:57:27.937Z</time></trkpt><trkpt lat="40.5337399" lon="9.818187"><ele>4.2</ele><time>2026-04-17T09:57:29.938Z</time></trkpt><trkpt lat="40.5337911" lon="9.8180745"><ele>4.0</ele><time>2026-04-17T09:57:31.936Z</time></trkpt><trkpt lat="40.5338387" lon="9.8179721"><ele>3.9999999999999996</ele><time>2026-04-17T09:57:33.938Z</time></trkpt><trkpt lat="40.5338816" lon="9.8178759"><ele>4.0</ele><time>2026-04-17T09:57:35.937Z</time></trkpt><trkpt lat="40.5339274" lon="9.8177896"><ele>4.0</ele><time>2026-04-17T09:57:37.938Z</time></trkpt><trkpt lat="40.5339626" lon="9.8176975"><ele>4.0</ele><time>2026-04-17T09:57:39.936Z</time></trkpt><trkpt lat="40.5339984" lon="9.8176023"><ele>3.9999999999999996</ele><time>2026-04-17T09:57:41.937Z</time></trkpt><trkpt lat="40.5340459" lon="9.8175124"><ele>4.0</ele><time>2026-04-17T09:57:43.938Z</time></trkpt><trkpt lat="40.5340984" lon="9.8174203"><ele>4.166666666666666</ele><time>2026-04-17T09:57:45.938Z</time></trkpt><trkpt lat="40.5341335" lon="9.8173173"><ele>4.333333333333333</ele><time>2026-04-17T09:57:47.865Z</time></trkpt><trkpt lat="40.5341572" lon="9.8172034"><ele>4.5</ele><time>2026-04-17T09:57:49.875Z</time></trkpt><trkpt lat="40.5341773" lon="9.8170842"><ele>4.666666666666667</ele><time>2026-04-17T09:57:51.936Z</time></trkpt><trkpt lat="40.534194" lon="9.816969"><ele>4.833333333333334</ele><time>2026-04-17T09:57:53.937Z</time></trkpt><trkpt lat="40.5342092" lon="9.8168555"><ele>5.0</ele><time>2026-04-17T09:57:55.938Z</time></trkpt><trkpt lat="40.5342187" lon="9.8167438"><ele>5.333333333333334</ele><time>2026-04-17T09:57:57.945Z</time></trkpt><trkpt lat="40.5342134" lon="9.8166324"><ele>5.666666666666667</ele><time>2026-04-17T09:57:59.96Z</time></trkpt><trkpt lat="40.5342013" lon="9.8165222"><ele>6.0</ele><time>2026-04-17T09:58:01.938Z</time></trkpt><trkpt lat="40.5341842" lon="9.816417"><ele>6.333333333333334</ele><time>2026-04-17T09:58:03.938Z</time></trkpt><trkpt lat="40.5341643" lon="9.8163189"><ele>6.666666666666667</ele><time>2026-04-17T09:58:05.937Z</time></trkpt><trkpt lat="40.5341332" lon="9.8162276"><ele>7.0</ele><time>2026-04-17T09:58:07.936Z</time></trkpt><trkpt lat="40.5341003" lon="9.8161366"><ele>7.000000000000001</ele><time>2026-04-17T09:58:09.937Z</time></trkpt><trkpt lat="40.5340672" lon="9.8160446"><ele>7.0</ele><time>2026-04-17T09:58:11.939Z</time></trkpt><trkpt lat="40.5340372" lon="9.8159432"><ele>7.0</ele><time>2026-04-17T09:58:13.936Z</time></trkpt><trkpt lat="40.5339894" lon="9.8158483"><ele>7.0</ele><time>2026-04-17T09:58:15.937Z</time></trkpt><trkpt lat="40.5339409" lon="9.8157535"><ele>7.000000000000001</ele><time>2026-04-17T09:58:17.937Z</time></trkpt><trkpt lat="40.5338977" lon="9.8156537"><ele>7.0</ele><time>2026-04-17T09:58:19.936Z</time></trkpt><trkpt lat="40.5338611" lon="9.8155504"><ele>7.000000000000001</ele><time>2026-04-17T09:58:21.896Z</time></trkpt><trkpt lat="40.5338136" lon="9.815448"><ele>7.0</ele><time>2026-04-17T09:58:23.938Z</time></trkpt><trkpt lat="40.5337642" lon="9.8153569"><ele>7.0</ele><time>2026-04-17T09:58:25.866Z</time></trkpt><trkpt lat="40.5337205" lon="9.8152491"><ele>7.0</ele><time>2026-04-17T09:58:27.937Z</time></trkpt><trkpt lat="40.5336791" lon="9.8151479"><ele>7.000000000000001</ele><time>2026-04-17T09:58:29.896Z</time></trkpt><trkpt lat="40.5336301" lon="9.8150465"><ele>7.0</ele><time>2026-04-17T09:58:31.936Z</time></trkpt><trkpt lat="40.5335846" lon="9.8149471"><ele>7.833333333333334</ele><time>2026-04-17T09:58:33.938Z</time></trkpt><trkpt lat="40.5335404" lon="9.8148452"><ele>8.666666666666668</ele><time>2026-04-17T09:58:35.937Z</time></trkpt><trkpt lat="40.5335001" lon="9.8147471"><ele>9.5</ele><time>2026-04-17T09:58:37.867Z</time></trkpt><trkpt lat="40.5334576" lon="9.8146411"><ele>10.333333333333334</ele><time>2026-04-17T09:58:39.938Z</time></trkpt><trkpt lat="40.5334134" lon="9.814544"><ele>11.166666666666666</ele><time>2026-04-17T09:58:41.937Z</time></trkpt><trkpt lat="40.5333697" lon="9.8144445"><ele>12.0</ele><time>2026-04-17T09:58:43.939Z</time></trkpt><trkpt lat="40.5333244" lon="9.8143497"><ele>12.0</ele><time>2026-04-17T09:58:45.937Z</time></trkpt><trkpt lat="40.533279" lon="9.8142556"><ele>12.0</ele><time>2026-04-17T09:58:47.938Z</time></trkpt><trkpt lat="40.5332264" lon="9.8141639"><ele>12.0</ele><time>2026-04-17T09:58:49.938Z</time></trkpt><trkpt lat="40.5331937" lon="9.8140605"><ele>12.0</ele><time>2026-04-17T09:58:51.937Z</time></trkpt><trkpt lat="40.533157" lon="9.8139524"><ele>12.0</ele><time>2026-04-17T09:58:53.938Z</time></trkpt><trkpt lat="40.5331118" lon="9.8138514"><ele>12.0</ele><time>2026-04-17T09:58:55.937Z</time></trkpt><trkpt lat="40.5330618" lon="9.8137498"><ele>12.0</ele><time>2026-04-17T09:58:57.938Z</time></trkpt><trkpt lat="40.5330171" lon="9.8136435"><ele>12.0</ele><time>2026-04-17T09:58:59.938Z</time></trkpt><trkpt lat="40.5329755" lon="9.8135353"><ele>12.0</ele><time>2026-04-17T09:59:01.937Z</time></trkpt><trkpt lat="40.5329232" lon="9.8134314"><ele>12.0</ele><time>2026-04-17T09:59:03.937Z</time></trkpt><trkpt lat="40.5328761" lon="9.8133283"><ele>12.0</ele><time>2026-04-17T09:59:05.938Z</time></trkpt><trkpt lat="40.532826" lon="9.8132282"><ele>12.6</ele><time>2026-04-17T09:59:07.938Z</time></trkpt><trkpt lat="40.5327782" lon="9.8131219"><ele>13.2</ele><time>2026-04-17T09:59:09.938Z</time></trkpt><trkpt lat="40.5327319" lon="9.8130115"><ele>13.8</ele><time>2026-04-17T09:59:11.938Z</time></trkpt><trkpt lat="40.5326902" lon="9.8129055"><ele>14.4</ele><time>2026-04-17T09:59:13.936Z</time></trkpt><trkpt lat="40.5326397" lon="9.8128076"><ele>15.0</ele><time>2026-04-17T09:59:15.938Z</time></trkpt><trkpt lat="40.5326006" lon="9.8127057"><ele>14.833333333333334</ele><time>2026-04-17T09:59:17.937Z</time></trkpt><trkpt lat="40.5325572" lon="9.8126086"><ele>14.666666666666668</ele><time>2026-04-17T09:59:19.936Z</time></trkpt><trkpt lat="40.5325125" lon="9.8125091"><ele>14.5</ele><time>2026-04-17T09:59:21.937Z</time></trkpt><trkpt lat="40.5325038" lon="9.8124138"><ele>14.333333333333334</ele><time>2026-04-17T09:59:23.938Z</time></trkpt><trkpt lat="40.5324669" lon="9.8122937"><ele>14.166666666666668</ele><time>2026-04-17T09:59:25.937Z</time></trkpt><trkpt lat="40.5324232" lon="9.8121825"><ele>14.0</ele><time>2026-04-17T09:59:27.937Z</time></trkpt><trkpt lat="40.532411" lon="9.8120602"><ele>14.000000000000002</ele><time>2026-04-17T09:59:29.937Z</time></trkpt><trkpt lat="40.5324105" lon="9.8119418"><ele>14.0</ele><time>2026-04-17T09:59:31.939Z</time></trkpt><trkpt lat="40.5324099" lon="9.8118233"><ele>14.0</ele><time>2026-04-17T09:59:33.937Z</time></trkpt><trkpt lat="40.5324" lon="9.811712"><ele>14.0</ele><time>2026-04-17T09:59:35.937Z</time></trkpt><trkpt lat="40.5323996" lon="9.8116004"><ele>14.000000000000002</ele><time>2026-04-17T09:59:37.938Z</time></trkpt><trkpt lat="40.5323973" lon="9.8114914"><ele>14.0</ele><time>2026-04-17T09:59:39.939Z</time></trkpt><trkpt lat="40.5323901" lon="9.8113739"><ele>14.000000000000002</ele><time>2026-04-17T09:59:42.938Z</time></trkpt><trkpt lat="40.5323866" lon="9.8112898"><ele>14.0</ele><time>2026-04-17T09:59:43.937Z</time></trkpt><trkpt lat="40.5323595" lon="9.8111728"><ele>14.0</ele><time>2026-04-17T09:59:45.937Z</time></trkpt><trkpt lat="40.5323716" lon="9.8110608"><ele>14.0</ele><time>2026-04-17T09:59:47.938Z</time></trkpt><trkpt lat="40.5323747" lon="9.8109477"><ele>14.000000000000002</ele><time>2026-04-17T09:59:49.936Z</time></trkpt><trkpt lat="40.5323645" lon="9.810838"><ele>14.0</ele><time>2026-04-17T09:59:51.939Z</time></trkpt><trkpt lat="40.532353" lon="9.8107268"><ele>13.833333333333334</ele><time>2026-04-17T09:59:53.939Z</time></trkpt><trkpt lat="40.5323489" lon="9.8106191"><ele>13.666666666666668</ele><time>2026-04-17T09:59:55.844Z</time></trkpt><trkpt lat="40.5323434" lon="9.8105041"><ele>13.5</ele><time>2026-04-17T09:59:57.878Z</time></trkpt><trkpt lat="40.5323465" lon="9.8103866"><ele>13.333333333333332</ele><time>2026-04-17T09:59:59.937Z</time></trkpt><trkpt lat="40.5323431" lon="9.8102729"><ele>13.166666666666666</ele><time>2026-04-17T10:00:01.938Z</time></trkpt><trkpt lat="40.5323426" lon="9.8101599"><ele>13.0</ele><time>2026-04-17T10:00:03.938Z</time></trkpt><trkpt lat="40.5323335" lon="9.81005"><ele>12.666666666666666</ele><time>2026-04-17T10:00:05.937Z</time></trkpt><trkpt lat="40.5323351" lon="9.8099411"><ele>12.333333333333332</ele><time>2026-04-17T10:00:07.938Z</time></trkpt><trkpt lat="40.5323337" lon="9.8098322"><ele>12.0</ele><time>2026-04-17T10:00:09.937Z</time></trkpt><trkpt lat="40.532327" lon="9.8097267"><ele>11.666666666666666</ele><time>2026-04-17T10:00:11.936Z</time></trkpt><trkpt lat="40.5323326" lon="9.8096243"><ele>11.333333333333332</ele><time>2026-04-17T10:00:13.938Z</time></trkpt><trkpt lat="40.53233" lon="9.8095231"><ele>11.0</ele><time>2026-04-17T10:00:15.939Z</time></trkpt><trkpt lat="40.5323257" lon="9.8094261"><ele>11.0</ele><time>2026-04-17T10:00:17.937Z</time></trkpt><trkpt lat="40.5323147" lon="9.8093304"><ele>11.0</ele><time>2026-04-17T10:00:19.938Z</time></trkpt><trkpt lat="40.532309" lon="9.8092261"><ele>11.0</ele><time>2026-04-17T10:00:21.937Z</time></trkpt><trkpt lat="40.5323078" lon="9.8091162"><ele>11.0</ele><time>2026-04-17T10:00:23.937Z</time></trkpt><trkpt lat="40.5323032" lon="9.8090032"><ele>11.0</ele><time>2026-04-17T10:00:25.936Z</time></trkpt><trkpt lat="40.5322998" lon="9.8088909"><ele>11.0</ele><time>2026-04-17T10:00:27.922Z</time></trkpt><trkpt lat="40.5322926" lon="9.8087724"><ele>10.8</ele><time>2026-04-17T10:00:29.938Z</time></trkpt><trkpt lat="40.5322908" lon="9.8086475"><ele>10.600000000000001</ele><time>2026-04-17T10:00:31.937Z</time></trkpt><trkpt lat="40.5322938" lon="9.8085228"><ele>10.4</ele><time>2026-04-17T10:00:33.937Z</time></trkpt><trkpt lat="40.5322886" lon="9.8084036"><ele>10.2</ele><time>2026-04-17T10:00:35.937Z</time></trkpt><trkpt lat="40.5322813" lon="9.8082862"><ele>10.0</ele><time>2026-04-17T10:00:37.937Z</time></trkpt><trkpt lat="40.532275" lon="9.8081735"><ele>10.0</ele><time>2026-04-17T10:00:39.939Z</time></trkpt><trkpt lat="40.532259" lon="9.8080623"><ele>10.0</ele><time>2026-04-17T10:00:41.938Z</time></trkpt><trkpt lat="40.5322486" lon="9.8079483"><ele>10.0</ele><time>2026-04-17T10:00:43.937Z</time></trkpt><trkpt lat="40.5322417" lon="9.8078601"><ele>10.0</ele><time>2026-04-17T10:00:45.937Z</time></trkpt><trkpt lat="40.5322273" lon="9.8077516"><ele>10.0</ele><time>2026-04-17T10:00:47.71Z</time></trkpt><trkpt lat="40.5322131" lon="9.8076161"><ele>10.0</ele><time>2026-04-17T10:00:49.938Z</time></trkpt><trkpt lat="40.5321888" lon="9.8075068"><ele>9.833333333333334</ele><time>2026-04-17T10:00:51.937Z</time></trkpt><trkpt lat="40.532181" lon="9.8073992"><ele>9.666666666666668</ele><time>2026-04-17T10:00:53.876Z</time></trkpt><trkpt lat="40.5321624" lon="9.8072932"><ele>9.5</ele><time>2026-04-17T10:00:55.938Z</time></trkpt><trkpt lat="40.532144" lon="9.8071966"><ele>9.333333333333334</ele><time>2026-04-17T10:00:57.884Z</time></trkpt><trkpt lat="40.5321285" lon="9.8070976"><ele>9.166666666666666</ele><time>2026-04-17T10:00:59.958Z</time></trkpt><trkpt lat="40.5321268" lon="9.8070078"><ele>9.0</ele><time>2026-04-17T10:01:01.938Z</time></trkpt><trkpt lat="40.5321188" lon="9.8069183"><ele>9.000000000000002</ele><time>2026-04-17T10:01:03.937Z</time></trkpt><trkpt lat="40.5321128" lon="9.8068325"><ele>9.0</ele><time>2026-04-17T10:01:05.938Z</time></trkpt><trkpt lat="40.5320974" lon="9.806747"><ele>9.0</ele><time>2026-04-17T10:01:07.938Z</time></trkpt><trkpt lat="40.532084" lon="9.8066624"><ele>9.0</ele><time>2026-04-17T10:01:09.882Z</time></trkpt><trkpt lat="40.5320665" lon="9.8065712"><ele>9.0</ele><time>2026-04-17T10:01:11.934Z</time></trkpt><trkpt lat="40.5320517" lon="9.8064784"><ele>9.000000000000002</ele><time>2026-04-17T10:01:13.938Z</time></trkpt><trkpt lat="40.5320354" lon="9.8063807"><ele>9.0</ele><time>2026-04-17T10:01:15.937Z</time></trkpt><trkpt lat="40.53203" lon="9.806275"><ele>9.5</ele><time>2026-04-17T10:01:17.936Z</time></trkpt><trkpt lat="40.5320091" lon="9.8061684"><ele>10.0</ele><time>2026-04-17T10:01:19.936Z</time></trkpt><trkpt lat="40.5319959" lon="9.8060572"><ele>10.5</ele><time>2026-04-17T10:01:21.939Z</time></trkpt><trkpt lat="40.5319881" lon="9.805943"><ele>11.0</ele><time>2026-04-17T10:01:23.938Z</time></trkpt><trkpt lat="40.5319738" lon="9.8058329"><ele>11.5</ele><time>2026-04-17T10:01:25.937Z</time></trkpt><trkpt lat="40.5319529" lon="9.8057219"><ele>12.0</ele><time>2026-04-17T10:01:27.937Z</time></trkpt><trkpt lat="40.5319345" lon="9.805615"><ele>12.0</ele><time>2026-04-17T10:01:29.936Z</time></trkpt><trkpt lat="40.5319177" lon="9.8055066"><ele>12.0</ele><time>2026-04-17T10:01:31.936Z</time></trkpt><trkpt lat="40.5319034" lon="9.8053946"><ele>12.0</ele><time>2026-04-17T10:01:33.937Z</time></trkpt><trkpt lat="40.5318952" lon="9.8052848"><ele>12.0</ele><time>2026-04-17T10:01:35.936Z</time></trkpt><trkpt lat="40.5318828" lon="9.8051795"><ele>12.0</ele><time>2026-04-17T10:01:37.856Z</time></trkpt><trkpt lat="40.531866" lon="9.8050633"><ele>12.0</ele><time>2026-04-17T10:01:39.938Z</time></trkpt><trkpt lat="40.5318495" lon="9.8049512"><ele>11.666666666666666</ele><time>2026-04-17T10:01:41.937Z</time></trkpt><trkpt lat="40.5318445" lon="9.8048354"><ele>11.333333333333334</ele><time>2026-04-17T10:01:43.936Z</time></trkpt><trkpt lat="40.5318307" lon="9.8047236"><ele>11.0</ele><time>2026-04-17T10:01:45.938Z</time></trkpt><trkpt lat="40.531825" lon="9.8046131"><ele>10.666666666666668</ele><time>2026-04-17T10:01:47.936Z</time></trkpt><trkpt lat="40.5318237" lon="9.8044975"><ele>10.333333333333334</ele><time>2026-04-17T10:01:49.937Z</time></trkpt><trkpt lat="40.5318046" lon="9.8043838"><ele>10.0</ele><time>2026-04-17T10:01:51.937Z</time></trkpt><trkpt lat="40.5317824" lon="9.8042716"><ele>9.666666666666668</ele><time>2026-04-17T10:01:53.938Z</time></trkpt><trkpt lat="40.5317686" lon="9.8041601"><ele>9.333333333333334</ele><time>2026-04-17T10:01:55.937Z</time></trkpt><trkpt lat="40.5317563" lon="9.8040525"><ele>9.0</ele><time>2026-04-17T10:01:57.858Z</time></trkpt><trkpt lat="40.5317505" lon="9.8039388"><ele>8.666666666666666</ele><time>2026-04-17T10:01:59.936Z</time></trkpt><trkpt lat="40.5317419" lon="9.8038226"><ele>8.333333333333332</ele><time>2026-04-17T10:02:01.937Z</time></trkpt><trkpt lat="40.5317322" lon="9.8037087"><ele>8.0</ele><time>2026-04-17T10:02:03.937Z</time></trkpt><trkpt lat="40.5317183" lon="9.8035985"><ele>7.999999999999999</ele><time>2026-04-17T10:02:05.937Z</time></trkpt><trkpt lat="40.531701" lon="9.803491"><ele>8.0</ele><time>2026-04-17T10:02:07.937Z</time></trkpt><trkpt lat="40.5316981" lon="9.8033758"><ele>8.0</ele><time>2026-04-17T10:02:09.936Z</time></trkpt><trkpt lat="40.5316828" lon="9.8032596"><ele>8.0</ele><time>2026-04-17T10:02:11.936Z</time></trkpt><trkpt lat="40.5316719" lon="9.8031421"><ele>7.999999999999999</ele><time>2026-04-17T10:02:13.936Z</time></trkpt><trkpt lat="40.5316722" lon="9.8030253"><ele>8.0</ele><time>2026-04-17T10:02:15.937Z</time></trkpt><trkpt lat="40.5316868" lon="9.8029096"><ele>7.999999999999999</ele><time>2026-04-17T10:02:17.938Z</time></trkpt><trkpt lat="40.5317195" lon="9.8027994"><ele>8.0</ele><time>2026-04-17T10:02:19.936Z</time></trkpt><trkpt lat="40.5317549" lon="9.802702"><ele>8.0</ele><time>2026-04-17T10:02:21.938Z</time></trkpt><trkpt lat="40.5318055" lon="9.8026153"><ele>8.0</ele><time>2026-04-17T10:02:23.937Z</time></trkpt><trkpt lat="40.5318651" lon="9.8025384"><ele>7.999999999999999</ele><time>2026-04-17T10:02:25.937Z</time></trkpt><trkpt lat="40.5319379" lon="9.8024795"><ele>8.0</ele><time>2026-04-17T10:02:27.938Z</time></trkpt><trkpt lat="40.5320219" lon="9.8024405"><ele>7.800000000000001</ele><time>2026-04-17T10:02:29.938Z</time></trkpt><trkpt lat="40.5321064" lon="9.8024081"><ele>7.6000000000000005</ele><time>2026-04-17T10:02:31.937Z</time></trkpt><trkpt lat="40.5322045" lon="9.8023711"><ele>7.3999999999999995</ele><time>2026-04-17T10:02:33.938Z</time></trkpt><trkpt lat="40.5322955" lon="9.8023329"><ele>7.199999999999999</ele><time>2026-04-17T10:02:35.937Z</time></trkpt><trkpt lat="40.5323789" lon="9.8022788"><ele>7.0</ele><time>2026-04-17T10:02:37.937Z</time></trkpt><trkpt lat="40.5324689" lon="9.8022378"><ele>7.0</ele><time>2026-04-17T10:02:39.937Z</time></trkpt><trkpt lat="40.5325569" lon="9.8021957"><ele>6.999999999999999</ele><time>2026-04-17T10:02:41.937Z</time></trkpt><trkpt lat="40.5326506" lon="9.8021606"><ele>6.999999999999999</ele><time>2026-04-17T10:02:43.936Z</time></trkpt><trkpt lat="40.5327462" lon="9.8021117"><ele>7.0</ele><time>2026-04-17T10:02:45.937Z</time></trkpt><trkpt lat="40.5328399" lon="9.8020694"><ele>7.0</ele><time>2026-04-17T10:02:47.936Z</time></trkpt><trkpt lat="40.5329324" lon="9.8020267"><ele>7.199999999999999</ele><time>2026-04-17T10:02:49.937Z</time></trkpt><trkpt lat="40.5330301" lon="9.8019887"><ele>7.3999999999999995</ele><time>2026-04-17T10:02:51.937Z</time></trkpt><trkpt lat="40.5331239" lon="9.8019361"><ele>7.6000000000000005</ele><time>2026-04-17T10:02:53.936Z</time></trkpt><trkpt lat="40.5332057" lon="9.8018581"><ele>7.800000000000001</ele><time>2026-04-17T10:02:55.938Z</time></trkpt><trkpt lat="40.5332873" lon="9.8017707"><ele>8.0</ele><time>2026-04-17T10:02:57.936Z</time></trkpt><trkpt lat="40.5333542" lon="9.8016633"><ele>7.999999999999999</ele><time>2026-04-17T10:02:59.936Z</time></trkpt><trkpt lat="40.5334118" lon="9.8015568"><ele>8.0</ele><time>2026-04-17T10:03:01.937Z</time></trkpt><trkpt lat="40.5334605" lon="9.8014739"><ele>8.0</ele><time>2026-04-17T10:03:03.936Z</time></trkpt><trkpt lat="40.5335031" lon="9.8013857"><ele>8.0</ele><time>2026-04-17T10:03:05.936Z</time></trkpt><trkpt lat="40.5335426" lon="9.8013032"><ele>7.999999999999999</ele><time>2026-04-17T10:03:07.937Z</time></trkpt><trkpt lat="40.5335867" lon="9.8012327"><ele>8.0</ele><time>2026-04-17T10:03:09.937Z</time></trkpt><trkpt lat="40.5336258" lon="9.8011463"><ele>7.999999999999999</ele><time>2026-04-17T10:03:11.936Z</time></trkpt><trkpt lat="40.5336556" lon="9.8010528"><ele>8.0</ele><time>2026-04-17T10:03:13.938Z</time></trkpt><trkpt lat="40.5336909" lon="9.8009602"><ele>8.0</ele><time>2026-04-17T10:03:15.936Z</time></trkpt><trkpt lat="40.5337285" lon="9.800864"><ele>8.0</ele><time>2026-04-17T10:03:17.938Z</time></trkpt><trkpt lat="40.5337756" lon="9.8007749"><ele>7.999999999999999</ele><time>2026-04-17T10:03:19.938Z</time></trkpt><trkpt lat="40.5338224" lon="9.8006793"><ele>8.0</ele><time>2026-04-17T10:03:21.937Z</time></trkpt><trkpt lat="40.5338662" lon="9.8005846"><ele>8.5</ele><time>2026-04-17T10:03:23.937Z</time></trkpt><trkpt lat="40.533906" lon="9.8004948"><ele>9.0</ele><time>2026-04-17T10:03:25.937Z</time></trkpt><trkpt lat="40.533956" lon="9.8004105"><ele>9.5</ele><time>2026-04-17T10:03:27.938Z</time></trkpt><trkpt lat="40.5339922" lon="9.8003273"><ele>10.0</ele><time>2026-04-17T10:03:29.693Z</time></trkpt><trkpt lat="40.5340292" lon="9.8002189"><ele>10.5</ele><time>2026-04-17T10:03:31.937Z</time></trkpt><trkpt lat="40.5340697" lon="9.8001256"><ele>11.0</ele><time>2026-04-17T10:03:33.937Z</time></trkpt><trkpt lat="40.534112" lon="9.8000287"><ele>11.0</ele><time>2026-04-17T10:03:35.938Z</time></trkpt><trkpt lat="40.534153" lon="9.7999281"><ele>11.0</ele><time>2026-04-17T10:03:37.938Z</time></trkpt><trkpt lat="40.5342064" lon="9.7998325"><ele>11.0</ele><time>2026-04-17T10:03:39.936Z</time></trkpt><trkpt lat="40.5342476" lon="9.7997263"><ele>11.0</ele><time>2026-04-17T10:03:41.937Z</time></trkpt><trkpt lat="40.5342897" lon="9.7996218"><ele>11.0</ele><time>2026-04-17T10:03:43.937Z</time></trkpt><trkpt lat="40.5343362" lon="9.7995178"><ele>11.0</ele><time>2026-04-17T10:03:45.936Z</time></trkpt><trkpt lat="40.5343783" lon="9.7994101"><ele>11.0</ele><time>2026-04-17T10:03:47.937Z</time></trkpt><trkpt lat="40.534428" lon="9.7993164"><ele>11.0</ele><time>2026-04-17T10:03:49.936Z</time></trkpt><trkpt lat="40.5344691" lon="9.7992135"><ele>11.0</ele><time>2026-04-17T10:03:51.938Z</time></trkpt><trkpt lat="40.5345098" lon="9.799108"><ele>11.0</ele><time>2026-04-17T10:03:53.937Z</time></trkpt><trkpt lat="40.5345563" lon="9.799029"><ele>11.0</ele><time>2026-04-17T10:03:55.937Z</time></trkpt><trkpt lat="40.5346051" lon="9.7989389"><ele>11.0</ele><time>2026-04-17T10:03:57.937Z</time></trkpt><trkpt lat="40.5346494" lon="9.7988331"><ele>11.0</ele><time>2026-04-17T10:03:59.937Z</time></trkpt><trkpt lat="40.534688" lon="9.7987389"><ele>11.0</ele><time>2026-04-17T10:04:01.937Z</time></trkpt><trkpt lat="40.5347195" lon="9.7986453"><ele>11.0</ele><time>2026-04-17T10:04:03.937Z</time></trkpt><trkpt lat="40.5347655" lon="9.7985618"><ele>11.0</ele><time>2026-04-17T10:04:05.938Z</time></trkpt><trkpt lat="40.5348134" lon="9.7984779"><ele>11.0</ele><time>2026-04-17T10:04:07.937Z</time></trkpt><trkpt lat="40.5348545" lon="9.7983896"><ele>11.0</ele><time>2026-04-17T10:04:09.937Z</time></trkpt><trkpt lat="40.534894" lon="9.7983001"><ele>10.666666666666666</ele><time>2026-04-17T10:04:11.907Z</time></trkpt><trkpt lat="40.5349282" lon="9.7982092"><ele>10.333333333333332</ele><time>2026-04-17T10:04:13.936Z</time></trkpt><trkpt lat="40.5349646" lon="9.7981203"><ele>10.0</ele><time>2026-04-17T10:04:15.938Z</time></trkpt><trkpt lat="40.5350102" lon="9.7980413"><ele>9.666666666666666</ele><time>2026-04-17T10:04:17.936Z</time></trkpt><trkpt lat="40.5350485" lon="9.7979525"><ele>9.333333333333334</ele><time>2026-04-17T10:04:19.897Z</time></trkpt><trkpt lat="40.5350821" lon="9.7978577"><ele>9.0</ele><time>2026-04-17T10:04:21.817Z</time></trkpt><trkpt lat="40.5351233" lon="9.7977613"><ele>9.0</ele><time>2026-04-17T10:04:23.879Z</time></trkpt><trkpt lat="40.5351633" lon="9.7976733"><ele>9.0</ele><time>2026-04-17T10:04:25.896Z</time></trkpt><trkpt lat="40.535202" lon="9.797581"><ele>9.0</ele><time>2026-04-17T10:04:27.937Z</time></trkpt><trkpt lat="40.5352474" lon="9.7974909"><ele>9.0</ele><time>2026-04-17T10:04:29.916Z</time></trkpt><trkpt lat="40.5352887" lon="9.79739"><ele>9.0</ele><time>2026-04-17T10:04:31.937Z</time></trkpt><trkpt lat="40.5353333" lon="9.7973034"><ele>9.0</ele><time>2026-04-17T10:04:33.838Z</time></trkpt><trkpt lat="40.5353756" lon="9.7971958"><ele>9.0</ele><time>2026-04-17T10:04:35.937Z</time></trkpt><trkpt lat="40.5354149" lon="9.797091"><ele>9.0</ele><time>2026-04-17T10:04:37.936Z</time></trkpt><trkpt lat="40.5354635" lon="9.7969964"><ele>9.0</ele><time>2026-04-17T10:04:39.937Z</time></trkpt><trkpt lat="40.5355246" lon="9.7969096"><ele>9.0</ele><time>2026-04-17T10:04:41.936Z</time></trkpt><trkpt lat="40.535574" lon="9.7968129"><ele>9.0</ele><time>2026-04-17T10:04:43.936Z</time></trkpt><trkpt lat="40.5356179" lon="9.7967128"><ele>9.0</ele><time>2026-04-17T10:04:45.936Z</time></trkpt><trkpt lat="40.5356518" lon="9.7966124"><ele>9.166666666666666</ele><time>2026-04-17T10:04:47.937Z</time></trkpt><trkpt lat="40.5356801" lon="9.7965084"><ele>9.333333333333334</ele><time>2026-04-17T10:04:49.953Z</time></trkpt><trkpt lat="40.5356884" lon="9.7963986"><ele>9.5</ele><time>2026-04-17T10:04:51.937Z</time></trkpt><trkpt lat="40.5356768" lon="9.7962865"><ele>9.666666666666668</ele><time>2026-04-17T10:04:53.937Z</time></trkpt><trkpt lat="40.5356549" lon="9.7961731"><ele>9.833333333333334</ele><time>2026-04-17T10:04:55.937Z</time></trkpt><trkpt lat="40.535635" lon="9.7960577"><ele>10.0</ele><time>2026-04-17T10:04:57.937Z</time></trkpt><trkpt lat="40.5356012" lon="9.7959586"><ele>10.166666666666668</ele><time>2026-04-17T10:04:59.937Z</time></trkpt><trkpt lat="40.5355691" lon="9.7958532"><ele>10.333333333333334</ele><time>2026-04-17T10:05:01.938Z</time></trkpt><trkpt lat="40.5355431" lon="9.7957478"><ele>10.5</ele><time>2026-04-17T10:05:03.937Z</time></trkpt><trkpt lat="40.5355247" lon="9.7956653"><ele>10.666666666666666</ele><time>2026-04-17T10:05:05.937Z</time></trkpt><trkpt lat="40.5355003" lon="9.7955467"><ele>10.833333333333332</ele><time>2026-04-17T10:05:07.935Z</time></trkpt><trkpt lat="40.5354646" lon="9.7954377"><ele>11.0</ele><time>2026-04-17T10:05:09.937Z</time></trkpt><trkpt lat="40.5354352" lon="9.7953272"><ele>11.0</ele><time>2026-04-17T10:05:11.936Z</time></trkpt><trkpt lat="40.5354008" lon="9.7952177"><ele>11.0</ele><time>2026-04-17T10:05:13.936Z</time></trkpt><trkpt lat="40.5353687" lon="9.7951073"><ele>11.0</ele><time>2026-04-17T10:05:15.938Z</time></trkpt><trkpt lat="40.5353458" lon="9.7949968"><ele>11.0</ele><time>2026-04-17T10:05:17.937Z</time></trkpt><trkpt lat="40.5353207" lon="9.7948813"><ele>11.0</ele><time>2026-04-17T10:05:19.937Z</time></trkpt><trkpt lat="40.5352869" lon="9.7947687"><ele>14.0</ele><time>2026-04-17T10:05:21.937Z</time></trkpt><trkpt lat="40.5352544" lon="9.7946531"><ele>14.0</ele><time>2026-04-17T10:05:23.937Z</time></trkpt><trkpt lat="40.535226" lon="9.7945345"><ele>14.0</ele><time>2026-04-17T10:05:25.938Z</time></trkpt><trkpt lat="40.5351915" lon="9.7944181"><ele>14.0</ele><time>2026-04-17T10:05:27.937Z</time></trkpt></trkseg><trkseg><trkpt lat="40.5346117" lon="9.7916026"><ele>20.0</ele><time>2026-04-17T10:15:33.935Z</time></trkpt><trkpt lat="40.5346361" lon="9.7916912"><ele>20.0</ele><time>2026-04-17T10:15:36.936Z</time></trkpt><trkpt lat="40.5346261" lon="9.7917909"><ele>20.0</ele><time>2026-04-17T10:15:40.885Z</time></trkpt><trkpt lat="40.5345676" lon="9.7918273"><ele>20.0</ele><time>2026-04-17T10:15:43.935Z</time></trkpt><trkpt lat="40.5345016" lon="9.7918489"><ele>20.0</ele><time>2026-04-17T10:15:47.934Z</time></trkpt><trkpt lat="40.534476" lon="9.7917569"><ele>20.0</ele><time>2026-04-17T10:15:51.905Z</time></trkpt><trkpt lat="40.5344612" lon="9.7916606"><ele>20.0</ele><time>2026-04-17T10:15:55.935Z</time></trkpt><trkpt lat="40.5344345" lon="9.7915714"><ele>19.857142857142858</ele><time>2026-04-17T10:16:00.935Z</time></trkpt><trkpt lat="40.5343883" lon="9.7915088"><ele>19.714285714285715</ele><time>2026-04-17T10:16:10.936Z</time></trkpt><trkpt lat="40.5343608" lon="9.7914307"><ele>19.57142857142857</ele><time>2026-04-17T10:16:13.935Z</time></trkpt><trkpt lat="40.5343436" lon="9.7913451"><ele>19.42857142857143</ele><time>2026-04-17T10:16:16.935Z</time></trkpt><trkpt lat="40.5343133" lon="9.7912638"><ele>19.28571428571429</ele><time>2026-04-17T10:16:19.936Z</time></trkpt><trkpt lat="40.534288" lon="9.7911764"><ele>19.142857142857142</ele><time>2026-04-17T10:16:22.936Z</time></trkpt><trkpt lat="40.5342767" lon="9.791091"><ele>19.0</ele><time>2026-04-17T10:16:25.935Z</time></trkpt><trkpt lat="40.5342609" lon="9.7910003"><ele>19.0</ele><time>2026-04-17T10:16:30.84Z</time></trkpt><trkpt lat="40.5341889" lon="9.7909307"><ele>19.0</ele><time>2026-04-17T10:18:23.934Z</time></trkpt><trkpt lat="40.5341734" lon="9.7908222"><ele>19.0</ele><time>2026-04-17T10:18:26.935Z</time></trkpt><trkpt lat="40.5341994" lon="9.7907076"><ele>19.0</ele><time>2026-04-17T10:18:28.935Z</time></trkpt><trkpt lat="40.5342119" lon="9.7906236"><ele>19.0</ele><time>2026-04-17T10:18:30.936Z</time></trkpt><trkpt lat="40.5342189" lon="9.7905075"><ele>19.0</ele><time>2026-04-17T10:18:33.935Z</time></trkpt><trkpt lat="40.5342532" lon="9.7904118"><ele>19.0</ele><time>2026-04-17T10:18:36.942Z</time></trkpt><trkpt lat="40.5342998" lon="9.7903361"><ele>19.0</ele><time>2026-04-17T10:18:39.936Z</time></trkpt><trkpt lat="40.5343408" lon="9.7902595"><ele>19.0</ele><time>2026-04-17T10:18:42.935Z</time></trkpt><trkpt lat="40.5344142" lon="9.7902101"><ele>19.0</ele><time>2026-04-17T10:18:45.934Z</time></trkpt><trkpt lat="40.5344749" lon="9.7901587"><ele>19.0</ele><time>2026-04-17T10:18:48.935Z</time></trkpt><trkpt lat="40.5345436" lon="9.7901188"><ele>19.0</ele><time>2026-04-17T10:18:51.936Z</time></trkpt><trkpt lat="40.5346185" lon="9.7900675"><ele>19.333333333333332</ele><time>2026-04-17T10:18:54.935Z</time></trkpt><trkpt lat="40.5346757" lon="9.7900274"><ele>19.666666666666664</ele><time>2026-04-17T10:18:56.936Z</time></trkpt><trkpt lat="40.5347402" lon="9.7899788"><ele>20.0</ele><time>2026-04-17T10:18:58.934Z</time></trkpt><trkpt lat="40.5348189" lon="9.7899259"><ele>20.333333333333332</ele><time>2026-04-17T10:19:00.934Z</time></trkpt><trkpt lat="40.5349057" lon="9.7898624"><ele>20.666666666666668</ele><time>2026-04-17T10:19:02.934Z</time></trkpt><trkpt lat="40.5350017" lon="9.7897956"><ele>21.0</ele><time>2026-04-17T10:19:04.935Z</time></trkpt><trkpt lat="40.5351027" lon="9.7897233"><ele>21.0</ele><time>2026-04-17T10:19:06.936Z</time></trkpt><trkpt lat="40.5352117" lon="9.7896465"><ele>21.0</ele><time>2026-04-17T10:19:08.936Z</time></trkpt><trkpt lat="40.5352665" lon="9.7896034"><ele>21.0</ele><time>2026-04-17T10:19:09.934Z</time></trkpt><trkpt lat="40.535328" lon="9.7895618"><ele>21.0</ele><time>2026-04-17T10:19:10.935Z</time></trkpt><trkpt lat="40.5353903" lon="9.789516"><ele>21.0</ele><time>2026-04-17T10:19:11.935Z</time></trkpt><trkpt lat="40.535453" lon="9.7894687"><ele>21.0</ele><time>2026-04-17T10:19:12.935Z</time></trkpt><trkpt lat="40.5355201" lon="9.7894225"><ele>20.0</ele><time>2026-04-17T10:19:13.935Z</time></trkpt><trkpt lat="40.5355858" lon="9.7893755"><ele>19.0</ele><time>2026-04-17T10:19:14.936Z</time></trkpt><trkpt lat="40.5356642" lon="9.7893268"><ele>18.0</ele><time>2026-04-17T10:19:15.937Z</time></trkpt><trkpt lat="40.5357378" lon="9.7892779"><ele>17.0</ele><time>2026-04-17T10:19:16.937Z</time></trkpt><trkpt lat="40.535812" lon="9.7892223"><ele>16.0</ele><time>2026-04-17T10:19:17.935Z</time></trkpt><trkpt lat="40.5358882" lon="9.7891717"><ele>15.0</ele><time>2026-04-17T10:19:18.934Z</time></trkpt><trkpt lat="40.5359658" lon="9.7891201"><ele>14.5</ele><time>2026-04-17T10:19:19.935Z</time></trkpt><trkpt lat="40.5360429" lon="9.789064"><ele>14.0</ele><time>2026-04-17T10:19:20.935Z</time></trkpt><trkpt lat="40.5361219" lon="9.7890122"><ele>13.5</ele><time>2026-04-17T10:19:21.936Z</time></trkpt><trkpt lat="40.5361988" lon="9.7889553"><ele>13.0</ele><time>2026-04-17T10:19:22.935Z</time></trkpt><trkpt lat="40.536275" lon="9.7888992"><ele>12.5</ele><time>2026-04-17T10:19:23.935Z</time></trkpt><trkpt lat="40.5363484" lon="9.7888485"><ele>12.0</ele><time>2026-04-17T10:19:24.936Z</time></trkpt><trkpt lat="40.5364246" lon="9.7887976"><ele>11.5</ele><time>2026-04-17T10:19:25.935Z</time></trkpt><trkpt lat="40.5365025" lon="9.7887448"><ele>11.0</ele><time>2026-04-17T10:19:26.936Z</time></trkpt><trkpt lat="40.5365756" lon="9.7886886"><ele>10.5</ele><time>2026-04-17T10:19:27.936Z</time></trkpt><trkpt lat="40.536646" lon="9.7886305"><ele>10.0</ele><time>2026-04-17T10:19:28.935Z</time></trkpt><trkpt lat="40.5367127" lon="9.7885799"><ele>9.5</ele><time>2026-04-17T10:19:29.936Z</time></trkpt><trkpt lat="40.5367784" lon="9.7885285"><ele>9.0</ele><time>2026-04-17T10:19:30.936Z</time></trkpt><trkpt lat="40.5368447" lon="9.7884917"><ele>9.0</ele><time>2026-04-17T10:19:31.937Z</time></trkpt><trkpt lat="40.5369097" lon="9.7884487"><ele>9.0</ele><time>2026-04-17T10:19:32.937Z</time></trkpt><trkpt lat="40.5369659" lon="9.7884074"><ele>9.0</ele><time>2026-04-17T10:19:33.934Z</time></trkpt><trkpt lat="40.5370735" lon="9.788332"><ele>9.0</ele><time>2026-04-17T10:19:35.936Z</time></trkpt><trkpt lat="40.5371699" lon="9.7882704"><ele>9.0</ele><time>2026-04-17T10:19:37.936Z</time></trkpt><trkpt lat="40.5372535" lon="9.7882102"><ele>8.833333333333334</ele><time>2026-04-17T10:19:39.934Z</time></trkpt><trkpt lat="40.5373355" lon="9.7881556"><ele>8.666666666666666</ele><time>2026-04-17T10:19:41.935Z</time></trkpt><trkpt lat="40.5374117" lon="9.7881094"><ele>8.5</ele><time>2026-04-17T10:19:43.934Z</time></trkpt><trkpt lat="40.5374913" lon="9.7880567"><ele>8.333333333333332</ele><time>2026-04-17T10:19:45.935Z</time></trkpt><trkpt lat="40.5375583" lon="9.7880002"><ele>8.166666666666666</ele><time>2026-04-17T10:19:47.936Z</time></trkpt><trkpt lat="40.5376275" lon="9.7879492"><ele>8.0</ele><time>2026-04-17T10:19:49.936Z</time></trkpt><trkpt lat="40.5377004" lon="9.7878914"><ele>8.0</ele><time>2026-04-17T10:19:51.936Z</time></trkpt><trkpt lat="40.5377792" lon="9.7878332"><ele>8.0</ele><time>2026-04-17T10:19:53.937Z</time></trkpt><trkpt lat="40.537864" lon="9.7877816"><ele>8.0</ele><time>2026-04-17T10:19:55.935Z</time></trkpt><trkpt lat="40.5379436" lon="9.7877276"><ele>8.0</ele><time>2026-04-17T10:19:57.934Z</time></trkpt><trkpt lat="40.5380337" lon="9.7876715"><ele>8.0</ele><time>2026-04-17T10:19:59.936Z</time></trkpt><trkpt lat="40.5381195" lon="9.7876163"><ele>8.4</ele><time>2026-04-17T10:20:01.935Z</time></trkpt><trkpt lat="40.5382025" lon="9.787553"><ele>8.8</ele><time>2026-04-17T10:20:03.936Z</time></trkpt><trkpt lat="40.5382904" lon="9.7874987"><ele>9.2</ele><time>2026-04-17T10:20:05.935Z</time></trkpt><trkpt lat="40.5383731" lon="9.7874327"><ele>9.6</ele><time>2026-04-17T10:20:07.934Z</time></trkpt><trkpt lat="40.5384596" lon="9.7873698"><ele>10.0</ele><time>2026-04-17T10:20:09.935Z</time></trkpt><trkpt lat="40.5385402" lon="9.7873191"><ele>10.0</ele><time>2026-04-17T10:20:11.936Z</time></trkpt><trkpt lat="40.5386243" lon="9.787263"><ele>10.0</ele><time>2026-04-17T10:20:13.935Z</time></trkpt><trkpt lat="40.5387042" lon="9.7871976"><ele>10.0</ele><time>2026-04-17T10:20:15.934Z</time></trkpt><trkpt lat="40.53879" lon="9.7871469"><ele>10.0</ele><time>2026-04-17T10:20:17.936Z</time></trkpt><trkpt lat="40.5388763" lon="9.7870884"><ele>10.0</ele><time>2026-04-17T10:20:19.935Z</time></trkpt><trkpt lat="40.5389505" lon="9.7870351"><ele>10.166666666666668</ele><time>2026-04-17T10:20:21.936Z</time></trkpt><trkpt lat="40.5390279" lon="9.786991"><ele>10.333333333333334</ele><time>2026-04-17T10:20:23.935Z</time></trkpt><trkpt lat="40.5391057" lon="9.7869411"><ele>10.5</ele><time>2026-04-17T10:20:25.936Z</time></trkpt><trkpt lat="40.5391849" lon="9.7868947"><ele>10.666666666666666</ele><time>2026-04-17T10:20:27.935Z</time></trkpt><trkpt lat="40.5392631" lon="9.7868406"><ele>10.833333333333332</ele><time>2026-04-17T10:20:29.936Z</time></trkpt><trkpt lat="40.5393381" lon="9.7867827"><ele>11.0</ele><time>2026-04-17T10:20:31.937Z</time></trkpt><trkpt lat="40.5394124" lon="9.7867246"><ele>10.833333333333332</ele><time>2026-04-17T10:20:33.935Z</time></trkpt><trkpt lat="40.5394895" lon="9.7866745"><ele>10.666666666666666</ele><time>2026-04-17T10:20:35.936Z</time></trkpt><trkpt lat="40.5395659" lon="9.7866183"><ele>10.5</ele><time>2026-04-17T10:20:37.935Z</time></trkpt><trkpt lat="40.5396426" lon="9.7865671"><ele>10.333333333333334</ele><time>2026-04-17T10:20:39.935Z</time></trkpt><trkpt lat="40.5397183" lon="9.7865141"><ele>10.166666666666668</ele><time>2026-04-17T10:20:41.935Z</time></trkpt><trkpt lat="40.5397944" lon="9.7864593"><ele>10.0</ele><time>2026-04-17T10:20:43.934Z</time></trkpt><trkpt lat="40.5398721" lon="9.7864038"><ele>10.0</ele><time>2026-04-17T10:20:45.935Z</time></trkpt><trkpt lat="40.5399504" lon="9.7863468"><ele>10.0</ele><time>2026-04-17T10:20:47.934Z</time></trkpt><trkpt lat="40.5400326" lon="9.7862832"><ele>10.0</ele><time>2026-04-17T10:20:49.936Z</time></trkpt><trkpt lat="40.5401182" lon="9.7862283"><ele>10.0</ele><time>2026-04-17T10:20:51.935Z</time></trkpt><trkpt lat="40.5402012" lon="9.7861674"><ele>10.0</ele><time>2026-04-17T10:20:53.936Z</time></trkpt><trkpt lat="40.5402801" lon="9.7861089"><ele>10.0</ele><time>2026-04-17T10:20:55.935Z</time></trkpt><trkpt lat="40.540361" lon="9.7860535"><ele>10.0</ele><time>2026-04-17T10:20:57.935Z</time></trkpt><trkpt lat="40.5404434" lon="9.7859962"><ele>10.0</ele><time>2026-04-17T10:20:59.936Z</time></trkpt><trkpt lat="40.5405233" lon="9.7859443"><ele>10.0</ele><time>2026-04-17T10:21:01.936Z</time></trkpt><trkpt lat="40.5406011" lon="9.7858837"><ele>10.0</ele><time>2026-04-17T10:21:03.934Z</time></trkpt><trkpt lat="40.5406779" lon="9.7858295"><ele>9.833333333333334</ele><time>2026-04-17T10:21:05.936Z</time></trkpt><trkpt lat="40.5407566" lon="9.785777"><ele>9.666666666666668</ele><time>2026-04-17T10:21:07.936Z</time></trkpt><trkpt lat="40.5408392" lon="9.7857239"><ele>9.5</ele><time>2026-04-17T10:21:09.934Z</time></trkpt><trkpt lat="40.5409143" lon="9.7856664"><ele>9.333333333333334</ele><time>2026-04-17T10:21:11.937Z</time></trkpt><trkpt lat="40.5409913" lon="9.7856069"><ele>9.166666666666666</ele><time>2026-04-17T10:21:13.936Z</time></trkpt><trkpt lat="40.541071" lon="9.7855504"><ele>9.0</ele><time>2026-04-17T10:21:15.936Z</time></trkpt><trkpt lat="40.5411516" lon="9.7854881"><ele>9.0</ele><time>2026-04-17T10:21:17.934Z</time></trkpt><trkpt lat="40.5412308" lon="9.7854306"><ele>9.0</ele><time>2026-04-17T10:21:19.934Z</time></trkpt><trkpt lat="40.5413126" lon="9.7853746"><ele>9.0</ele><time>2026-04-17T10:21:21.935Z</time></trkpt><trkpt lat="40.5413912" lon="9.785322"><ele>9.0</ele><time>2026-04-17T10:21:23.935Z</time></trkpt><trkpt lat="40.5414679" lon="9.7852688"><ele>9.0</ele><time>2026-04-17T10:21:25.936Z</time></trkpt><trkpt lat="40.5415444" lon="9.7852104"><ele>9.0</ele><time>2026-04-17T10:21:27.934Z</time></trkpt><trkpt lat="40.5416294" lon="9.7851587"><ele>9.0</ele><time>2026-04-17T10:21:29.935Z</time></trkpt><trkpt lat="40.5417151" lon="9.7851057"><ele>9.0</ele><time>2026-04-17T10:21:31.934Z</time></trkpt><trkpt lat="40.5418142" lon="9.7850394"><ele>9.0</ele><time>2026-04-17T10:21:33.936Z</time></trkpt><trkpt lat="40.5419219" lon="9.7849723"><ele>9.0</ele><time>2026-04-17T10:21:35.937Z</time></trkpt><trkpt lat="40.5420329" lon="9.7849081"><ele>9.0</ele><time>2026-04-17T10:21:37.936Z</time></trkpt><trkpt lat="40.542092" lon="9.7848714"><ele>8.714285714285715</ele><time>2026-04-17T10:21:38.935Z</time></trkpt><trkpt lat="40.5421536" lon="9.7848332"><ele>8.428571428571429</ele><time>2026-04-17T10:21:39.935Z</time></trkpt><trkpt lat="40.542215" lon="9.7847979"><ele>8.142857142857142</ele><time>2026-04-17T10:21:40.936Z</time></trkpt><trkpt lat="40.5422756" lon="9.7847618"><ele>7.857142857142858</ele><time>2026-04-17T10:21:41.935Z</time></trkpt><trkpt lat="40.5423363" lon="9.7847221"><ele>7.571428571428571</ele><time>2026-04-17T10:21:42.937Z</time></trkpt><trkpt lat="40.5423977" lon="9.7846855"><ele>7.285714285714286</ele><time>2026-04-17T10:21:43.934Z</time></trkpt><trkpt lat="40.5424597" lon="9.7846461"><ele>7.0</ele><time>2026-04-17T10:21:44.936Z</time></trkpt><trkpt lat="40.5425241" lon="9.7846093"><ele>7.000000000000001</ele><time>2026-04-17T10:21:45.934Z</time></trkpt><trkpt lat="40.5425813" lon="9.7845707"><ele>7.0</ele><time>2026-04-17T10:21:46.934Z</time></trkpt><trkpt lat="40.5426416" lon="9.784531"><ele>7.0</ele><time>2026-04-17T10:21:47.935Z</time></trkpt><trkpt lat="40.5427006" lon="9.7844987"><ele>7.0</ele><time>2026-04-17T10:21:48.934Z</time></trkpt><trkpt lat="40.5428118" lon="9.7844258"><ele>7.000000000000001</ele><time>2026-04-17T10:21:50.935Z</time></trkpt><trkpt lat="40.542916" lon="9.7843565"><ele>7.0</ele><time>2026-04-17T10:21:52.935Z</time></trkpt><trkpt lat="40.5430114" lon="9.7842972"><ele>6.199999999999999</ele><time>2026-04-17T10:21:54.934Z</time></trkpt><trkpt lat="40.5430929" lon="9.7842421"><ele>5.3999999999999995</ele><time>2026-04-17T10:21:56.935Z</time></trkpt><trkpt lat="40.5431746" lon="9.7841809"><ele>4.6</ele><time>2026-04-17T10:21:58.935Z</time></trkpt><trkpt lat="40.5432594" lon="9.78413"><ele>3.8</ele><time>2026-04-17T10:22:00.935Z</time></trkpt><trkpt lat="40.5433409" lon="9.7840807"><ele>3.0</ele><time>2026-04-17T10:22:02.935Z</time></trkpt><trkpt lat="40.5434266" lon="9.7840268"><ele>3.0</ele><time>2026-04-17T10:22:04.935Z</time></trkpt><trkpt lat="40.5435156" lon="9.7839741"><ele>3.0</ele><time>2026-04-17T10:22:06.936Z</time></trkpt><trkpt lat="40.5435982" lon="9.7839192"><ele>3.0</ele><time>2026-04-17T10:22:08.935Z</time></trkpt><trkpt lat="40.5436823" lon="9.7838699"><ele>3.0</ele><time>2026-04-17T10:22:10.936Z</time></trkpt><trkpt lat="40.5437638" lon="9.7838261"><ele>3.0</ele><time>2026-04-17T10:22:12.936Z</time></trkpt><trkpt lat="40.5438449" lon="9.7837712"><ele>3.833333333333333</ele><time>2026-04-17T10:22:14.935Z</time></trkpt><trkpt lat="40.543923" lon="9.7837206"><ele>4.666666666666666</ele><time>2026-04-17T10:22:16.935Z</time></trkpt><trkpt lat="40.5439996" lon="9.7836754"><ele>5.5</ele><time>2026-04-17T10:22:18.935Z</time></trkpt><trkpt lat="40.5440727" lon="9.7836368"><ele>6.333333333333333</ele><time>2026-04-17T10:22:20.934Z</time></trkpt><trkpt lat="40.544142" lon="9.7835935"><ele>7.166666666666666</ele><time>2026-04-17T10:22:22.935Z</time></trkpt><trkpt lat="40.5442085" lon="9.7835534"><ele>8.0</ele><time>2026-04-17T10:22:24.934Z</time></trkpt><trkpt lat="40.5442776" lon="9.7835053"><ele>7.999999999999999</ele><time>2026-04-17T10:22:26.936Z</time></trkpt><trkpt lat="40.5443534" lon="9.7834747"><ele>8.0</ele><time>2026-04-17T10:22:28.935Z</time></trkpt><trkpt lat="40.5444244" lon="9.7834317"><ele>8.0</ele><time>2026-04-17T10:22:30.935Z</time></trkpt><trkpt lat="40.5444939" lon="9.7833897"><ele>8.0</ele><time>2026-04-17T10:22:32.935Z</time></trkpt><trkpt lat="40.5445672" lon="9.7833618"><ele>7.999999999999999</ele><time>2026-04-17T10:22:34.935Z</time></trkpt><trkpt lat="40.544648" lon="9.7833405"><ele>8.0</ele><time>2026-04-17T10:22:36.935Z</time></trkpt><trkpt lat="40.5447296" lon="9.7833262"><ele>8.5</ele><time>2026-04-17T10:22:38.936Z</time></trkpt><trkpt lat="40.5448122" lon="9.7833226"><ele>9.0</ele><time>2026-04-17T10:22:40.935Z</time></trkpt><trkpt lat="40.5448967" lon="9.7833296"><ele>9.5</ele><time>2026-04-17T10:22:42.936Z</time></trkpt><trkpt lat="40.5449827" lon="9.7833451"><ele>10.0</ele><time>2026-04-17T10:22:44.934Z</time></trkpt><trkpt lat="40.5450723" lon="9.7833781"><ele>10.5</ele><time>2026-04-17T10:22:46.935Z</time></trkpt><trkpt lat="40.5451563" lon="9.7834114"><ele>11.0</ele><time>2026-04-17T10:22:48.935Z</time></trkpt><trkpt lat="40.5452391" lon="9.7834509"><ele>11.0</ele><time>2026-04-17T10:22:50.935Z</time></trkpt><trkpt lat="40.5453232" lon="9.783495"><ele>11.0</ele><time>2026-04-17T10:22:52.935Z</time></trkpt><trkpt lat="40.5454116" lon="9.783531"><ele>11.0</ele><time>2026-04-17T10:22:54.935Z</time></trkpt><trkpt lat="40.5455026" lon="9.783574"><ele>11.0</ele><time>2026-04-17T10:22:56.935Z</time></trkpt><trkpt lat="40.545593" lon="9.7836085"><ele>11.0</ele><time>2026-04-17T10:22:58.935Z</time></trkpt><trkpt lat="40.545672" lon="9.7836505"><ele>11.166666666666666</ele><time>2026-04-17T10:23:00.936Z</time></trkpt><trkpt lat="40.5457585" lon="9.7837018"><ele>11.333333333333332</ele><time>2026-04-17T10:23:02.936Z</time></trkpt><trkpt lat="40.5458437" lon="9.7837376"><ele>11.5</ele><time>2026-04-17T10:23:04.936Z</time></trkpt><trkpt lat="40.5459271" lon="9.7837802"><ele>11.666666666666666</ele><time>2026-04-17T10:23:06.935Z</time></trkpt><trkpt lat="40.5460088" lon="9.7838201"><ele>11.833333333333334</ele><time>2026-04-17T10:23:08.934Z</time></trkpt><trkpt lat="40.5460907" lon="9.7838638"><ele>12.0</ele><time>2026-04-17T10:23:10.936Z</time></trkpt><trkpt lat="40.5461752" lon="9.7839095"><ele>11.6</ele><time>2026-04-17T10:23:12.935Z</time></trkpt><trkpt lat="40.5462357" lon="9.7839531"><ele>11.2</ele><time>2026-04-17T10:23:14.935Z</time></trkpt><trkpt lat="40.546328" lon="9.7839931"><ele>10.8</ele><time>2026-04-17T10:23:16.935Z</time></trkpt><trkpt lat="40.5464244" lon="9.7840419"><ele>10.4</ele><time>2026-04-17T10:23:18.935Z</time></trkpt><trkpt lat="40.5465147" lon="9.7840896"><ele>10.0</ele><time>2026-04-17T10:23:20.935Z</time></trkpt><trkpt lat="40.5466077" lon="9.7841346"><ele>10.0</ele><time>2026-04-17T10:23:22.934Z</time></trkpt><trkpt lat="40.5466977" lon="9.7841778"><ele>10.0</ele><time>2026-04-17T10:23:24.935Z</time></trkpt><trkpt lat="40.5467859" lon="9.784222"><ele>10.0</ele><time>2026-04-17T10:23:26.934Z</time></trkpt><trkpt lat="40.5468746" lon="9.7842629"><ele>10.0</ele><time>2026-04-17T10:23:28.934Z</time></trkpt><trkpt lat="40.5469633" lon="9.7843098"><ele>10.0</ele><time>2026-04-17T10:23:30.935Z</time></trkpt><trkpt lat="40.5470568" lon="9.7843538"><ele>10.0</ele><time>2026-04-17T10:23:32.934Z</time></trkpt><trkpt lat="40.5471439" lon="9.7843945"><ele>10.0</ele><time>2026-04-17T10:23:34.935Z</time></trkpt><trkpt lat="40.5472335" lon="9.784442"><ele>10.0</ele><time>2026-04-17T10:23:36.935Z</time></trkpt><trkpt lat="40.5473238" lon="9.7844831"><ele>10.0</ele><time>2026-04-17T10:23:38.935Z</time></trkpt><trkpt lat="40.5474157" lon="9.7845252"><ele>10.0</ele><time>2026-04-17T10:23:40.935Z</time></trkpt><trkpt lat="40.5474993" lon="9.7845712"><ele>10.0</ele><time>2026-04-17T10:23:42.935Z</time></trkpt><trkpt lat="40.5475842" lon="9.7846183"><ele>10.0</ele><time>2026-04-17T10:23:44.934Z</time></trkpt><trkpt lat="40.5476681" lon="9.7846488"><ele>10.0</ele><time>2026-04-17T10:23:46.936Z</time></trkpt><trkpt lat="40.5477528" lon="9.7846855"><ele>10.0</ele><time>2026-04-17T10:23:48.934Z</time></trkpt><trkpt lat="40.5478355" lon="9.7847269"><ele>10.0</ele><time>2026-04-17T10:23:50.934Z</time></trkpt><trkpt lat="40.547919" lon="9.7847628"><ele>10.0</ele><time>2026-04-17T10:23:52.935Z</time></trkpt><trkpt lat="40.5479979" lon="9.7847956"><ele>9.4</ele><time>2026-04-17T10:23:54.936Z</time></trkpt><trkpt lat="40.5480783" lon="9.7848399"><ele>8.8</ele><time>2026-04-17T10:23:56.935Z</time></trkpt><trkpt lat="40.5481655" lon="9.7848875"><ele>8.2</ele><time>2026-04-17T10:23:58.935Z</time></trkpt><trkpt lat="40.5482525" lon="9.7849285"><ele>7.6</ele><time>2026-04-17T10:24:00.936Z</time></trkpt><trkpt lat="40.5483423" lon="9.7849708"><ele>7.0</ele><time>2026-04-17T10:24:02.936Z</time></trkpt><trkpt lat="40.5484295" lon="9.7850138"><ele>7.000000000000001</ele><time>2026-04-17T10:24:04.934Z</time></trkpt><trkpt lat="40.5485162" lon="9.7850563"><ele>7.0</ele><time>2026-04-17T10:24:06.935Z</time></trkpt><trkpt lat="40.5486006" lon="9.785094"><ele>7.0</ele><time>2026-04-17T10:24:08.935Z</time></trkpt><trkpt lat="40.5486836" lon="9.7851335"><ele>7.0</ele><time>2026-04-17T10:24:10.935Z</time></trkpt><trkpt lat="40.5487558" lon="9.7851718"><ele>7.000000000000001</ele><time>2026-04-17T10:24:12.935Z</time></trkpt><trkpt lat="40.548821" lon="9.7852076"><ele>7.0</ele><time>2026-04-17T10:24:14.936Z</time></trkpt><trkpt lat="40.5488914" lon="9.7852494"><ele>6.833333333333334</ele><time>2026-04-17T10:24:16.935Z</time></trkpt><trkpt lat="40.5489616" lon="9.7852998"><ele>6.666666666666667</ele><time>2026-04-17T10:24:18.935Z</time></trkpt><trkpt lat="40.5490227" lon="9.7853661"><ele>6.5</ele><time>2026-04-17T10:24:20.936Z</time></trkpt><trkpt lat="40.5490764" lon="9.7854412"><ele>6.333333333333334</ele><time>2026-04-17T10:24:22.935Z</time></trkpt><trkpt lat="40.5491209" lon="9.7855215"><ele>6.166666666666667</ele><time>2026-04-17T10:24:24.936Z</time></trkpt><trkpt lat="40.5491455" lon="9.7856228"><ele>6.0</ele><time>2026-04-17T10:24:26.934Z</time></trkpt><trkpt lat="40.5491391" lon="9.7857335"><ele>6.0</ele><time>2026-04-17T10:24:28.935Z</time></trkpt><trkpt lat="40.5490989" lon="9.7858604"><ele>6.0</ele><time>2026-04-17T10:24:30.935Z</time></trkpt><trkpt lat="40.5490574" lon="9.7860062"><ele>6.0</ele><time>2026-04-17T10:24:32.933Z</time></trkpt><trkpt lat="40.5490314" lon="9.7861657"><ele>6.0</ele><time>2026-04-17T10:24:34.934Z</time></trkpt><trkpt lat="40.549024" lon="9.7862511"><ele>6.0</ele><time>2026-04-17T10:24:35.935Z</time></trkpt><trkpt lat="40.5490207" lon="9.786411"><ele>5.6</ele><time>2026-04-17T10:24:37.935Z</time></trkpt><trkpt lat="40.549049" lon="9.7865499"><ele>5.199999999999999</ele><time>2026-04-17T10:24:39.935Z</time></trkpt><trkpt lat="40.5490687" lon="9.7866936"><ele>4.800000000000001</ele><time>2026-04-17T10:24:41.936Z</time></trkpt><trkpt lat="40.549088" lon="9.7868299"><ele>4.4</ele><time>2026-04-17T10:24:43.934Z</time></trkpt><trkpt lat="40.5491098" lon="9.7869675"><ele>4.0</ele><time>2026-04-17T10:24:45.935Z</time></trkpt><trkpt lat="40.5491293" lon="9.7870901"><ele>3.9999999999999996</ele><time>2026-04-17T10:24:47.935Z</time></trkpt><trkpt lat="40.5491501" lon="9.7872105"><ele>4.0</ele><time>2026-04-17T10:24:49.935Z</time></trkpt><trkpt lat="40.5491696" lon="9.7873221"><ele>4.0</ele><time>2026-04-17T10:24:51.934Z</time></trkpt><trkpt lat="40.5491809" lon="9.7874203"><ele>4.0</ele><time>2026-04-17T10:24:53.934Z</time></trkpt><trkpt lat="40.5492031" lon="9.7875275"><ele>3.9999999999999996</ele><time>2026-04-17T10:24:55.933Z</time></trkpt><trkpt lat="40.5492178" lon="9.7876278"><ele>4.0</ele><time>2026-04-17T10:24:57.935Z</time></trkpt><trkpt lat="40.549223" lon="9.787724"><ele>3.833333333333333</ele><time>2026-04-17T10:24:59.933Z</time></trkpt><trkpt lat="40.5492394" lon="9.7878189"><ele>3.6666666666666665</ele><time>2026-04-17T10:25:01.935Z</time></trkpt><trkpt lat="40.5492846" lon="9.7878974"><ele>3.5</ele><time>2026-04-17T10:25:03.935Z</time></trkpt><trkpt lat="40.5493585" lon="9.7879119"><ele>3.333333333333333</ele><time>2026-04-17T10:25:05.935Z</time></trkpt><trkpt lat="40.5494364" lon="9.7878889"><ele>3.1666666666666665</ele><time>2026-04-17T10:25:07.934Z</time></trkpt><trkpt lat="40.5495131" lon="9.7878644"><ele>3.0</ele><time>2026-04-17T10:25:09.935Z</time></trkpt><trkpt lat="40.5495885" lon="9.7878523"><ele>3.3333333333333335</ele><time>2026-04-17T10:25:11.934Z</time></trkpt><trkpt lat="40.5496648" lon="9.7878413"><ele>3.666666666666667</ele><time>2026-04-17T10:25:13.933Z</time></trkpt><trkpt lat="40.5497421" lon="9.7878084"><ele>4.0</ele><time>2026-04-17T10:25:15.935Z</time></trkpt><trkpt lat="40.5498163" lon="9.7877945"><ele>4.333333333333334</ele><time>2026-04-17T10:25:17.94Z</time></trkpt><trkpt lat="40.5498779" lon="9.7878437"><ele>4.666666666666667</ele><time>2026-04-17T10:25:19.934Z</time></trkpt><trkpt lat="40.5499106" lon="9.7879236"><ele>5.0</ele><time>2026-04-17T10:25:21.915Z</time></trkpt><trkpt lat="40.5499097" lon="9.7880272"><ele>5.0</ele><time>2026-04-17T10:25:23.935Z</time></trkpt><trkpt lat="40.5499342" lon="9.7881232"><ele>5.0</ele><time>2026-04-17T10:25:25.935Z</time></trkpt><trkpt lat="40.5499682" lon="9.7882177"><ele>5.0</ele><time>2026-04-17T10:25:27.934Z</time></trkpt><trkpt lat="40.55" lon="9.7883139"><ele>5.0</ele><time>2026-04-17T10:25:29.934Z</time></trkpt><trkpt lat="40.5500409" lon="9.7884048"><ele>5.0</ele><time>2026-04-17T10:25:31.935Z</time></trkpt><trkpt lat="40.5500782" lon="9.7884959"><ele>5.0</ele><time>2026-04-17T10:25:33.935Z</time></trkpt><trkpt lat="40.550123" lon="9.7885848"><ele>4.833333333333334</ele><time>2026-04-17T10:25:35.934Z</time></trkpt><trkpt lat="40.5501581" lon="9.788681"><ele>4.666666666666667</ele><time>2026-04-17T10:25:37.934Z</time></trkpt><trkpt lat="40.5501823" lon="9.7887786"><ele>4.5</ele><time>2026-04-17T10:25:39.858Z</time></trkpt><trkpt lat="40.5502249" lon="9.7888729"><ele>4.333333333333333</ele><time>2026-04-17T10:25:41.948Z</time></trkpt><trkpt lat="40.5502737" lon="9.7889617"><ele>4.166666666666666</ele><time>2026-04-17T10:25:43.935Z</time></trkpt><trkpt lat="40.5503069" lon="9.7890655"><ele>4.0</ele><time>2026-04-17T10:25:45.934Z</time></trkpt><trkpt lat="40.55033" lon="9.7891819"><ele>3.9999999999999996</ele><time>2026-04-17T10:25:47.934Z</time></trkpt><trkpt lat="40.5503657" lon="9.7892839"><ele>4.0</ele><time>2026-04-17T10:25:49.934Z</time></trkpt><trkpt lat="40.5504058" lon="9.7893772"><ele>4.0</ele><time>2026-04-17T10:25:51.935Z</time></trkpt><trkpt lat="40.5504657" lon="9.7894485"><ele>4.0</ele><time>2026-04-17T10:25:53.934Z</time></trkpt><trkpt lat="40.5505509" lon="9.7894701"><ele>3.9999999999999996</ele><time>2026-04-17T10:25:55.934Z</time></trkpt><trkpt lat="40.5506362" lon="9.7894784"><ele>4.0</ele><time>2026-04-17T10:25:57.935Z</time></trkpt><trkpt lat="40.5507223" lon="9.7894899"><ele>3.6666666666666665</ele><time>2026-04-17T10:25:59.934Z</time></trkpt><trkpt lat="40.5508082" lon="9.7894934"><ele>3.333333333333333</ele><time>2026-04-17T10:26:01.936Z</time></trkpt><trkpt lat="40.5508938" lon="9.7894967"><ele>3.0</ele><time>2026-04-17T10:26:03.934Z</time></trkpt><trkpt lat="40.5509799" lon="9.7894989"><ele>2.6666666666666665</ele><time>2026-04-17T10:26:05.951Z</time></trkpt><trkpt lat="40.5510656" lon="9.7894899"><ele>2.333333333333333</ele><time>2026-04-17T10:26:07.934Z</time></trkpt><trkpt lat="40.5511514" lon="9.7894903"><ele>2.0</ele><time>2026-04-17T10:26:09.935Z</time></trkpt><trkpt lat="40.5512333" lon="9.7894997"><ele>1.9999999999999998</ele><time>2026-04-17T10:26:11.934Z</time></trkpt><trkpt lat="40.5513127" lon="9.7895152"><ele>2.0</ele><time>2026-04-17T10:26:13.934Z</time></trkpt><trkpt lat="40.5513928" lon="9.789527"><ele>2.0</ele><time>2026-04-17T10:26:15.935Z</time></trkpt><trkpt lat="40.551472" lon="9.789513"><ele>2.0</ele><time>2026-04-17T10:26:17.934Z</time></trkpt><trkpt lat="40.5515509" lon="9.7895056"><ele>1.9999999999999998</ele><time>2026-04-17T10:26:19.936Z</time></trkpt><trkpt lat="40.5516291" lon="9.7894981"><ele>2.0</ele><time>2026-04-17T10:26:21.935Z</time></trkpt><trkpt lat="40.5517083" lon="9.7895032"><ele>1.9999999999999998</ele><time>2026-04-17T10:26:23.935Z</time></trkpt><trkpt lat="40.5517842" lon="9.7894801"><ele>2.0</ele><time>2026-04-17T10:26:25.935Z</time></trkpt><trkpt lat="40.5518615" lon="9.7894738"><ele>2.0</ele><time>2026-04-17T10:26:27.934Z</time></trkpt><trkpt lat="40.5519394" lon="9.789473"><ele>2.0</ele><time>2026-04-17T10:26:29.935Z</time></trkpt><trkpt lat="40.5520129" lon="9.7894318"><ele>1.9999999999999998</ele><time>2026-04-17T10:26:31.936Z</time></trkpt><trkpt lat="40.5520824" lon="9.789384"><ele>2.0</ele><time>2026-04-17T10:26:33.934Z</time></trkpt><trkpt lat="40.5521466" lon="9.7893291"><ele>2.0</ele><time>2026-04-17T10:26:35.933Z</time></trkpt><trkpt lat="40.5522033" lon="9.7892889"><ele>1.9999999999999998</ele><time>2026-04-17T10:26:37.935Z</time></trkpt><trkpt lat="40.5522718" lon="9.7892709"><ele>2.0</ele><time>2026-04-17T10:26:39.935Z</time></trkpt><trkpt lat="40.5523292" lon="9.7893191"><ele>2.0</ele><time>2026-04-17T10:26:41.935Z</time></trkpt><trkpt lat="40.5523553" lon="9.7894063"><ele>1.9999999999999998</ele><time>2026-04-17T10:26:43.934Z</time></trkpt><trkpt lat="40.5523482" lon="9.7895051"><ele>2.0</ele><time>2026-04-17T10:26:45.935Z</time></trkpt><trkpt lat="40.55233" lon="9.7896071"><ele>2.0</ele><time>2026-04-17T10:26:47.935Z</time></trkpt><trkpt lat="40.5523258" lon="9.7897094"><ele>1.9999999999999998</ele><time>2026-04-17T10:26:49.935Z</time></trkpt><trkpt lat="40.5522962" lon="9.7898094"><ele>2.0</ele><time>2026-04-17T10:26:51.934Z</time></trkpt><trkpt lat="40.552272" lon="9.789912"><ele>2.0</ele><time>2026-04-17T10:26:53.934Z</time></trkpt><trkpt lat="40.5522447" lon="9.7900135"><ele>2.0</ele><time>2026-04-17T10:26:55.935Z</time></trkpt><trkpt lat="40.5522082" lon="9.7901124"><ele>1.9999999999999998</ele><time>2026-04-17T10:26:57.935Z</time></trkpt><trkpt lat="40.5521849" lon="9.7902204"><ele>2.0</ele><time>2026-04-17T10:26:59.935Z</time></trkpt><trkpt lat="40.5521552" lon="9.7903314"><ele>1.9999999999999998</ele><time>2026-04-17T10:27:01.934Z</time></trkpt><trkpt lat="40.5521221" lon="9.7904423"><ele>2.0</ele><time>2026-04-17T10:27:03.935Z</time></trkpt><trkpt lat="40.5521172" lon="9.7905584"><ele>2.0</ele><time>2026-04-17T10:27:05.934Z</time></trkpt><trkpt lat="40.5521001" lon="9.7906709"><ele>2.0</ele><time>2026-04-17T10:27:07.935Z</time></trkpt><trkpt lat="40.5520647" lon="9.7907675"><ele>1.9999999999999998</ele><time>2026-04-17T10:27:09.934Z</time></trkpt><trkpt lat="40.552042" lon="9.7908681"><ele>2.0</ele><time>2026-04-17T10:27:11.934Z</time></trkpt><trkpt lat="40.5520539" lon="9.7909646"><ele>2.0</ele><time>2026-04-17T10:27:13.933Z</time></trkpt><trkpt lat="40.5520905" lon="9.7910392"><ele>1.9999999999999998</ele><time>2026-04-17T10:27:15.936Z</time></trkpt><trkpt lat="40.5521451" lon="9.7910871"><ele>2.0</ele><time>2026-04-17T10:27:17.936Z</time></trkpt><trkpt lat="40.5522055" lon="9.7911273"><ele>2.0</ele><time>2026-04-17T10:27:19.936Z</time></trkpt><trkpt lat="40.5522715" lon="9.7911495"><ele>1.9999999999999998</ele><time>2026-04-17T10:27:21.936Z</time></trkpt><trkpt lat="40.5523552" lon="9.791207"><ele>2.0</ele><time>2026-04-17T10:27:24.935Z</time></trkpt><trkpt lat="40.5524177" lon="9.7912204"><ele>2.0</ele><time>2026-04-17T10:27:26.841Z</time></trkpt><trkpt lat="40.5524893" lon="9.7912247"><ele>1.9999999999999998</ele><time>2026-04-17T10:27:28.935Z</time></trkpt><trkpt lat="40.5525537" lon="9.7912659"><ele>2.0</ele><time>2026-04-17T10:27:30.935Z</time></trkpt><trkpt lat="40.5526072" lon="9.791328"><ele>2.0</ele><time>2026-04-17T10:27:32.934Z</time></trkpt><trkpt lat="40.5526747" lon="9.7913383"><ele>2.0</ele><time>2026-04-17T10:27:34.935Z</time></trkpt><trkpt lat="40.5527449" lon="9.7914072"><ele>1.9999999999999998</ele><time>2026-04-17T10:27:37.934Z</time></trkpt><trkpt lat="40.5527781" lon="9.7915134"><ele>2.0</ele><time>2026-04-17T10:27:40.934Z</time></trkpt><trkpt lat="40.5528176" lon="9.7916188"><ele>2.0</ele><time>2026-04-17T10:27:43.936Z</time></trkpt><trkpt lat="40.5528607" lon="9.7917274"><ele>1.9999999999999998</ele><time>2026-04-17T10:27:46.933Z</time></trkpt><trkpt lat="40.5529033" lon="9.7917951"><ele>2.0</ele><time>2026-04-17T10:27:48.936Z</time></trkpt><trkpt lat="40.5529392" lon="9.7918687"><ele>2.0</ele><time>2026-04-17T10:27:50.935Z</time></trkpt><trkpt lat="40.5530018" lon="9.7919013"><ele>1.9999999999999998</ele><time>2026-04-17T10:27:52.935Z</time></trkpt><trkpt lat="40.5530525" lon="9.7919528"><ele>2.0</ele><time>2026-04-17T10:27:54.934Z</time></trkpt><trkpt lat="40.553105" lon="9.7919996"><ele>2.0</ele><time>2026-04-17T10:27:56.933Z</time></trkpt><trkpt lat="40.5531695" lon="9.7920341"><ele>2.142857142857143</ele><time>2026-04-17T10:27:58.934Z</time></trkpt><trkpt lat="40.5532248" lon="9.7920891"><ele>2.2857142857142856</ele><time>2026-04-17T10:28:00.941Z</time></trkpt><trkpt lat="40.5532611" lon="9.7921647"><ele>2.4285714285714284</ele><time>2026-04-17T10:28:02.935Z</time></trkpt><trkpt lat="40.5533101" lon="9.7922178"><ele>2.571428571428571</ele><time>2026-04-17T10:28:04.936Z</time></trkpt><trkpt lat="40.5533828" lon="9.7922844"><ele>2.7142857142857144</ele><time>2026-04-17T10:28:07.891Z</time></trkpt><trkpt lat="40.5534303" lon="9.7923433"><ele>2.8571428571428568</ele><time>2026-04-17T10:28:09.936Z</time></trkpt><trkpt lat="40.5534745" lon="9.7924093"><ele>3.0</ele><time>2026-04-17T10:28:11.922Z</time></trkpt><trkpt lat="40.5535259" lon="9.7924837"><ele>3.0</ele><time>2026-04-17T10:28:13.935Z</time></trkpt><trkpt lat="40.5535799" lon="9.7925501"><ele>3.0</ele><time>2026-04-17T10:28:15.934Z</time></trkpt><trkpt lat="40.5536316" lon="9.7926114"><ele>3.0</ele><time>2026-04-17T10:28:17.935Z</time></trkpt><trkpt lat="40.5537021" lon="9.792702"><ele>3.0</ele><time>2026-04-17T10:28:20.934Z</time></trkpt><trkpt lat="40.5537553" lon="9.7927738"><ele>3.0</ele><time>2026-04-17T10:28:22.935Z</time></trkpt><trkpt lat="40.553809" lon="9.7928334"><ele>3.0</ele><time>2026-04-17T10:28:24.935Z</time></trkpt><trkpt lat="40.5538603" lon="9.7928931"><ele>2.714285714285714</ele><time>2026-04-17T10:28:26.935Z</time></trkpt><trkpt lat="40.5539156" lon="9.79295"><ele>2.4285714285714284</ele><time>2026-04-17T10:28:28.934Z</time></trkpt><trkpt lat="40.553981" lon="9.7929896"><ele>2.142857142857143</ele><time>2026-04-17T10:28:30.935Z</time></trkpt><trkpt lat="40.5540433" lon="9.7930155"><ele>1.857142857142857</ele><time>2026-04-17T10:28:32.935Z</time></trkpt><trkpt lat="40.5540904" lon="9.7930706"><ele>1.5714285714285712</ele><time>2026-04-17T10:28:34.934Z</time></trkpt><trkpt lat="40.5541474" lon="9.7931101"><ele>1.2857142857142856</ele><time>2026-04-17T10:28:36.934Z</time></trkpt><trkpt lat="40.5542029" lon="9.7931585"><ele>1.0</ele><time>2026-04-17T10:28:38.935Z</time></trkpt><trkpt lat="40.5542959" lon="9.793229"><ele>1.0</ele><time>2026-04-17T10:28:41.935Z</time></trkpt><trkpt lat="40.5543591" lon="9.7932743"><ele>0.9999999999999999</ele><time>2026-04-17T10:28:43.936Z</time></trkpt><trkpt lat="40.5544258" lon="9.7933089"><ele>1.0</ele><time>2026-04-17T10:28:45.935Z</time></trkpt><trkpt lat="40.5544946" lon="9.793323"><ele>1.0</ele><time>2026-04-17T10:28:47.935Z</time></trkpt><trkpt lat="40.5545541" lon="9.7933777"><ele>0.9999999999999999</ele><time>2026-04-17T10:28:49.934Z</time></trkpt><trkpt lat="40.5546123" lon="9.7934258"><ele>1.0</ele><time>2026-04-17T10:28:51.935Z</time></trkpt><trkpt lat="40.5546663" lon="9.7934811"><ele>1.0</ele><time>2026-04-17T10:28:53.935Z</time></trkpt><trkpt lat="40.5547178" lon="9.7935309"><ele>0.8333333333333333</ele><time>2026-04-17T10:28:55.934Z</time></trkpt><trkpt lat="40.5547711" lon="9.7935756"><ele>0.6666666666666666</ele><time>2026-04-17T10:28:57.919Z</time></trkpt><trkpt lat="40.554809" lon="9.7936776"><ele>0.5</ele><time>2026-04-17T10:29:00.861Z</time></trkpt><trkpt lat="40.5548944" lon="9.7937152"><ele>0.3333333333333333</ele><time>2026-04-17T10:29:03.84Z</time></trkpt><trkpt lat="40.5549703" lon="9.7937747"><ele>0.16666666666666666</ele><time>2026-04-17T10:29:06.935Z</time></trkpt><trkpt lat="40.5550306" lon="9.7938"><ele>0.0</ele><time>2026-04-17T10:29:08.934Z</time></trkpt><trkpt lat="40.5550966" lon="9.7937683"><ele>0.0</ele><time>2026-04-17T10:29:10.933Z</time></trkpt><trkpt lat="40.555151" lon="9.7937148"><ele>0.0</ele><time>2026-04-17T10:29:12.934Z</time></trkpt><trkpt lat="40.5552006" lon="9.7936617"><ele>0.0</ele><time>2026-04-17T10:29:14.935Z</time></trkpt><trkpt lat="40.5552959" lon="9.7936416"><ele>0.0</ele><time>2026-04-17T10:29:17.934Z</time></trkpt><trkpt lat="40.5553665" lon="9.7936267"><ele>0.0</ele><time>2026-04-17T10:29:20.934Z</time></trkpt><trkpt lat="40.555436" lon="9.7936848"><ele>0.0</ele><time>2026-04-17T10:29:23.934Z</time></trkpt><trkpt lat="40.5554974" lon="9.7937294"><ele>0.16666666666666666</ele><time>2026-04-17T10:29:25.936Z</time></trkpt><trkpt lat="40.5556" lon="9.7937575"><ele>0.3333333333333333</ele><time>2026-04-17T10:29:28.933Z</time></trkpt><trkpt lat="40.5556826" lon="9.7937118"><ele>0.5</ele><time>2026-04-17T10:29:31.934Z</time></trkpt><trkpt lat="40.5557634" lon="9.7937107"><ele>0.6666666666666666</ele><time>2026-04-17T10:29:34.935Z</time></trkpt><trkpt lat="40.5558555" lon="9.7937318"><ele>0.8333333333333333</ele><time>2026-04-17T10:29:37.934Z</time></trkpt><trkpt lat="40.5559173" lon="9.7937706"><ele>1.0</ele><time>2026-04-17T10:29:39.887Z</time></trkpt><trkpt lat="40.555984" lon="9.7938129"><ele>1.0</ele><time>2026-04-17T10:29:41.936Z</time></trkpt><trkpt lat="40.5560527" lon="9.7938173"><ele>0.9999999999999999</ele><time>2026-04-17T10:29:43.934Z</time></trkpt><trkpt lat="40.5561209" lon="9.7937978"><ele>1.0</ele><time>2026-04-17T10:29:45.934Z</time></trkpt><trkpt lat="40.5561806" lon="9.7937703"><ele>1.0</ele><time>2026-04-17T10:29:47.892Z</time></trkpt><trkpt lat="40.556246" lon="9.7937533"><ele>0.9999999999999999</ele><time>2026-04-17T10:29:49.936Z</time></trkpt><trkpt lat="40.5563078" lon="9.7937358"><ele>1.0</ele><time>2026-04-17T10:29:51.935Z</time></trkpt><trkpt lat="40.556392" lon="9.7937103"><ele>1.0</ele><time>2026-04-17T10:29:54.935Z</time></trkpt><trkpt lat="40.556484" lon="9.7937037"><ele>0.9999999999999999</ele><time>2026-04-17T10:29:57.934Z</time></trkpt><trkpt lat="40.5565532" lon="9.7937174"><ele>1.0</ele><time>2026-04-17T10:29:59.935Z</time></trkpt><trkpt lat="40.5566177" lon="9.793703"><ele>1.0</ele><time>2026-04-17T10:30:01.934Z</time></trkpt><trkpt lat="40.5566987" lon="9.7936821"><ele>1.0</ele><time>2026-04-17T10:30:04.934Z</time></trkpt><trkpt lat="40.5567743" lon="9.793716"><ele>0.9999999999999999</ele><time>2026-04-17T10:30:07.935Z</time></trkpt><trkpt lat="40.5568554" lon="9.7937112"><ele>1.0</ele><time>2026-04-17T10:30:10.935Z</time></trkpt><trkpt lat="40.5569437" lon="9.7936986"><ele>1.0</ele><time>2026-04-17T10:30:13.934Z</time></trkpt><trkpt lat="40.5570231" lon="9.7937012"><ele>0.9999999999999999</ele><time>2026-04-17T10:30:16.935Z</time></trkpt><trkpt lat="40.5570938" lon="9.7936897"><ele>1.0</ele><time>2026-04-17T10:31:36.934Z</time></trkpt><trkpt lat="40.5571578" lon="9.7936887"><ele>1.0</ele><time>2026-04-17T10:31:39.936Z</time></trkpt><trkpt lat="40.5572253" lon="9.7936914"><ele>0.9999999999999999</ele><time>2026-04-17T10:31:42.934Z</time></trkpt><trkpt lat="40.5572896" lon="9.79367"><ele>1.0</ele><time>2026-04-17T10:31:45.934Z</time></trkpt><trkpt lat="40.557347" lon="9.7937067"><ele>1.0</ele><time>2026-04-17T10:31:48.936Z</time></trkpt><trkpt lat="40.5574264" lon="9.7936914"><ele>0.8333333333333333</ele><time>2026-04-17T10:31:51.934Z</time></trkpt><trkpt lat="40.5575125" lon="9.7936365"><ele>0.6666666666666666</ele><time>2026-04-17T10:31:54.935Z</time></trkpt><trkpt lat="40.5575666" lon="9.793555"><ele>0.5</ele><time>2026-04-17T10:31:57.936Z</time></trkpt><trkpt lat="40.5576039" lon="9.7934661"><ele>0.3333333333333333</ele><time>2026-04-17T10:32:00.906Z</time></trkpt><trkpt lat="40.5576771" lon="9.7934687"><ele>0.16666666666666666</ele><time>2026-04-17T10:32:03.935Z</time></trkpt><trkpt lat="40.5577456" lon="9.7933958"><ele>0.0</ele><time>2026-04-17T10:32:07.934Z</time></trkpt><trkpt lat="40.5578104" lon="9.7933372"><ele>0.0</ele><time>2026-04-17T10:32:10.936Z</time></trkpt><trkpt lat="40.5578792" lon="9.7933243"><ele>0.0</ele><time>2026-04-17T10:32:13.934Z</time></trkpt><trkpt lat="40.557953" lon="9.7933206"><ele>0.0</ele><time>2026-04-17T10:32:16.935Z</time></trkpt><trkpt lat="40.5580099" lon="9.7932635"><ele>0.0</ele><time>2026-04-17T10:32:19.905Z</time></trkpt><trkpt lat="40.5580721" lon="9.7932156"><ele>0.0</ele><time>2026-04-17T10:32:22.888Z</time></trkpt><trkpt lat="40.5581395" lon="9.7931848"><ele>0.0</ele><time>2026-04-17T10:32:25.848Z</time></trkpt><trkpt lat="40.5581866" lon="9.7930913"><ele>0.0</ele><time>2026-04-17T10:32:28.934Z</time></trkpt><trkpt lat="40.5582548" lon="9.7930415"><ele>0.0</ele><time>2026-04-17T10:32:31.935Z</time></trkpt><trkpt lat="40.5583439" lon="9.7930062"><ele>0.0</ele><time>2026-04-17T10:32:34.938Z</time></trkpt><trkpt lat="40.5584074" lon="9.7929732"><ele>0.0</ele><time>2026-04-17T10:32:36.934Z</time></trkpt><trkpt lat="40.5584646" lon="9.7929307"><ele>0.0</ele><time>2026-04-17T10:32:38.935Z</time></trkpt><trkpt lat="40.558522" lon="9.7928889"><ele>0.0</ele><time>2026-04-17T10:32:40.936Z</time></trkpt><trkpt lat="40.5585903" lon="9.7928226"><ele>0.0</ele><time>2026-04-17T10:32:43.935Z</time></trkpt><trkpt lat="40.5586657" lon="9.7927884"><ele>0.0</ele><time>2026-04-17T10:32:46.934Z</time></trkpt><trkpt lat="40.5587318" lon="9.7927484"><ele>0.0</ele><time>2026-04-17T10:32:49.935Z</time></trkpt><trkpt lat="40.5587792" lon="9.7926907"><ele>0.0</ele><time>2026-04-17T10:32:53.908Z</time></trkpt><trkpt lat="40.5588296" lon="9.7926406"><ele>0.0</ele><time>2026-04-17T10:32:56.934Z</time></trkpt><trkpt lat="40.5588983" lon="9.7926125"><ele>0.0</ele><time>2026-04-17T10:32:59.934Z</time></trkpt><trkpt lat="40.5589641" lon="9.7925855"><ele>0.0</ele><time>2026-04-17T10:33:02.918Z</time></trkpt><trkpt lat="40.5590357" lon="9.7925587"><ele>0.0</ele><time>2026-04-17T10:33:06.933Z</time></trkpt><trkpt lat="40.5591018" lon="9.7925061"><ele>0.3333333333333333</ele><time>2026-04-17T10:33:11.934Z</time></trkpt><trkpt lat="40.5591679" lon="9.7924743"><ele>0.6666666666666666</ele><time>2026-04-17T10:33:15.934Z</time></trkpt><trkpt lat="40.5592407" lon="9.7924795"><ele>1.0</ele><time>2026-04-17T10:33:19.934Z</time></trkpt><trkpt lat="40.5593145" lon="9.7924701"><ele>1.3333333333333333</ele><time>2026-04-17T10:33:23.946Z</time></trkpt><trkpt lat="40.5593936" lon="9.7924921"><ele>1.6666666666666665</ele><time>2026-04-17T10:33:27.935Z</time></trkpt><trkpt lat="40.5594698" lon="9.7925189"><ele>2.0</ele><time>2026-04-17T10:33:31.934Z</time></trkpt><trkpt lat="40.5595473" lon="9.7925121"><ele>2.1666666666666665</ele><time>2026-04-17T10:33:35.82Z</time></trkpt><trkpt lat="40.5596092" lon="9.7924283"><ele>2.333333333333333</ele><time>2026-04-17T10:33:38.933Z</time></trkpt><trkpt lat="40.5596759" lon="9.7924399"><ele>2.5</ele><time>2026-04-17T10:33:40.934Z</time></trkpt><trkpt lat="40.5597422" lon="9.7924636"><ele>2.6666666666666665</ele><time>2026-04-17T10:33:42.935Z</time></trkpt><trkpt lat="40.5598048" lon="9.7924801"><ele>2.8333333333333335</ele><time>2026-04-17T10:33:44.932Z</time></trkpt><trkpt lat="40.5598906" lon="9.7924722"><ele>3.0</ele><time>2026-04-17T10:33:47.934Z</time></trkpt><trkpt lat="40.5599811" lon="9.7924701"><ele>3.0</ele><time>2026-04-17T10:33:50.934Z</time></trkpt><trkpt lat="40.5600614" lon="9.792476"><ele>3.0</ele><time>2026-04-17T10:33:53.934Z</time></trkpt><trkpt lat="40.5601465" lon="9.7925135"><ele>3.0</ele><time>2026-04-17T10:33:56.932Z</time></trkpt><trkpt lat="40.560183" lon="9.79261"><ele>3.0</ele><time>2026-04-17T10:33:59.933Z</time></trkpt><trkpt lat="40.5602094" lon="9.7926944"><ele>3.0</ele><time>2026-04-17T10:34:02.95Z</time></trkpt><trkpt lat="40.5602783" lon="9.7927063"><ele>3.0</ele><time>2026-04-17T10:34:05.934Z</time></trkpt><trkpt lat="40.5603555" lon="9.7927098"><ele>2.571428571428571</ele><time>2026-04-17T10:34:09.933Z</time></trkpt><trkpt lat="40.5604185" lon="9.7927228"><ele>2.142857142857143</ele><time>2026-04-17T10:34:12.933Z</time></trkpt><trkpt lat="40.5604868" lon="9.7927468"><ele>1.7142857142857142</ele><time>2026-04-17T10:34:15.934Z</time></trkpt><trkpt lat="40.5605723" lon="9.7927785"><ele>1.2857142857142856</ele><time>2026-04-17T10:34:18.934Z</time></trkpt><trkpt lat="40.5606469" lon="9.7928281"><ele>0.8571428571428571</ele><time>2026-04-17T10:34:21.933Z</time></trkpt><trkpt lat="40.5607154" lon="9.7928225"><ele>0.42857142857142855</ele><time>2026-04-17T10:34:24.935Z</time></trkpt><trkpt lat="40.5607837" lon="9.7928297"><ele>0.0</ele><time>2026-04-17T10:34:27.925Z</time></trkpt><trkpt lat="40.5608565" lon="9.7928424"><ele>0.0</ele><time>2026-04-17T10:34:30.933Z</time></trkpt><trkpt lat="40.5609442" lon="9.7928625"><ele>0.0</ele><time>2026-04-17T10:34:33.934Z</time></trkpt><trkpt lat="40.5610307" lon="9.7928794"><ele>0.0</ele><time>2026-04-17T10:34:36.934Z</time></trkpt><trkpt lat="40.5611038" lon="9.7928889"><ele>0.0</ele><time>2026-04-17T10:34:39.933Z</time></trkpt><trkpt lat="40.5611857" lon="9.792893"><ele>0.0</ele><time>2026-04-17T10:34:43.95Z</time></trkpt><trkpt lat="40.5612522" lon="9.7928918"><ele>0.0</ele><time>2026-04-17T10:34:46.929Z</time></trkpt><trkpt lat="40.5613293" lon="9.7929292"><ele>0.16666666666666666</ele><time>2026-04-17T10:34:49.934Z</time></trkpt><trkpt lat="40.5614167" lon="9.7929516"><ele>0.3333333333333333</ele><time>2026-04-17T10:34:52.933Z</time></trkpt><trkpt lat="40.5614898" lon="9.7929762"><ele>0.5</ele><time>2026-04-17T10:34:55.939Z</time></trkpt><trkpt lat="40.5615673" lon="9.7929795"><ele>0.6666666666666666</ele><time>2026-04-17T10:34:59.899Z</time></trkpt><trkpt lat="40.5616463" lon="9.792999"><ele>0.8333333333333333</ele><time>2026-04-17T10:35:04.933Z</time></trkpt><trkpt lat="40.5617091" lon="9.7930048"><ele>1.0</ele><time>2026-04-17T10:35:07.934Z</time></trkpt><trkpt lat="40.561768" lon="9.7929675"><ele>1.0</ele><time>2026-04-17T10:35:10.934Z</time></trkpt><trkpt lat="40.5618364" lon="9.7929803"><ele>0.9999999999999999</ele><time>2026-04-17T10:35:13.933Z</time></trkpt><trkpt lat="40.5619099" lon="9.7930014"><ele>1.0</ele><time>2026-04-17T10:35:16.933Z</time></trkpt><trkpt lat="40.5619839" lon="9.7930112"><ele>1.0</ele><time>2026-04-17T10:35:19.934Z</time></trkpt><trkpt lat="40.5620475" lon="9.7930343"><ele>0.9999999999999999</ele><time>2026-04-17T10:35:22.933Z</time></trkpt><trkpt lat="40.5621107" lon="9.7930534"><ele>1.0</ele><time>2026-04-17T10:35:25.935Z</time></trkpt><trkpt lat="40.5621815" lon="9.7930238"><ele>1.0</ele><time>2026-04-17T10:35:28.934Z</time></trkpt><trkpt lat="40.5622573" lon="9.7929815"><ele>1.0</ele><time>2026-04-17T10:35:31.934Z</time></trkpt><trkpt lat="40.5623191" lon="9.7929613"><ele>0.9999999999999999</ele><time>2026-04-17T10:35:33.935Z</time></trkpt><trkpt lat="40.5623817" lon="9.792944"><ele>1.0</ele><time>2026-04-17T10:35:35.934Z</time></trkpt><trkpt lat="40.5624635" lon="9.7929039"><ele>1.0</ele><time>2026-04-17T10:35:38.933Z</time></trkpt><trkpt lat="40.5625421" lon="9.7928623"><ele>0.9999999999999999</ele><time>2026-04-17T10:35:41.878Z</time></trkpt><trkpt lat="40.5625962" lon="9.7927994"><ele>1.0</ele><time>2026-04-17T10:35:44.933Z</time></trkpt><trkpt lat="40.5625672" lon="9.7927119"><ele>1.0</ele><time>2026-04-17T10:35:47.934Z</time></trkpt><trkpt lat="40.5625325" lon="9.7926277"><ele>1.5</ele><time>2026-04-17T10:35:50.94Z</time></trkpt><trkpt lat="40.5625059" lon="9.7925197"><ele>2.0</ele><time>2026-04-17T10:35:53.933Z</time></trkpt><trkpt lat="40.5625612" lon="9.7924307"><ele>2.5</ele><time>2026-04-17T10:35:56.935Z</time></trkpt><trkpt lat="40.5626306" lon="9.7924329"><ele>3.0</ele><time>2026-04-17T10:35:58.934Z</time></trkpt><trkpt lat="40.5627248" lon="9.7924374"><ele>3.4999999999999996</ele><time>2026-04-17T10:36:01.935Z</time></trkpt><trkpt lat="40.5628177" lon="9.792442"><ele>4.0</ele><time>2026-04-17T10:36:04.934Z</time></trkpt><trkpt lat="40.5629077" lon="9.7924629"><ele>3.9999999999999996</ele><time>2026-04-17T10:36:07.933Z</time></trkpt><trkpt lat="40.5629907" lon="9.7924972"><ele>4.0</ele><time>2026-04-17T10:36:10.934Z</time></trkpt><trkpt lat="40.5630715" lon="9.7924895"><ele>4.0</ele><time>2026-04-17T10:36:13.934Z</time></trkpt><trkpt lat="40.5631556" lon="9.7924716"><ele>4.0</ele><time>2026-04-17T10:36:16.933Z</time></trkpt><trkpt lat="40.5632277" lon="9.7924198"><ele>3.9999999999999996</ele><time>2026-04-17T10:36:19.934Z</time></trkpt><trkpt lat="40.5633116" lon="9.792359"><ele>4.0</ele><time>2026-04-17T10:36:22.934Z</time></trkpt><trkpt lat="40.5633754" lon="9.7923374"><ele>3.9999999999999996</ele><time>2026-04-17T10:36:24.934Z</time></trkpt><trkpt lat="40.5634354" lon="9.7923044"><ele>4.0</ele><time>2026-04-17T10:36:26.935Z</time></trkpt><trkpt lat="40.5635148" lon="9.7922428"><ele>4.0</ele><time>2026-04-17T10:36:29.934Z</time></trkpt><trkpt lat="40.5635991" lon="9.7921874"><ele>4.0</ele><time>2026-04-17T10:36:32.933Z</time></trkpt><trkpt lat="40.5636626" lon="9.7921718"><ele>3.9999999999999996</ele><time>2026-04-17T10:36:34.933Z</time></trkpt><trkpt lat="40.5637366" lon="9.7921108"><ele>4.0</ele><time>2026-04-17T10:36:37.933Z</time></trkpt><trkpt lat="40.5638068" lon="9.7920548"><ele>4.142857142857142</ele><time>2026-04-17T10:36:40.934Z</time></trkpt><trkpt lat="40.5638713" lon="9.7920098"><ele>4.285714285714286</ele><time>2026-04-17T10:36:42.933Z</time></trkpt><trkpt lat="40.5639317" lon="9.7919729"><ele>4.428571428571429</ele><time>2026-04-17T10:36:44.867Z</time></trkpt><trkpt lat="40.5640064" lon="9.7919461"><ele>4.571428571428571</ele><time>2026-04-17T10:36:46.933Z</time></trkpt><trkpt lat="40.564074" lon="9.7919078"><ele>4.714285714285714</ele><time>2026-04-17T10:36:48.934Z</time></trkpt><trkpt lat="40.5641433" lon="9.7918772"><ele>4.857142857142857</ele><time>2026-04-17T10:36:50.933Z</time></trkpt><trkpt lat="40.5642026" lon="9.7918303"><ele>5.0</ele><time>2026-04-17T10:36:52.879Z</time></trkpt><trkpt lat="40.5642685" lon="9.7918055"><ele>5.0</ele><time>2026-04-17T10:36:54.934Z</time></trkpt><trkpt lat="40.5643324" lon="9.7917941"><ele>5.0</ele><time>2026-04-17T10:36:56.934Z</time></trkpt><trkpt lat="40.5643942" lon="9.7917749"><ele>5.0</ele><time>2026-04-17T10:36:58.933Z</time></trkpt><trkpt lat="40.5644789" lon="9.791738"><ele>5.0</ele><time>2026-04-17T10:37:01.935Z</time></trkpt><trkpt lat="40.5645407" lon="9.7916853"><ele>5.0</ele><time>2026-04-17T10:37:04.933Z</time></trkpt><trkpt lat="40.5646154" lon="9.7916346"><ele>5.0</ele><time>2026-04-17T10:37:08.845Z</time></trkpt><trkpt lat="40.5646997" lon="9.7915967"><ele>4.666666666666667</ele><time>2026-04-17T10:37:11.934Z</time></trkpt><trkpt lat="40.5647802" lon="9.7915671"><ele>4.333333333333334</ele><time>2026-04-17T10:37:14.933Z</time></trkpt><trkpt lat="40.5648641" lon="9.7915097"><ele>4.0</ele><time>2026-04-17T10:37:17.952Z</time></trkpt><trkpt lat="40.5649347" lon="9.7914594"><ele>3.666666666666667</ele><time>2026-04-17T10:37:20.934Z</time></trkpt><trkpt lat="40.5650181" lon="9.7914525"><ele>3.3333333333333335</ele><time>2026-04-17T10:37:23.84Z</time></trkpt><trkpt lat="40.5650818" lon="9.7914264"><ele>3.0</ele><time>2026-04-17T10:37:25.738Z</time></trkpt><trkpt lat="40.5651514" lon="9.7913815"><ele>2.9999999999999996</ele><time>2026-04-17T10:37:27.935Z</time></trkpt><trkpt lat="40.5652088" lon="9.7913385"><ele>3.0</ele><time>2026-04-17T10:37:29.933Z</time></trkpt><trkpt lat="40.5652684" lon="9.7913037"><ele>3.0</ele><time>2026-04-17T10:37:31.918Z</time></trkpt><trkpt lat="40.5653354" lon="9.7912336"><ele>3.0</ele><time>2026-04-17T10:37:34.84Z</time></trkpt><trkpt lat="40.5653848" lon="9.7911427"><ele>3.0</ele><time>2026-04-17T10:37:37.934Z</time></trkpt><trkpt lat="40.5654405" lon="9.7910749"><ele>2.9999999999999996</ele><time>2026-04-17T10:37:40.941Z</time></trkpt><trkpt lat="40.5655053" lon="9.7910429"><ele>3.0</ele><time>2026-04-17T10:37:42.934Z</time></trkpt><trkpt lat="40.5655776" lon="9.7910213"><ele>2.6666666666666665</ele><time>2026-04-17T10:37:44.934Z</time></trkpt><trkpt lat="40.5656482" lon="9.7909922"><ele>2.3333333333333335</ele><time>2026-04-17T10:37:46.839Z</time></trkpt><trkpt lat="40.5657156" lon="9.790937"><ele>2.0</ele><time>2026-04-17T10:37:48.861Z</time></trkpt><trkpt lat="40.5657948" lon="9.7909118"><ele>1.6666666666666665</ele><time>2026-04-17T10:37:50.934Z</time></trkpt><trkpt lat="40.5658672" lon="9.7908932"><ele>1.3333333333333333</ele><time>2026-04-17T10:37:52.935Z</time></trkpt><trkpt lat="40.5659366" lon="9.7908827"><ele>1.0</ele><time>2026-04-17T10:37:54.922Z</time></trkpt><trkpt lat="40.5660325" lon="9.7909049"><ele>0.9999999999999999</ele><time>2026-04-17T10:37:57.935Z</time></trkpt><trkpt lat="40.5660866" lon="9.7908553"><ele>1.0</ele><time>2026-04-17T10:37:59.881Z</time></trkpt><trkpt lat="40.5661306" lon="9.7907922"><ele>1.0</ele><time>2026-04-17T10:38:01.933Z</time></trkpt><trkpt lat="40.566196" lon="9.79072"><ele>1.0</ele><time>2026-04-17T10:38:04.934Z</time></trkpt><trkpt lat="40.5662764" lon="9.7906743"><ele>0.9999999999999999</ele><time>2026-04-17T10:38:07.933Z</time></trkpt><trkpt lat="40.566363" lon="9.7906837"><ele>1.0</ele><time>2026-04-17T10:38:10.934Z</time></trkpt><trkpt lat="40.5664452" lon="9.790744"><ele>0.9999999999999999</ele><time>2026-04-17T10:38:13.935Z</time></trkpt><trkpt lat="40.5665321" lon="9.7906954"><ele>1.0</ele><time>2026-04-17T10:38:16.934Z</time></trkpt><trkpt lat="40.5665761" lon="9.7906312"><ele>1.0</ele><time>2026-04-17T10:38:18.932Z</time></trkpt><trkpt lat="40.5666666" lon="9.7906432"><ele>1.0</ele><time>2026-04-17T10:38:21.934Z</time></trkpt><trkpt lat="40.5667365" lon="9.7905844"><ele>0.9999999999999999</ele><time>2026-04-17T10:38:24.933Z</time></trkpt><trkpt lat="40.5667494" lon="9.7905015"><ele>1.0</ele><time>2026-04-17T10:38:27.933Z</time></trkpt><trkpt lat="40.5668142" lon="9.7904865"><ele>0.9999999999999999</ele><time>2026-04-17T10:38:39.934Z</time></trkpt><trkpt lat="40.5668819" lon="9.7904917"><ele>1.0</ele><time>2026-04-17T10:38:52.927Z</time></trkpt><trkpt lat="40.5669381" lon="9.7904523"><ele>1.0</ele><time>2026-04-17T10:39:01.934Z</time></trkpt><trkpt lat="40.5670114" lon="9.7904541"><ele>1.0</ele><time>2026-04-17T10:39:06.849Z</time></trkpt><trkpt lat="40.5670918" lon="9.7904662"><ele>0.9999999999999999</ele><time>2026-04-17T10:39:09.87Z</time></trkpt><trkpt lat="40.5671677" lon="9.7904408"><ele>1.0</ele><time>2026-04-17T10:39:12.933Z</time></trkpt><trkpt lat="40.5672525" lon="9.790459"><ele>0.9999999999999999</ele><time>2026-04-17T10:39:15.932Z</time></trkpt><trkpt lat="40.5673328" lon="9.7904128"><ele>1.0</ele><time>2026-04-17T10:39:18.933Z</time></trkpt><trkpt lat="40.5674116" lon="9.7904345"><ele>1.0</ele><time>2026-04-17T10:39:21.933Z</time></trkpt><trkpt lat="40.567501" lon="9.790426"><ele>1.0</ele><time>2026-04-17T10:39:24.934Z</time></trkpt><trkpt lat="40.5675712" lon="9.7903782"><ele>0.9999999999999999</ele><time>2026-04-17T10:39:27.935Z</time></trkpt><trkpt lat="40.5676305" lon="9.7903339"><ele>1.0</ele><time>2026-04-17T10:39:30.933Z</time></trkpt><trkpt lat="40.5676997" lon="9.7902699"><ele>0.9999999999999999</ele><time>2026-04-17T10:39:34.933Z</time></trkpt><trkpt lat="40.5677698" lon="9.7902333"><ele>1.0</ele><time>2026-04-17T10:39:37.934Z</time></trkpt><trkpt lat="40.5678501" lon="9.7901994"><ele>1.0</ele><time>2026-04-17T10:39:40.934Z</time></trkpt><trkpt lat="40.5679336" lon="9.7902034"><ele>1.0</ele><time>2026-04-17T10:39:43.933Z</time></trkpt><trkpt lat="40.568016" lon="9.7902224"><ele>0.9999999999999999</ele><time>2026-04-17T10:39:46.935Z</time></trkpt><trkpt lat="40.5680688" lon="9.7901769"><ele>1.0</ele><time>2026-04-17T10:39:48.933Z</time></trkpt><trkpt lat="40.5681254" lon="9.7901395"><ele>1.1666666666666665</ele><time>2026-04-17T10:39:50.934Z</time></trkpt><trkpt lat="40.5681904" lon="9.790116"><ele>1.3333333333333333</ele><time>2026-04-17T10:39:52.934Z</time></trkpt><trkpt lat="40.5682695" lon="9.7900988"><ele>1.5</ele><time>2026-04-17T10:39:55.807Z</time></trkpt><trkpt lat="40.5683328" lon="9.7900806"><ele>1.6666666666666665</ele><time>2026-04-17T10:40:01.866Z</time></trkpt><trkpt lat="40.5684081" lon="9.790066"><ele>1.8333333333333333</ele><time>2026-04-17T10:40:07.932Z</time></trkpt><trkpt lat="40.568491" lon="9.7900742"><ele>2.0</ele><time>2026-04-17T10:40:11.935Z</time></trkpt><trkpt lat="40.5685693" lon="9.7900148"><ele>1.9999999999999998</ele><time>2026-04-17T10:40:14.934Z</time></trkpt><trkpt lat="40.5686522" lon="9.7899831"><ele>2.0</ele><time>2026-04-17T10:40:17.933Z</time></trkpt><trkpt lat="40.568731" lon="9.7899997"><ele>2.0</ele><time>2026-04-17T10:40:20.85Z</time></trkpt><trkpt lat="40.5688161" lon="9.7900402"><ele>2.0</ele><time>2026-04-17T10:40:23.935Z</time></trkpt><trkpt lat="40.5688784" lon="9.7900614"><ele>1.9999999999999998</ele><time>2026-04-17T10:40:25.933Z</time></trkpt><trkpt lat="40.5689686" lon="9.7900984"><ele>2.0</ele><time>2026-04-17T10:40:28.89Z</time></trkpt><trkpt lat="40.5690375" lon="9.7901053"><ele>1.8333333333333333</ele><time>2026-04-17T10:40:30.932Z</time></trkpt><trkpt lat="40.5691065" lon="9.790114"><ele>1.6666666666666665</ele><time>2026-04-17T10:40:32.934Z</time></trkpt><trkpt lat="40.5691706" lon="9.7901501"><ele>1.5</ele><time>2026-04-17T10:40:34.932Z</time></trkpt><trkpt lat="40.5692358" lon="9.7901745"><ele>1.3333333333333333</ele><time>2026-04-17T10:40:36.877Z</time></trkpt><trkpt lat="40.569302" lon="9.7901868"><ele>1.1666666666666665</ele><time>2026-04-17T10:40:38.935Z</time></trkpt><trkpt lat="40.5693939" lon="9.7901901"><ele>1.0</ele><time>2026-04-17T10:40:41.933Z</time></trkpt><trkpt lat="40.5694816" lon="9.7902172"><ele>0.8571428571428571</ele><time>2026-04-17T10:40:44.933Z</time></trkpt><trkpt lat="40.5695478" lon="9.7902422"><ele>0.7142857142857142</ele><time>2026-04-17T10:40:46.934Z</time></trkpt><trkpt lat="40.5696149" lon="9.7902731"><ele>0.5714285714285714</ele><time>2026-04-17T10:40:48.933Z</time></trkpt><trkpt lat="40.5696819" lon="9.790311"><ele>0.42857142857142855</ele><time>2026-04-17T10:40:50.936Z</time></trkpt><trkpt lat="40.5697505" lon="9.7903486"><ele>0.2857142857142857</ele><time>2026-04-17T10:40:52.933Z</time></trkpt><trkpt lat="40.5698231" lon="9.7903779"><ele>0.14285714285714285</ele><time>2026-04-17T10:40:54.934Z</time></trkpt><trkpt lat="40.5698923" lon="9.7904052"><ele>0.0</ele><time>2026-04-17T10:40:56.933Z</time></trkpt><trkpt lat="40.5699863" lon="9.7904302"><ele>0.0</ele><time>2026-04-17T10:40:59.933Z</time></trkpt><trkpt lat="40.5700437" lon="9.7903864"><ele>0.0</ele><time>2026-04-17T10:41:01.945Z</time></trkpt><trkpt lat="40.5700947" lon="9.7903334"><ele>0.0</ele><time>2026-04-17T10:41:03.933Z</time></trkpt><trkpt lat="40.5701788" lon="9.7902981"><ele>0.0</ele><time>2026-04-17T10:41:06.932Z</time></trkpt><trkpt lat="40.5702653" lon="9.7902743"><ele>0.0</ele><time>2026-04-17T10:41:09.934Z</time></trkpt><trkpt lat="40.5703334" lon="9.7902765"><ele>0.0</ele><time>2026-04-17T10:41:11.932Z</time></trkpt><trkpt lat="40.5704023" lon="9.7902792"><ele>0.0</ele><time>2026-04-17T10:41:13.934Z</time></trkpt><trkpt lat="40.5704647" lon="9.7902559"><ele>0.14285714285714285</ele><time>2026-04-17T10:41:15.879Z</time></trkpt><trkpt lat="40.5705281" lon="9.7902832"><ele>0.2857142857142857</ele><time>2026-04-17T10:41:17.919Z</time></trkpt><trkpt lat="40.5705824" lon="9.7903302"><ele>0.42857142857142855</ele><time>2026-04-17T10:41:19.932Z</time></trkpt><trkpt lat="40.570637" lon="9.7902826"><ele>0.5714285714285714</ele><time>2026-04-17T10:41:21.932Z</time></trkpt><trkpt lat="40.5706827" lon="9.7902206"><ele>0.7142857142857142</ele><time>2026-04-17T10:41:23.933Z</time></trkpt><trkpt lat="40.5707632" lon="9.7901726"><ele>0.8571428571428571</ele><time>2026-04-17T10:41:26.94Z</time></trkpt><trkpt lat="40.5708211" lon="9.7902096"><ele>1.0</ele><time>2026-04-17T10:41:28.935Z</time></trkpt><trkpt lat="40.570875" lon="9.7902592"><ele>1.0</ele><time>2026-04-17T10:41:30.934Z</time></trkpt><trkpt lat="40.5709665" lon="9.7902485"><ele>1.0</ele><time>2026-04-17T10:41:33.933Z</time></trkpt><trkpt lat="40.5710461" lon="9.7901835"><ele>1.0</ele><time>2026-04-17T10:41:36.933Z</time></trkpt><trkpt lat="40.5711026" lon="9.7900864"><ele>1.0</ele><time>2026-04-17T10:41:39.933Z</time></trkpt><trkpt lat="40.5711705" lon="9.7900155"><ele>1.0</ele><time>2026-04-17T10:41:42.935Z</time></trkpt><trkpt lat="40.5712396" lon="9.7899459"><ele>0.9999999999999999</ele><time>2026-04-17T10:41:45.943Z</time></trkpt><trkpt lat="40.5713255" lon="9.7899147"><ele>1.0</ele><time>2026-04-17T10:41:48.935Z</time></trkpt><trkpt lat="40.57141" lon="9.7898753"><ele>1.0</ele><time>2026-04-17T10:41:51.842Z</time></trkpt><trkpt lat="40.5714867" lon="9.7898312"><ele>1.0</ele><time>2026-04-17T10:41:54.932Z</time></trkpt><trkpt lat="40.5715541" lon="9.7897694"><ele>0.9999999999999999</ele><time>2026-04-17T10:41:57.934Z</time></trkpt><trkpt lat="40.5716239" lon="9.7896907"><ele>1.0</ele><time>2026-04-17T10:42:00.921Z</time></trkpt><trkpt lat="40.571675" lon="9.7896323"><ele>1.0</ele><time>2026-04-17T10:42:02.935Z</time></trkpt><trkpt lat="40.5717386" lon="9.7896035"><ele>0.9999999999999999</ele><time>2026-04-17T10:42:04.934Z</time></trkpt><trkpt lat="40.5717952" lon="9.7895498"><ele>1.0</ele><time>2026-04-17T10:42:06.933Z</time></trkpt><trkpt lat="40.5718411" lon="9.7894733"><ele>1.0</ele><time>2026-04-17T10:42:08.933Z</time></trkpt><trkpt lat="40.5718923" lon="9.7894107"><ele>0.9999999999999999</ele><time>2026-04-17T10:42:10.934Z</time></trkpt><trkpt lat="40.5719601" lon="9.7893781"><ele>1.0</ele><time>2026-04-17T10:42:12.934Z</time></trkpt><trkpt lat="40.5720228" lon="9.7893369"><ele>1.0</ele><time>2026-04-17T10:42:14.933Z</time></trkpt><trkpt lat="40.5720779" lon="9.7892849"><ele>1.0</ele><time>2026-04-17T10:42:16.933Z</time></trkpt><trkpt lat="40.5721336" lon="9.7892319"><ele>0.9999999999999999</ele><time>2026-04-17T10:42:18.933Z</time></trkpt><trkpt lat="40.572173" lon="9.7891605"><ele>1.0</ele><time>2026-04-17T10:42:20.933Z</time></trkpt><trkpt lat="40.5722155" lon="9.7890524"><ele>1.0</ele><time>2026-04-17T10:42:23.924Z</time></trkpt><trkpt lat="40.5722384" lon="9.7889708"><ele>0.9999999999999999</ele><time>2026-04-17T10:42:26.932Z</time></trkpt><trkpt lat="40.5722174" lon="9.7888831"><ele>1.0</ele><time>2026-04-17T10:42:29.934Z</time></trkpt><trkpt lat="40.5722437" lon="9.7887987"><ele>1.0</ele><time>2026-04-17T10:42:32.933Z</time></trkpt><trkpt lat="40.5723124" lon="9.7887181"><ele>0.9999999999999999</ele><time>2026-04-17T10:42:35.932Z</time></trkpt><trkpt lat="40.5723561" lon="9.7886537"><ele>1.0</ele><time>2026-04-17T10:42:37.932Z</time></trkpt><trkpt lat="40.5723853" lon="9.788579"><ele>1.0</ele><time>2026-04-17T10:42:39.823Z</time></trkpt><trkpt lat="40.572446" lon="9.7885378"><ele>1.0</ele><time>2026-04-17T10:42:41.933Z</time></trkpt><trkpt lat="40.5724739" lon="9.7884305"><ele>0.9999999999999999</ele><time>2026-04-17T10:42:44.932Z</time></trkpt><trkpt lat="40.5724748" lon="9.788313"><ele>1.0</ele><time>2026-04-17T10:42:47.933Z</time></trkpt><trkpt lat="40.5725179" lon="9.7882115"><ele>0.9999999999999999</ele><time>2026-04-17T10:42:50.933Z</time></trkpt><trkpt lat="40.5725586" lon="9.788103"><ele>1.0</ele><time>2026-04-17T10:42:53.933Z</time></trkpt><trkpt lat="40.5725733" lon="9.7879884"><ele>1.0</ele><time>2026-04-17T10:42:56.935Z</time></trkpt><trkpt lat="40.5725437" lon="9.7879061"><ele>1.0</ele><time>2026-04-17T10:42:58.951Z</time></trkpt><trkpt lat="40.5725488" lon="9.7877878"><ele>0.9999999999999999</ele><time>2026-04-17T10:43:01.843Z</time></trkpt><trkpt lat="40.5725705" lon="9.7877089"><ele>1.0</ele><time>2026-04-17T10:43:03.933Z</time></trkpt><trkpt lat="40.5725786" lon="9.7876031"><ele>1.0</ele><time>2026-04-17T10:43:06.891Z</time></trkpt><trkpt lat="40.5725925" lon="9.7875029"><ele>0.9999999999999999</ele><time>2026-04-17T10:43:09.933Z</time></trkpt><trkpt lat="40.572619" lon="9.7873944"><ele>1.0</ele><time>2026-04-17T10:43:12.934Z</time></trkpt><trkpt lat="40.5726115" lon="9.7873095"><ele>1.0</ele><time>2026-04-17T10:43:14.934Z</time></trkpt><trkpt lat="40.5726218" lon="9.7872203"><ele>0.9999999999999999</ele><time>2026-04-17T10:43:16.932Z</time></trkpt><trkpt lat="40.5726178" lon="9.7871325"><ele>1.0</ele><time>2026-04-17T10:43:18.933Z</time></trkpt><trkpt lat="40.5726008" lon="9.7870478"><ele>1.0</ele><time>2026-04-17T10:43:20.934Z</time></trkpt><trkpt lat="40.5725811" lon="9.7869606"><ele>0.9999999999999999</ele><time>2026-04-17T10:43:22.933Z</time></trkpt><trkpt lat="40.5725841" lon="9.7868732"><ele>1.0</ele><time>2026-04-17T10:43:24.933Z</time></trkpt><trkpt lat="40.572523" lon="9.7867816"><ele>1.0</ele><time>2026-04-17T10:43:27.932Z</time></trkpt><trkpt lat="40.5724487" lon="9.7867108"><ele>1.0</ele><time>2026-04-17T10:43:30.904Z</time></trkpt><trkpt lat="40.5724164" lon="9.7866349"><ele>0.9999999999999999</ele><time>2026-04-17T10:43:32.934Z</time></trkpt><trkpt lat="40.5723772" lon="9.7865697"><ele>1.0</ele><time>2026-04-17T10:43:34.895Z</time></trkpt><trkpt lat="40.5723684" lon="9.7864728"><ele>1.4285714285714284</ele><time>2026-04-17T10:43:38.934Z</time></trkpt><trkpt lat="40.5724435" lon="9.7864446"><ele>1.857142857142857</ele><time>2026-04-17T10:43:49.933Z</time></trkpt><trkpt lat="40.572501" lon="9.78639"><ele>2.2857142857142856</ele><time>2026-04-17T10:43:52.933Z</time></trkpt><trkpt lat="40.5725789" lon="9.7863942"><ele>2.714285714285714</ele><time>2026-04-17T10:43:55.934Z</time></trkpt><trkpt lat="40.5726564" lon="9.786406"><ele>3.1428571428571423</ele><time>2026-04-17T10:43:58.843Z</time></trkpt><trkpt lat="40.5727309" lon="9.7863899"><ele>3.571428571428571</ele><time>2026-04-17T10:44:00.935Z</time></trkpt><trkpt lat="40.5727962" lon="9.7863646"><ele>4.0</ele><time>2026-04-17T10:44:02.934Z</time></trkpt><trkpt lat="40.5728549" lon="9.7863245"><ele>3.9999999999999996</ele><time>2026-04-17T10:44:04.933Z</time></trkpt><trkpt lat="40.5729247" lon="9.7862451"><ele>4.0</ele><time>2026-04-17T10:44:07.933Z</time></trkpt><trkpt lat="40.572977" lon="9.7861986"><ele>4.0</ele><time>2026-04-17T10:44:09.934Z</time></trkpt><trkpt lat="40.5730551" lon="9.7861217"><ele>4.0</ele><time>2026-04-17T10:44:12.933Z</time></trkpt><trkpt lat="40.5731145" lon="9.7860689"><ele>3.9999999999999996</ele><time>2026-04-17T10:44:14.845Z</time></trkpt><trkpt lat="40.5731834" lon="9.7860003"><ele>4.0</ele><time>2026-04-17T10:44:16.933Z</time></trkpt><trkpt lat="40.5732546" lon="9.7859402"><ele>4.0</ele><time>2026-04-17T10:44:18.933Z</time></trkpt><trkpt lat="40.5733302" lon="9.7858982"><ele>3.9999999999999996</ele><time>2026-04-17T10:44:20.933Z</time></trkpt><trkpt lat="40.5733972" lon="9.7858578"><ele>4.0</ele><time>2026-04-17T10:44:22.932Z</time></trkpt><trkpt lat="40.5734445" lon="9.7857506"><ele>4.0</ele><time>2026-04-17T10:44:25.933Z</time></trkpt><trkpt lat="40.5734737" lon="9.7856754"><ele>3.9999999999999996</ele><time>2026-04-17T10:44:27.932Z</time></trkpt><trkpt lat="40.5735252" lon="9.785625"><ele>4.0</ele><time>2026-04-17T10:44:29.933Z</time></trkpt><trkpt lat="40.5735792" lon="9.7855764"><ele>4.0</ele><time>2026-04-17T10:44:31.934Z</time></trkpt><trkpt lat="40.5736374" lon="9.7855404"><ele>4.0</ele><time>2026-04-17T10:44:33.933Z</time></trkpt><trkpt lat="40.5736875" lon="9.7854886"><ele>3.9999999999999996</ele><time>2026-04-17T10:44:35.932Z</time></trkpt><trkpt lat="40.5737474" lon="9.7854088"><ele>4.0</ele><time>2026-04-17T10:44:38.932Z</time></trkpt><trkpt lat="40.5737983" lon="9.7853279"><ele>4.0</ele><time>2026-04-17T10:44:41.933Z</time></trkpt><trkpt lat="40.5738412" lon="9.7852441"><ele>3.9999999999999996</ele><time>2026-04-17T10:44:44.934Z</time></trkpt><trkpt lat="40.5738672" lon="9.7851558"><ele>4.0</ele><time>2026-04-17T10:44:47.934Z</time></trkpt><trkpt lat="40.573828" lon="9.7850856"><ele>4.0</ele><time>2026-04-17T10:44:50.932Z</time></trkpt><trkpt lat="40.5738516" lon="9.7849669"><ele>3.4285714285714284</ele><time>2026-04-17T10:44:54.933Z</time></trkpt><trkpt lat="40.573888" lon="9.7848941"><ele>2.8571428571428568</ele><time>2026-04-17T10:44:56.933Z</time></trkpt><trkpt lat="40.5739672" lon="9.7848255"><ele>2.2857142857142856</ele><time>2026-04-17T10:44:59.933Z</time></trkpt><trkpt lat="40.5739954" lon="9.7847466"><ele>1.7142857142857142</ele><time>2026-04-17T10:45:01.932Z</time></trkpt><trkpt lat="40.5739746" lon="9.7846536"><ele>1.1428571428571428</ele><time>2026-04-17T10:45:03.933Z</time></trkpt><trkpt lat="40.573965" lon="9.7845703"><ele>0.5714285714285714</ele><time>2026-04-17T10:45:05.933Z</time></trkpt><trkpt lat="40.5739586" lon="9.7844865"><ele>0.0</ele><time>2026-04-17T10:45:07.938Z</time></trkpt><trkpt lat="40.5739695" lon="9.7843617"><ele>0.5</ele><time>2026-04-17T10:45:10.934Z</time></trkpt><trkpt lat="40.5740114" lon="9.7842535"><ele>1.0</ele><time>2026-04-17T10:45:13.933Z</time></trkpt><trkpt lat="40.5740623" lon="9.7842029"><ele>1.5</ele><time>2026-04-17T10:45:15.933Z</time></trkpt><trkpt lat="40.5741372" lon="9.7841395"><ele>2.0</ele><time>2026-04-17T10:45:18.932Z</time></trkpt><trkpt lat="40.5742159" lon="9.7840863"><ele>2.5</ele><time>2026-04-17T10:45:21.933Z</time></trkpt><trkpt lat="40.5742726" lon="9.7840051"><ele>3.0</ele><time>2026-04-17T10:45:24.933Z</time></trkpt><trkpt lat="40.574334" lon="9.7839479"><ele>3.0</ele><time>2026-04-17T10:45:27.934Z</time></trkpt><trkpt lat="40.5744149" lon="9.7839179"><ele>3.0</ele><time>2026-04-17T10:45:30.933Z</time></trkpt><trkpt lat="40.5745139" lon="9.7838887"><ele>3.0</ele><time>2026-04-17T10:45:33.934Z</time></trkpt><trkpt lat="40.5745723" lon="9.7838411"><ele>3.0</ele><time>2026-04-17T10:45:35.934Z</time></trkpt><trkpt lat="40.57463" lon="9.7838024"><ele>3.0</ele><time>2026-04-17T10:45:37.897Z</time></trkpt><trkpt lat="40.5746887" lon="9.783759"><ele>3.0</ele><time>2026-04-17T10:45:39.935Z</time></trkpt><trkpt lat="40.5747335" lon="9.7836988"><ele>2.714285714285714</ele><time>2026-04-17T10:45:41.933Z</time></trkpt><trkpt lat="40.5747799" lon="9.7836367"><ele>2.4285714285714284</ele><time>2026-04-17T10:45:43.933Z</time></trkpt><trkpt lat="40.5748333" lon="9.7835859"><ele>2.142857142857143</ele><time>2026-04-17T10:45:45.934Z</time></trkpt><trkpt lat="40.5748927" lon="9.783543"><ele>1.857142857142857</ele><time>2026-04-17T10:45:47.933Z</time></trkpt><trkpt lat="40.5749454" lon="9.7834892"><ele>1.5714285714285712</ele><time>2026-04-17T10:45:49.933Z</time></trkpt><trkpt lat="40.5750055" lon="9.7834547"><ele>1.2857142857142856</ele><time>2026-04-17T10:45:51.932Z</time></trkpt><trkpt lat="40.5750936" lon="9.7834406"><ele>1.0</ele><time>2026-04-17T10:45:54.933Z</time></trkpt><trkpt lat="40.5751934" lon="9.7834723"><ele>1.6666666666666665</ele><time>2026-04-17T10:45:57.933Z</time></trkpt><trkpt lat="40.5752624" lon="9.7834661"><ele>2.3333333333333335</ele><time>2026-04-17T10:45:59.934Z</time></trkpt><trkpt lat="40.5753274" lon="9.7834593"><ele>3.0</ele><time>2026-04-17T10:46:01.933Z</time></trkpt><trkpt lat="40.5753994" lon="9.7834391"><ele>3.666666666666667</ele><time>2026-04-17T10:46:03.933Z</time></trkpt><trkpt lat="40.5754728" lon="9.7834432"><ele>4.333333333333334</ele><time>2026-04-17T10:46:05.843Z</time></trkpt><trkpt lat="40.5755617" lon="9.7834477"><ele>5.0</ele><time>2026-04-17T10:46:07.933Z</time></trkpt><trkpt lat="40.5756411" lon="9.7834549"><ele>5.0</ele><time>2026-04-17T10:46:09.933Z</time></trkpt><trkpt lat="40.5757226" lon="9.7834214"><ele>5.0</ele><time>2026-04-17T10:46:11.932Z</time></trkpt><trkpt lat="40.5757937" lon="9.7833739"><ele>5.0</ele><time>2026-04-17T10:46:13.939Z</time></trkpt><trkpt lat="40.5758715" lon="9.7833665"><ele>5.0</ele><time>2026-04-17T10:46:15.949Z</time></trkpt><trkpt lat="40.5759326" lon="9.7833409"><ele>5.0</ele><time>2026-04-17T10:46:17.933Z</time></trkpt><trkpt lat="40.5759853" lon="9.7832952"><ele>5.0</ele><time>2026-04-17T10:46:19.937Z</time></trkpt><trkpt lat="40.5760516" lon="9.7832897"><ele>5.0</ele><time>2026-04-17T10:46:21.933Z</time></trkpt><trkpt lat="40.5761236" lon="9.7832756"><ele>4.5</ele><time>2026-04-17T10:46:23.933Z</time></trkpt><trkpt lat="40.5761949" lon="9.7832294"><ele>4.0</ele><time>2026-04-17T10:46:25.933Z</time></trkpt><trkpt lat="40.5762731" lon="9.7831921"><ele>3.5</ele><time>2026-04-17T10:46:27.933Z</time></trkpt><trkpt lat="40.5763498" lon="9.7831593"><ele>3.0</ele><time>2026-04-17T10:46:29.933Z</time></trkpt><trkpt lat="40.5764194" lon="9.7831241"><ele>2.5</ele><time>2026-04-17T10:46:31.934Z</time></trkpt><trkpt lat="40.5764845" lon="9.7831167"><ele>2.0</ele><time>2026-04-17T10:46:33.819Z</time></trkpt><trkpt lat="40.5765536" lon="9.7830987"><ele>2.0</ele><time>2026-04-17T10:46:35.94Z</time></trkpt><trkpt lat="40.5766229" lon="9.7831005"><ele>1.9999999999999998</ele><time>2026-04-17T10:46:37.934Z</time></trkpt><trkpt lat="40.576691" lon="9.7830725"><ele>2.0</ele><time>2026-04-17T10:46:39.934Z</time></trkpt><trkpt lat="40.5767569" lon="9.7830264"><ele>2.0</ele><time>2026-04-17T10:46:41.932Z</time></trkpt><trkpt lat="40.5768244" lon="9.7829898"><ele>1.9999999999999998</ele><time>2026-04-17T10:46:43.934Z</time></trkpt><trkpt lat="40.5768965" lon="9.7829787"><ele>2.0</ele><time>2026-04-17T10:46:45.932Z</time></trkpt><trkpt lat="40.5769624" lon="9.7829536"><ele>2.0</ele><time>2026-04-17T10:46:47.932Z</time></trkpt><trkpt lat="40.577025" lon="9.7829248"><ele>1.7142857142857142</ele><time>2026-04-17T10:46:49.932Z</time></trkpt><trkpt lat="40.5770896" lon="9.7828955"><ele>1.4285714285714284</ele><time>2026-04-17T10:46:51.933Z</time></trkpt><trkpt lat="40.5771378" lon="9.7828342"><ele>1.1428571428571428</ele><time>2026-04-17T10:46:53.934Z</time></trkpt><trkpt lat="40.5771802" lon="9.7827691"><ele>0.8571428571428571</ele><time>2026-04-17T10:46:55.88Z</time></trkpt><trkpt lat="40.5772419" lon="9.7826863"><ele>0.5714285714285714</ele><time>2026-04-17T10:46:58.933Z</time></trkpt><trkpt lat="40.5772813" lon="9.7826087"><ele>0.2857142857142857</ele><time>2026-04-17T10:47:01.932Z</time></trkpt><trkpt lat="40.5773524" lon="9.7825562"><ele>0.0</ele><time>2026-04-17T10:47:05.933Z</time></trkpt><trkpt lat="40.5774268" lon="9.7825044"><ele>0.5714285714285714</ele><time>2026-04-17T10:47:08.933Z</time></trkpt><trkpt lat="40.5774817" lon="9.7824635"><ele>1.1428571428571428</ele><time>2026-04-17T10:47:10.934Z</time></trkpt><trkpt lat="40.5775483" lon="9.7824337"><ele>1.7142857142857142</ele><time>2026-04-17T10:47:12.932Z</time></trkpt><trkpt lat="40.5776119" lon="9.7824014"><ele>2.2857142857142856</ele><time>2026-04-17T10:47:14.933Z</time></trkpt><trkpt lat="40.5776722" lon="9.7823702"><ele>2.8571428571428568</ele><time>2026-04-17T10:47:16.942Z</time></trkpt><trkpt lat="40.5777597" lon="9.7823379"><ele>3.4285714285714284</ele><time>2026-04-17T10:47:19.932Z</time></trkpt><trkpt lat="40.5778256" lon="9.7823284"><ele>4.0</ele><time>2026-04-17T10:47:21.934Z</time></trkpt><trkpt lat="40.5778911" lon="9.7823091"><ele>3.9999999999999996</ele><time>2026-04-17T10:47:23.933Z</time></trkpt><trkpt lat="40.5779547" lon="9.7822974"><ele>4.0</ele><time>2026-04-17T10:47:25.945Z</time></trkpt><trkpt lat="40.5780466" lon="9.7822737"><ele>4.0</ele><time>2026-04-17T10:47:28.86Z</time></trkpt><trkpt lat="40.5781189" lon="9.7822681"><ele>4.0</ele><time>2026-04-17T10:47:30.8Z</time></trkpt><trkpt lat="40.5781922" lon="9.7822723"><ele>3.9999999999999996</ele><time>2026-04-17T10:47:32.932Z</time></trkpt><trkpt lat="40.5782791" lon="9.7822674"><ele>4.0</ele><time>2026-04-17T10:47:35.932Z</time></trkpt><trkpt lat="40.5783692" lon="9.7822642"><ele>3.9999999999999996</ele><time>2026-04-17T10:47:38.934Z</time></trkpt><trkpt lat="40.5784474" lon="9.7822605"><ele>4.0</ele><time>2026-04-17T10:47:40.933Z</time></trkpt><trkpt lat="40.5785256" lon="9.782259"><ele>4.0</ele><time>2026-04-17T10:47:42.932Z</time></trkpt><trkpt lat="40.5786035" lon="9.7822549"><ele>4.0</ele><time>2026-04-17T10:47:44.933Z</time></trkpt><trkpt lat="40.5786815" lon="9.7822481"><ele>3.9999999999999996</ele><time>2026-04-17T10:47:46.933Z</time></trkpt><trkpt lat="40.5787559" lon="9.7822431"><ele>4.0</ele><time>2026-04-17T10:47:48.933Z</time></trkpt><trkpt lat="40.5788347" lon="9.7822456"><ele>3.4999999999999996</ele><time>2026-04-17T10:47:50.933Z</time></trkpt><trkpt lat="40.578911" lon="9.7822499"><ele>3.0</ele><time>2026-04-17T10:47:52.882Z</time></trkpt><trkpt lat="40.5789902" lon="9.7822711"><ele>2.5</ele><time>2026-04-17T10:47:54.933Z</time></trkpt><trkpt lat="40.57906" lon="9.7823076"><ele>2.0</ele><time>2026-04-17T10:47:56.9Z</time></trkpt><trkpt lat="40.5791381" lon="9.7823211"><ele>1.5</ele><time>2026-04-17T10:47:58.933Z</time></trkpt><trkpt lat="40.5792153" lon="9.7823368"><ele>1.0</ele><time>2026-04-17T10:48:00.932Z</time></trkpt><trkpt lat="40.5792824" lon="9.7823569"><ele>1.0</ele><time>2026-04-17T10:48:02.933Z</time></trkpt><trkpt lat="40.5793506" lon="9.7823747"><ele>0.9999999999999999</ele><time>2026-04-17T10:48:04.933Z</time></trkpt><trkpt lat="40.5794215" lon="9.7823904"><ele>1.0</ele><time>2026-04-17T10:48:06.934Z</time></trkpt><trkpt lat="40.5794858" lon="9.7823636"><ele>1.0</ele><time>2026-04-17T10:48:08.933Z</time></trkpt><trkpt lat="40.5795724" lon="9.7823065"><ele>0.9999999999999999</ele><time>2026-04-17T10:48:11.933Z</time></trkpt><trkpt lat="40.5796342" lon="9.7822557"><ele>1.0</ele><time>2026-04-17T10:48:13.933Z</time></trkpt><trkpt lat="40.579693" lon="9.7822077"><ele>1.0</ele><time>2026-04-17T10:48:15.933Z</time></trkpt><trkpt lat="40.5797479" lon="9.7821591"><ele>0.8333333333333333</ele><time>2026-04-17T10:48:17.933Z</time></trkpt><trkpt lat="40.5797977" lon="9.7821066"><ele>0.6666666666666666</ele><time>2026-04-17T10:48:19.932Z</time></trkpt><trkpt lat="40.5798569" lon="9.782014"><ele>0.5</ele><time>2026-04-17T10:48:22.932Z</time></trkpt><trkpt lat="40.5799001" lon="9.7819051"><ele>0.3333333333333333</ele><time>2026-04-17T10:48:25.932Z</time></trkpt><trkpt lat="40.5799288" lon="9.7818115"><ele>0.16666666666666666</ele><time>2026-04-17T10:48:28.933Z</time></trkpt><trkpt lat="40.5799634" lon="9.7817379"><ele>0.0</ele><time>2026-04-17T10:48:30.933Z</time></trkpt><trkpt lat="40.5800108" lon="9.7816643"><ele>0.8571428571428571</ele><time>2026-04-17T10:48:32.933Z</time></trkpt><trkpt lat="40.5800536" lon="9.781593"><ele>1.7142857142857142</ele><time>2026-04-17T10:48:34.932Z</time></trkpt><trkpt lat="40.5800992" lon="9.7815243"><ele>2.571428571428571</ele><time>2026-04-17T10:48:36.933Z</time></trkpt><trkpt lat="40.5801411" lon="9.781457"><ele>3.4285714285714284</ele><time>2026-04-17T10:48:38.932Z</time></trkpt><trkpt lat="40.5801769" lon="9.7813884"><ele>4.285714285714286</ele><time>2026-04-17T10:48:40.932Z</time></trkpt><trkpt lat="40.580209" lon="9.7813116"><ele>5.142857142857142</ele><time>2026-04-17T10:48:42.933Z</time></trkpt><trkpt lat="40.5802389" lon="9.7812316"><ele>6.0</ele><time>2026-04-17T10:48:44.933Z</time></trkpt><trkpt lat="40.5802924" lon="9.7811792"><ele>5.999999999999999</ele><time>2026-04-17T10:48:46.932Z</time></trkpt><trkpt lat="40.5803438" lon="9.7811236"><ele>6.0</ele><time>2026-04-17T10:48:48.933Z</time></trkpt><trkpt lat="40.5803788" lon="9.7810456"><ele>6.0</ele><time>2026-04-17T10:48:50.934Z</time></trkpt><trkpt lat="40.5804262" lon="9.7809753"><ele>6.0</ele><time>2026-04-17T10:48:52.933Z</time></trkpt><trkpt lat="40.5804775" lon="9.7808991"><ele>6.0</ele><time>2026-04-17T10:48:54.934Z</time></trkpt><trkpt lat="40.5805447" lon="9.780842"><ele>5.999999999999999</ele><time>2026-04-17T10:48:56.934Z</time></trkpt><trkpt lat="40.5806091" lon="9.7807845"><ele>6.0</ele><time>2026-04-17T10:48:58.904Z</time></trkpt><trkpt lat="40.5806604" lon="9.780709"><ele>5.666666666666667</ele><time>2026-04-17T10:49:00.934Z</time></trkpt><trkpt lat="40.5807183" lon="9.7806495"><ele>5.333333333333333</ele><time>2026-04-17T10:49:02.804Z</time></trkpt><trkpt lat="40.580775" lon="9.7805859"><ele>5.0</ele><time>2026-04-17T10:49:04.932Z</time></trkpt><trkpt lat="40.5808267" lon="9.7804819"><ele>4.666666666666666</ele><time>2026-04-17T10:49:07.933Z</time></trkpt><trkpt lat="40.580875" lon="9.7803803"><ele>4.333333333333333</ele><time>2026-04-17T10:49:10.932Z</time></trkpt><trkpt lat="40.5809093" lon="9.7802683"><ele>4.0</ele><time>2026-04-17T10:49:13.933Z</time></trkpt><trkpt lat="40.5809618" lon="9.7801596"><ele>3.9999999999999996</ele><time>2026-04-17T10:49:16.933Z</time></trkpt><trkpt lat="40.5810035" lon="9.7800772"><ele>4.0</ele><time>2026-04-17T10:49:18.932Z</time></trkpt><trkpt lat="40.5810436" lon="9.7799889"><ele>4.0</ele><time>2026-04-17T10:49:20.932Z</time></trkpt><trkpt lat="40.5810813" lon="9.7798956"><ele>4.0</ele><time>2026-04-17T10:49:22.933Z</time></trkpt><trkpt lat="40.5811189" lon="9.7798054"><ele>3.9999999999999996</ele><time>2026-04-17T10:49:24.933Z</time></trkpt><trkpt lat="40.5811486" lon="9.7797106"><ele>4.0</ele><time>2026-04-17T10:49:26.932Z</time></trkpt><trkpt lat="40.5811842" lon="9.7796194"><ele>3.6666666666666665</ele><time>2026-04-17T10:49:28.934Z</time></trkpt><trkpt lat="40.5812083" lon="9.7795252"><ele>3.333333333333333</ele><time>2026-04-17T10:49:30.932Z</time></trkpt><trkpt lat="40.5812367" lon="9.7794383"><ele>3.0</ele><time>2026-04-17T10:49:32.933Z</time></trkpt><trkpt lat="40.5812849" lon="9.779358"><ele>2.6666666666666665</ele><time>2026-04-17T10:49:34.933Z</time></trkpt><trkpt lat="40.581328" lon="9.7792832"><ele>2.333333333333333</ele><time>2026-04-17T10:49:36.932Z</time></trkpt><trkpt lat="40.5813724" lon="9.7791856"><ele>2.0</ele><time>2026-04-17T10:49:38.932Z</time></trkpt><trkpt lat="40.5814492" lon="9.7791476"><ele>1.9999999999999998</ele><time>2026-04-17T10:49:40.934Z</time></trkpt><trkpt lat="40.581521" lon="9.779136"><ele>2.0</ele><time>2026-04-17T10:49:42.933Z</time></trkpt><trkpt lat="40.581591" lon="9.7791008"><ele>2.0</ele><time>2026-04-17T10:49:44.933Z</time></trkpt><trkpt lat="40.5816574" lon="9.7790468"><ele>2.0</ele><time>2026-04-17T10:49:46.933Z</time></trkpt><trkpt lat="40.5817231" lon="9.7789935"><ele>1.9999999999999998</ele><time>2026-04-17T10:49:48.934Z</time></trkpt><trkpt lat="40.5817698" lon="9.7789137"><ele>2.0</ele><time>2026-04-17T10:49:50.933Z</time></trkpt><trkpt lat="40.5818153" lon="9.7788348"><ele>1.9999999999999998</ele><time>2026-04-17T10:49:52.933Z</time></trkpt><trkpt lat="40.5818419" lon="9.7787402"><ele>2.0</ele><time>2026-04-17T10:49:54.932Z</time></trkpt><trkpt lat="40.5818544" lon="9.7786393"><ele>2.0</ele><time>2026-04-17T10:49:56.933Z</time></trkpt><trkpt lat="40.5818739" lon="9.7785398"><ele>2.0</ele><time>2026-04-17T10:49:58.933Z</time></trkpt><trkpt lat="40.5819152" lon="9.7784504"><ele>1.9999999999999998</ele><time>2026-04-17T10:50:00.932Z</time></trkpt><trkpt lat="40.5819619" lon="9.7783646"><ele>2.0</ele><time>2026-04-17T10:50:02.933Z</time></trkpt><trkpt lat="40.5820106" lon="9.778279"><ele>1.6666666666666665</ele><time>2026-04-17T10:50:04.933Z</time></trkpt><trkpt lat="40.5820542" lon="9.7781889"><ele>1.3333333333333333</ele><time>2026-04-17T10:50:06.933Z</time></trkpt><trkpt lat="40.5820788" lon="9.7780875"><ele>1.0</ele><time>2026-04-17T10:50:08.932Z</time></trkpt><trkpt lat="40.5820947" lon="9.7779827"><ele>0.6666666666666666</ele><time>2026-04-17T10:50:10.932Z</time></trkpt><trkpt lat="40.5820981" lon="9.7778752"><ele>0.3333333333333333</ele><time>2026-04-17T10:50:12.934Z</time></trkpt><trkpt lat="40.5820812" lon="9.7777675"><ele>0.0</ele><time>2026-04-17T10:50:14.932Z</time></trkpt><trkpt lat="40.5820626" lon="9.7776618"><ele>0.0</ele><time>2026-04-17T10:50:16.932Z</time></trkpt><trkpt lat="40.5820478" lon="9.777557"><ele>0.0</ele><time>2026-04-17T10:50:18.932Z</time></trkpt><trkpt lat="40.5820252" lon="9.7774513"><ele>0.0</ele><time>2026-04-17T10:50:20.934Z</time></trkpt><trkpt lat="40.5819971" lon="9.7773456"><ele>0.0</ele><time>2026-04-17T10:50:22.934Z</time></trkpt><trkpt lat="40.5819725" lon="9.7772364"><ele>0.0</ele><time>2026-04-17T10:50:24.933Z</time></trkpt><trkpt lat="40.5819443" lon="9.7771295"><ele>0.0</ele><time>2026-04-17T10:50:26.932Z</time></trkpt><trkpt lat="40.5819068" lon="9.7770273"><ele>0.8333333333333334</ele><time>2026-04-17T10:50:28.932Z</time></trkpt><trkpt lat="40.5818479" lon="9.7769467"><ele>1.6666666666666667</ele><time>2026-04-17T10:50:30.933Z</time></trkpt><trkpt lat="40.5817874" lon="9.776874"><ele>2.5</ele><time>2026-04-17T10:50:32.933Z</time></trkpt><trkpt lat="40.5817207" lon="9.7768119"><ele>3.3333333333333335</ele><time>2026-04-17T10:50:34.922Z</time></trkpt><trkpt lat="40.5816547" lon="9.7767537"><ele>4.166666666666667</ele><time>2026-04-17T10:50:36.933Z</time></trkpt><trkpt lat="40.5815984" lon="9.776682"><ele>5.0</ele><time>2026-04-17T10:50:38.882Z</time></trkpt><trkpt lat="40.5815424" lon="9.7766064"><ele>5.0</ele><time>2026-04-17T10:50:40.933Z</time></trkpt><trkpt lat="40.5814923" lon="9.7765323"><ele>5.0</ele><time>2026-04-17T10:50:42.931Z</time></trkpt><trkpt lat="40.5814358" lon="9.7764573"><ele>5.0</ele><time>2026-04-17T10:50:44.933Z</time></trkpt><trkpt lat="40.5813702" lon="9.7763879"><ele>5.0</ele><time>2026-04-17T10:50:46.934Z</time></trkpt><trkpt lat="40.5813142" lon="9.7763044"><ele>5.0</ele><time>2026-04-17T10:50:48.933Z</time></trkpt><trkpt lat="40.5813041" lon="9.7761897"><ele>5.0</ele><time>2026-04-17T10:50:50.933Z</time></trkpt><trkpt lat="40.5813496" lon="9.7760717"><ele>4.4</ele><time>2026-04-17T10:50:52.933Z</time></trkpt><trkpt lat="40.5813883" lon="9.775954"><ele>3.8</ele><time>2026-04-17T10:50:54.933Z</time></trkpt><trkpt lat="40.5814204" lon="9.7758349"><ele>3.2</ele><time>2026-04-17T10:50:56.932Z</time></trkpt><trkpt lat="40.581456" lon="9.7757118"><ele>2.6</ele><time>2026-04-17T10:50:58.932Z</time></trkpt><trkpt lat="40.581417" lon="9.7756001"><ele>2.0</ele><time>2026-04-17T10:51:00.933Z</time></trkpt><trkpt lat="40.5813242" lon="9.7755405"><ele>2.0</ele><time>2026-04-17T10:51:02.934Z</time></trkpt><trkpt lat="40.5812314" lon="9.7755035"><ele>2.0</ele><time>2026-04-17T10:51:04.932Z</time></trkpt><trkpt lat="40.5811428" lon="9.7754717"><ele>2.0</ele><time>2026-04-17T10:51:06.933Z</time></trkpt><trkpt lat="40.5810541" lon="9.7754305"><ele>2.0</ele><time>2026-04-17T10:51:08.933Z</time></trkpt><trkpt lat="40.5809694" lon="9.7754039"><ele>2.0</ele><time>2026-04-17T10:51:10.932Z</time></trkpt><trkpt lat="40.5808916" lon="9.7754587"><ele>3.2</ele><time>2026-04-17T10:51:12.933Z</time></trkpt><trkpt lat="40.5808548" lon="9.7755682"><ele>4.4</ele><time>2026-04-17T10:51:14.933Z</time></trkpt><trkpt lat="40.5808178" lon="9.7756888"><ele>5.6000000000000005</ele><time>2026-04-17T10:51:16.933Z</time></trkpt><trkpt lat="40.5807891" lon="9.7758027"><ele>6.800000000000001</ele><time>2026-04-17T10:51:18.932Z</time></trkpt><trkpt lat="40.5807581" lon="9.7759173"><ele>8.0</ele><time>2026-04-17T10:51:20.933Z</time></trkpt><trkpt lat="40.5807211" lon="9.7760328"><ele>8.166666666666666</ele><time>2026-04-17T10:51:22.933Z</time></trkpt><trkpt lat="40.580684" lon="9.7761375"><ele>8.333333333333332</ele><time>2026-04-17T10:51:24.934Z</time></trkpt><trkpt lat="40.5806558" lon="9.776254"><ele>8.5</ele><time>2026-04-17T10:51:26.933Z</time></trkpt><trkpt lat="40.5806072" lon="9.7763522"><ele>8.666666666666666</ele><time>2026-04-17T10:51:28.932Z</time></trkpt><trkpt lat="40.5805315" lon="9.7763869"><ele>8.833333333333334</ele><time>2026-04-17T10:51:30.932Z</time></trkpt><trkpt lat="40.5804674" lon="9.7763261"><ele>9.0</ele><time>2026-04-17T10:51:32.933Z</time></trkpt><trkpt lat="40.5803961" lon="9.7762392"><ele>9.8</ele><time>2026-04-17T10:51:34.933Z</time></trkpt><trkpt lat="40.5803333" lon="9.7761461"><ele>10.600000000000001</ele><time>2026-04-17T10:51:36.934Z</time></trkpt><trkpt lat="40.5802676" lon="9.7760414"><ele>11.4</ele><time>2026-04-17T10:51:38.932Z</time></trkpt><trkpt lat="40.5802035" lon="9.7759428"><ele>12.200000000000001</ele><time>2026-04-17T10:51:40.932Z</time></trkpt><trkpt lat="40.5801403" lon="9.7758274"><ele>13.0</ele><time>2026-04-17T10:51:42.932Z</time></trkpt><trkpt lat="40.5800706" lon="9.7757317"><ele>13.0</ele><time>2026-04-17T10:51:44.933Z</time></trkpt><trkpt lat="40.5800034" lon="9.7756301"><ele>13.0</ele><time>2026-04-17T10:51:46.934Z</time></trkpt><trkpt lat="40.5799469" lon="9.7755326"><ele>13.0</ele><time>2026-04-17T10:51:48.931Z</time></trkpt><trkpt lat="40.5798892" lon="9.775424"><ele>13.0</ele><time>2026-04-17T10:51:50.933Z</time></trkpt><trkpt lat="40.5798283" lon="9.7753194"><ele>13.0</ele><time>2026-04-17T10:51:52.934Z</time></trkpt><trkpt lat="40.5797764" lon="9.7752246"><ele>12.600000000000001</ele><time>2026-04-17T10:51:54.932Z</time></trkpt><trkpt lat="40.5797249" lon="9.7751296"><ele>12.200000000000001</ele><time>2026-04-17T10:51:56.932Z</time></trkpt><trkpt lat="40.5796659" lon="9.7750358"><ele>11.8</ele><time>2026-04-17T10:51:58.933Z</time></trkpt><trkpt lat="40.5796149" lon="9.7749444"><ele>11.4</ele><time>2026-04-17T10:52:00.933Z</time></trkpt><trkpt lat="40.5795537" lon="9.774852"><ele>11.0</ele><time>2026-04-17T10:52:02.932Z</time></trkpt><trkpt lat="40.5794913" lon="9.774758"><ele>11.333333333333332</ele><time>2026-04-17T10:52:04.933Z</time></trkpt><trkpt lat="40.5794445" lon="9.7746629"><ele>11.666666666666666</ele><time>2026-04-17T10:52:06.933Z</time></trkpt><trkpt lat="40.5793908" lon="9.7745753"><ele>12.0</ele><time>2026-04-17T10:52:08.933Z</time></trkpt><trkpt lat="40.5793426" lon="9.774485"><ele>12.333333333333332</ele><time>2026-04-17T10:52:10.932Z</time></trkpt><trkpt lat="40.5792884" lon="9.7744018"><ele>12.666666666666666</ele><time>2026-04-17T10:52:12.933Z</time></trkpt><trkpt lat="40.5792322" lon="9.77431"><ele>13.0</ele><time>2026-04-17T10:52:14.933Z</time></trkpt><trkpt lat="40.5791798" lon="9.7742242"><ele>13.0</ele><time>2026-04-17T10:52:16.932Z</time></trkpt><trkpt lat="40.5791319" lon="9.7741344"><ele>13.0</ele><time>2026-04-17T10:52:18.933Z</time></trkpt><trkpt lat="40.5790901" lon="9.7740393"><ele>13.0</ele><time>2026-04-17T10:52:20.933Z</time></trkpt><trkpt lat="40.5790381" lon="9.7739424"><ele>13.0</ele><time>2026-04-17T10:52:22.932Z</time></trkpt><trkpt lat="40.5789737" lon="9.7738487"><ele>13.0</ele><time>2026-04-17T10:52:24.932Z</time></trkpt><trkpt lat="40.5789088" lon="9.77375"><ele>13.0</ele><time>2026-04-17T10:52:26.934Z</time></trkpt><trkpt lat="40.5788438" lon="9.7736499"><ele>13.0</ele><time>2026-04-17T10:52:28.933Z</time></trkpt><trkpt lat="40.5787797" lon="9.7735383"><ele>13.0</ele><time>2026-04-17T10:52:30.932Z</time></trkpt><trkpt lat="40.5787147" lon="9.7734211"><ele>13.0</ele><time>2026-04-17T10:52:32.931Z</time></trkpt><trkpt lat="40.5786457" lon="9.7733075"><ele>13.0</ele><time>2026-04-17T10:52:34.932Z</time></trkpt><trkpt lat="40.5785764" lon="9.7731885"><ele>12.200000000000001</ele><time>2026-04-17T10:52:36.932Z</time></trkpt><trkpt lat="40.5785092" lon="9.7730663"><ele>11.4</ele><time>2026-04-17T10:52:38.934Z</time></trkpt><trkpt lat="40.5784358" lon="9.7729423"><ele>10.600000000000001</ele><time>2026-04-17T10:52:40.933Z</time></trkpt><trkpt lat="40.5783728" lon="9.7728303"><ele>9.8</ele><time>2026-04-17T10:52:42.932Z</time></trkpt><trkpt lat="40.5783107" lon="9.7727227"><ele>9.0</ele><time>2026-04-17T10:52:44.932Z</time></trkpt><trkpt lat="40.5782467" lon="9.7726176"><ele>8.8</ele><time>2026-04-17T10:52:46.934Z</time></trkpt><trkpt lat="40.5781849" lon="9.7725171"><ele>8.600000000000001</ele><time>2026-04-17T10:52:48.932Z</time></trkpt><trkpt lat="40.5781295" lon="9.7724163"><ele>8.4</ele><time>2026-04-17T10:52:50.933Z</time></trkpt><trkpt lat="40.5780745" lon="9.7723105"><ele>8.200000000000001</ele><time>2026-04-17T10:52:52.932Z</time></trkpt><trkpt lat="40.5780225" lon="9.7722168"><ele>8.0</ele><time>2026-04-17T10:52:54.933Z</time></trkpt><trkpt lat="40.5779658" lon="9.7721239"><ele>8.0</ele><time>2026-04-17T10:52:56.933Z</time></trkpt><trkpt lat="40.5779023" lon="9.7720215"><ele>8.0</ele><time>2026-04-17T10:52:58.932Z</time></trkpt><trkpt lat="40.5778506" lon="9.7719177"><ele>8.0</ele><time>2026-04-17T10:53:00.933Z</time></trkpt><trkpt lat="40.5778024" lon="9.7718144"><ele>8.0</ele><time>2026-04-17T10:53:02.933Z</time></trkpt><trkpt lat="40.5777567" lon="9.7717101"><ele>8.0</ele><time>2026-04-17T10:53:04.932Z</time></trkpt><trkpt lat="40.5777114" lon="9.771605"><ele>7.999999999999999</ele><time>2026-04-17T10:53:06.931Z</time></trkpt><trkpt lat="40.5776644" lon="9.7714977"><ele>8.0</ele><time>2026-04-17T10:53:08.934Z</time></trkpt><trkpt lat="40.5776221" lon="9.771393"><ele>8.0</ele><time>2026-04-17T10:53:10.933Z</time></trkpt><trkpt lat="40.5775799" lon="9.7712973"><ele>8.0</ele><time>2026-04-17T10:53:12.932Z</time></trkpt><trkpt lat="40.5775466" lon="9.7712038"><ele>7.999999999999999</ele><time>2026-04-17T10:53:14.933Z</time></trkpt><trkpt lat="40.5775111" lon="9.7711032"><ele>8.0</ele><time>2026-04-17T10:53:16.932Z</time></trkpt><trkpt lat="40.5774777" lon="9.7710071"><ele>7.666666666666666</ele><time>2026-04-17T10:53:18.932Z</time></trkpt><trkpt lat="40.5774381" lon="9.7709045"><ele>7.333333333333333</ele><time>2026-04-17T10:53:20.933Z</time></trkpt><trkpt lat="40.5773954" lon="9.7708004"><ele>7.0</ele><time>2026-04-17T10:53:22.933Z</time></trkpt><trkpt lat="40.5773637" lon="9.7706945"><ele>6.666666666666666</ele><time>2026-04-17T10:53:24.934Z</time></trkpt><trkpt lat="40.5773308" lon="9.770585"><ele>6.333333333333333</ele><time>2026-04-17T10:53:26.933Z</time></trkpt><trkpt lat="40.5772918" lon="9.7704814"><ele>6.0</ele><time>2026-04-17T10:53:28.932Z</time></trkpt><trkpt lat="40.5772545" lon="9.7703668"><ele>6.0</ele><time>2026-04-17T10:53:30.932Z</time></trkpt><trkpt lat="40.5772154" lon="9.7702456"><ele>6.0</ele><time>2026-04-17T10:53:32.932Z</time></trkpt><trkpt lat="40.5771616" lon="9.7701189"><ele>6.0</ele><time>2026-04-17T10:53:34.932Z</time></trkpt><trkpt lat="40.5771279" lon="9.7699925"><ele>6.0</ele><time>2026-04-17T10:53:36.933Z</time></trkpt><trkpt lat="40.577083" lon="9.7698738"><ele>6.0</ele><time>2026-04-17T10:53:38.933Z</time></trkpt><trkpt lat="40.5770405" lon="9.7697573"><ele>6.199999999999999</ele><time>2026-04-17T10:53:40.933Z</time></trkpt><trkpt lat="40.5770034" lon="9.769652"><ele>6.3999999999999995</ele><time>2026-04-17T10:53:42.933Z</time></trkpt><trkpt lat="40.5769616" lon="9.7695283"><ele>6.6</ele><time>2026-04-17T10:53:44.931Z</time></trkpt><trkpt lat="40.5769208" lon="9.7694151"><ele>6.8</ele><time>2026-04-17T10:53:46.933Z</time></trkpt><trkpt lat="40.5768883" lon="9.7693106"><ele>7.0</ele><time>2026-04-17T10:53:48.932Z</time></trkpt><trkpt lat="40.5768526" lon="9.7692064"><ele>7.3999999999999995</ele><time>2026-04-17T10:53:50.933Z</time></trkpt><trkpt lat="40.576816" lon="9.769102"><ele>7.799999999999999</ele><time>2026-04-17T10:53:52.932Z</time></trkpt><trkpt lat="40.5767796" lon="9.7689946"><ele>8.2</ele><time>2026-04-17T10:53:54.933Z</time></trkpt><trkpt lat="40.5767409" lon="9.7688889"><ele>8.6</ele><time>2026-04-17T10:53:56.933Z</time></trkpt><trkpt lat="40.5766948" lon="9.7687836"><ele>9.0</ele><time>2026-04-17T10:53:58.932Z</time></trkpt><trkpt lat="40.5766542" lon="9.7686679"><ele>9.0</ele><time>2026-04-17T10:54:00.933Z</time></trkpt><trkpt lat="40.5766123" lon="9.7685692"><ele>9.0</ele><time>2026-04-17T10:54:02.933Z</time></trkpt><trkpt lat="40.5765773" lon="9.7684738"><ele>9.0</ele><time>2026-04-17T10:54:04.933Z</time></trkpt><trkpt lat="40.5765468" lon="9.7683704"><ele>9.0</ele><time>2026-04-17T10:54:06.934Z</time></trkpt><trkpt lat="40.5765152" lon="9.7682622"><ele>9.0</ele><time>2026-04-17T10:54:08.931Z</time></trkpt><trkpt lat="40.5764809" lon="9.7681543"><ele>9.0</ele><time>2026-04-17T10:54:10.931Z</time></trkpt><trkpt lat="40.5764387" lon="9.7680501"><ele>9.0</ele><time>2026-04-17T10:54:12.933Z</time></trkpt><trkpt lat="40.5764022" lon="9.7679554"><ele>9.0</ele><time>2026-04-17T10:54:14.934Z</time></trkpt><trkpt lat="40.5763647" lon="9.7678526"><ele>9.0</ele><time>2026-04-17T10:54:16.933Z</time></trkpt><trkpt lat="40.5763257" lon="9.7677496"><ele>9.0</ele><time>2026-04-17T10:54:18.932Z</time></trkpt><trkpt lat="40.5762911" lon="9.7676492"><ele>9.0</ele><time>2026-04-17T10:54:20.932Z</time></trkpt><trkpt lat="40.5762552" lon="9.7675502"><ele>9.0</ele><time>2026-04-17T10:54:22.933Z</time></trkpt><trkpt lat="40.5762164" lon="9.7674426"><ele>9.666666666666666</ele><time>2026-04-17T10:54:24.932Z</time></trkpt><trkpt lat="40.5761766" lon="9.7673367"><ele>10.333333333333332</ele><time>2026-04-17T10:54:26.932Z</time></trkpt><trkpt lat="40.5761435" lon="9.7672364"><ele>11.0</ele><time>2026-04-17T10:54:28.932Z</time></trkpt><trkpt lat="40.5761086" lon="9.7671327"><ele>11.666666666666666</ele><time>2026-04-17T10:54:30.932Z</time></trkpt><trkpt lat="40.5760756" lon="9.767028"><ele>12.333333333333332</ele><time>2026-04-17T10:54:32.933Z</time></trkpt><trkpt lat="40.5760385" lon="9.7669228"><ele>13.0</ele><time>2026-04-17T10:54:34.931Z</time></trkpt><trkpt lat="40.5759993" lon="9.7668146"><ele>12.999999999999998</ele><time>2026-04-17T10:54:36.932Z</time></trkpt><trkpt lat="40.5759674" lon="9.7667144"><ele>13.0</ele><time>2026-04-17T10:54:38.931Z</time></trkpt><trkpt lat="40.5759329" lon="9.7666122"><ele>13.0</ele><time>2026-04-17T10:54:40.932Z</time></trkpt><trkpt lat="40.5758955" lon="9.7665085"><ele>13.0</ele><time>2026-04-17T10:54:42.933Z</time></trkpt><trkpt lat="40.5758609" lon="9.7664067"><ele>12.999999999999998</ele><time>2026-04-17T10:54:44.934Z</time></trkpt><trkpt lat="40.575832" lon="9.7662936"><ele>13.0</ele><time>2026-04-17T10:54:46.932Z</time></trkpt><trkpt lat="40.5758048" lon="9.7661846"><ele>12.999999999999998</ele><time>2026-04-17T10:54:48.933Z</time></trkpt><trkpt lat="40.5757765" lon="9.7660819"><ele>13.0</ele><time>2026-04-17T10:54:50.932Z</time></trkpt><trkpt lat="40.5757427" lon="9.7659786"><ele>13.0</ele><time>2026-04-17T10:54:52.933Z</time></trkpt><trkpt lat="40.5757004" lon="9.7658804"><ele>13.0</ele><time>2026-04-17T10:54:54.933Z</time></trkpt><trkpt lat="40.5756508" lon="9.7657927"><ele>12.999999999999998</ele><time>2026-04-17T10:54:56.934Z</time></trkpt><trkpt lat="40.5756156" lon="9.7656978"><ele>13.0</ele><time>2026-04-17T10:54:58.933Z</time></trkpt><trkpt lat="40.5755903" lon="9.7655988"><ele>12.166666666666666</ele><time>2026-04-17T10:55:00.931Z</time></trkpt><trkpt lat="40.575575" lon="9.7654936"><ele>11.333333333333332</ele><time>2026-04-17T10:55:02.932Z</time></trkpt><trkpt lat="40.5755698" lon="9.7653752"><ele>10.5</ele><time>2026-04-17T10:55:04.933Z</time></trkpt><trkpt lat="40.5755638" lon="9.7652589"><ele>9.666666666666666</ele><time>2026-04-17T10:55:06.932Z</time></trkpt><trkpt lat="40.575557" lon="9.7651415"><ele>8.833333333333332</ele><time>2026-04-17T10:55:08.932Z</time></trkpt><trkpt lat="40.5755456" lon="9.7650162"><ele>8.0</ele><time>2026-04-17T10:55:10.932Z</time></trkpt><trkpt lat="40.5755397" lon="9.764892"><ele>7.666666666666666</ele><time>2026-04-17T10:55:12.932Z</time></trkpt><trkpt lat="40.5755324" lon="9.7647737"><ele>7.333333333333333</ele><time>2026-04-17T10:55:14.932Z</time></trkpt><trkpt lat="40.5755295" lon="9.7646487"><ele>7.0</ele><time>2026-04-17T10:55:16.933Z</time></trkpt><trkpt lat="40.5755213" lon="9.764537"><ele>6.666666666666666</ele><time>2026-04-17T10:55:18.932Z</time></trkpt><trkpt lat="40.5755146" lon="9.7644253"><ele>6.333333333333333</ele><time>2026-04-17T10:55:20.932Z</time></trkpt><trkpt lat="40.5755112" lon="9.7643091"><ele>6.0</ele><time>2026-04-17T10:55:22.932Z</time></trkpt><trkpt lat="40.5754968" lon="9.7641988"><ele>5.8</ele><time>2026-04-17T10:55:24.932Z</time></trkpt><trkpt lat="40.5754733" lon="9.7640859"><ele>5.6</ele><time>2026-04-17T10:55:26.934Z</time></trkpt><trkpt lat="40.5754482" lon="9.7639644"><ele>5.4</ele><time>2026-04-17T10:55:28.934Z</time></trkpt><trkpt lat="40.5754083" lon="9.7638453"><ele>5.2</ele><time>2026-04-17T10:55:30.932Z</time></trkpt><trkpt lat="40.5753635" lon="9.763726"><ele>5.0</ele><time>2026-04-17T10:55:32.932Z</time></trkpt><trkpt lat="40.5753444" lon="9.7635878"><ele>5.0</ele><time>2026-04-17T10:55:34.932Z</time></trkpt><trkpt lat="40.5753606" lon="9.7634449"><ele>5.0</ele><time>2026-04-17T10:55:36.933Z</time></trkpt><trkpt lat="40.5753976" lon="9.763289"><ele>5.0</ele><time>2026-04-17T10:55:38.932Z</time></trkpt><trkpt lat="40.5754185" lon="9.7632104"><ele>5.0</ele><time>2026-04-17T10:55:39.933Z</time></trkpt><trkpt lat="40.5754664" lon="9.7630596"><ele>5.0</ele><time>2026-04-17T10:55:41.932Z</time></trkpt><trkpt lat="40.5755515" lon="9.762947"><ele>5.0</ele><time>2026-04-17T10:55:43.932Z</time></trkpt><trkpt lat="40.5756712" lon="9.7628999"><ele>5.0</ele><time>2026-04-17T10:55:45.932Z</time></trkpt><trkpt lat="40.5757948" lon="9.7628968"><ele>5.0</ele><time>2026-04-17T10:55:47.932Z</time></trkpt><trkpt lat="40.5759103" lon="9.7629121"><ele>5.0</ele><time>2026-04-17T10:55:49.933Z</time></trkpt><trkpt lat="40.576014" lon="9.7629308"><ele>5.0</ele><time>2026-04-17T10:55:51.933Z</time></trkpt><trkpt lat="40.5761095" lon="9.7629466"><ele>5.0</ele><time>2026-04-17T10:55:53.933Z</time></trkpt><trkpt lat="40.5761973" lon="9.7629646"><ele>5.0</ele><time>2026-04-17T10:55:55.931Z</time></trkpt><trkpt lat="40.5762829" lon="9.7629808"><ele>5.0</ele><time>2026-04-17T10:55:57.931Z</time></trkpt><trkpt lat="40.5763698" lon="9.7629955"><ele>5.0</ele><time>2026-04-17T10:55:59.932Z</time></trkpt><trkpt lat="40.5764614" lon="9.7630151"><ele>4.8</ele><time>2026-04-17T10:56:01.932Z</time></trkpt><trkpt lat="40.5765553" lon="9.7630283"><ele>4.6</ele><time>2026-04-17T10:56:03.932Z</time></trkpt><trkpt lat="40.576648" lon="9.763042"><ele>4.4</ele><time>2026-04-17T10:56:05.932Z</time></trkpt><trkpt lat="40.5767422" lon="9.7630585"><ele>4.2</ele><time>2026-04-17T10:56:07.932Z</time></trkpt><trkpt lat="40.5768327" lon="9.763072"><ele>4.0</ele><time>2026-04-17T10:56:09.931Z</time></trkpt><trkpt lat="40.5769227" lon="9.7630855"><ele>3.9999999999999996</ele><time>2026-04-17T10:56:11.931Z</time></trkpt><trkpt lat="40.5770066" lon="9.7631069"><ele>4.0</ele><time>2026-04-17T10:56:13.933Z</time></trkpt><trkpt lat="40.5770915" lon="9.7631267"><ele>4.0</ele><time>2026-04-17T10:56:15.933Z</time></trkpt><trkpt lat="40.5771836" lon="9.7631391"><ele>4.0</ele><time>2026-04-17T10:56:17.933Z</time></trkpt><trkpt lat="40.5772756" lon="9.763152"><ele>3.9999999999999996</ele><time>2026-04-17T10:56:19.933Z</time></trkpt><trkpt lat="40.5773633" lon="9.7631695"><ele>4.0</ele><time>2026-04-17T10:56:21.933Z</time></trkpt><trkpt lat="40.5774546" lon="9.7631825"><ele>4.4</ele><time>2026-04-17T10:56:23.934Z</time></trkpt><trkpt lat="40.5775487" lon="9.7631957"><ele>4.800000000000001</ele><time>2026-04-17T10:56:25.933Z</time></trkpt><trkpt lat="40.5776418" lon="9.7632152"><ele>5.199999999999999</ele><time>2026-04-17T10:56:27.932Z</time></trkpt><trkpt lat="40.5777371" lon="9.7632348"><ele>5.6</ele><time>2026-04-17T10:56:29.933Z</time></trkpt><trkpt lat="40.5778349" lon="9.7632512"><ele>6.0</ele><time>2026-04-17T10:56:31.932Z</time></trkpt><trkpt lat="40.5779334" lon="9.7632688"><ele>6.4</ele><time>2026-04-17T10:56:33.933Z</time></trkpt><trkpt lat="40.5780254" lon="9.7632881"><ele>6.8</ele><time>2026-04-17T10:56:35.932Z</time></trkpt><trkpt lat="40.5781152" lon="9.7633031"><ele>7.200000000000001</ele><time>2026-04-17T10:56:37.933Z</time></trkpt><trkpt lat="40.5782025" lon="9.7633159"><ele>7.6000000000000005</ele><time>2026-04-17T10:56:39.932Z</time></trkpt><trkpt lat="40.5782933" lon="9.7633376"><ele>8.0</ele><time>2026-04-17T10:56:41.931Z</time></trkpt><trkpt lat="40.5783858" lon="9.7633525"><ele>8.0</ele><time>2026-04-17T10:56:43.933Z</time></trkpt><trkpt lat="40.5784815" lon="9.7633698"><ele>8.0</ele><time>2026-04-17T10:56:45.932Z</time></trkpt><trkpt lat="40.5785824" lon="9.7633831"><ele>8.0</ele><time>2026-04-17T10:56:47.933Z</time></trkpt><trkpt lat="40.5786796" lon="9.7633986"><ele>8.0</ele><time>2026-04-17T10:56:49.932Z</time></trkpt><trkpt lat="40.5787911" lon="9.7634154"><ele>8.0</ele><time>2026-04-17T10:56:51.931Z</time></trkpt><trkpt lat="40.5788988" lon="9.763435"><ele>7.800000000000001</ele><time>2026-04-17T10:56:53.931Z</time></trkpt><trkpt lat="40.5790074" lon="9.7634563"><ele>7.6000000000000005</ele><time>2026-04-17T10:56:55.932Z</time></trkpt><trkpt lat="40.5791128" lon="9.7634744"><ele>7.3999999999999995</ele><time>2026-04-17T10:56:57.931Z</time></trkpt><trkpt lat="40.5792187" lon="9.763497"><ele>7.199999999999999</ele><time>2026-04-17T10:56:59.933Z</time></trkpt><trkpt lat="40.5793165" lon="9.7635178"><ele>7.0</ele><time>2026-04-17T10:57:01.932Z</time></trkpt><trkpt lat="40.5794149" lon="9.7635314"><ele>7.0</ele><time>2026-04-17T10:57:03.933Z</time></trkpt><trkpt lat="40.5795101" lon="9.7635457"><ele>6.999999999999999</ele><time>2026-04-17T10:57:05.932Z</time></trkpt><trkpt lat="40.5796079" lon="9.7635628"><ele>6.999999999999999</ele><time>2026-04-17T10:57:07.934Z</time></trkpt><trkpt lat="40.579703" lon="9.7635799"><ele>7.0</ele><time>2026-04-17T10:57:09.932Z</time></trkpt><trkpt lat="40.5797994" lon="9.7635971"><ele>7.0</ele><time>2026-04-17T10:57:11.931Z</time></trkpt><trkpt lat="40.5798968" lon="9.7636125"><ele>7.199999999999999</ele><time>2026-04-17T10:57:13.931Z</time></trkpt><trkpt lat="40.5799915" lon="9.7636311"><ele>7.3999999999999995</ele><time>2026-04-17T10:57:15.932Z</time></trkpt><trkpt lat="40.580088" lon="9.76364"><ele>7.6000000000000005</ele><time>2026-04-17T10:57:17.932Z</time></trkpt><trkpt lat="40.580185" lon="9.7636605"><ele>7.800000000000001</ele><time>2026-04-17T10:57:19.933Z</time></trkpt><trkpt lat="40.580278" lon="9.7636811"><ele>8.0</ele><time>2026-04-17T10:57:21.933Z</time></trkpt><trkpt lat="40.5803686" lon="9.7636992"><ele>8.4</ele><time>2026-04-17T10:57:23.931Z</time></trkpt><trkpt lat="40.5804603" lon="9.7637153"><ele>8.8</ele><time>2026-04-17T10:57:25.931Z</time></trkpt><trkpt lat="40.5805527" lon="9.7637336"><ele>9.2</ele><time>2026-04-17T10:57:27.932Z</time></trkpt><trkpt lat="40.5806464" lon="9.7637481"><ele>9.6</ele><time>2026-04-17T10:57:29.931Z</time></trkpt><trkpt lat="40.5807352" lon="9.7637567"><ele>10.0</ele><time>2026-04-17T10:57:31.933Z</time></trkpt><trkpt lat="40.5808272" lon="9.763771"><ele>10.0</ele><time>2026-04-17T10:57:33.933Z</time></trkpt><trkpt lat="40.5809203" lon="9.7637817"><ele>10.0</ele><time>2026-04-17T10:57:35.931Z</time></trkpt><trkpt lat="40.5810164" lon="9.7637875"><ele>10.0</ele><time>2026-04-17T10:57:37.933Z</time></trkpt><trkpt lat="40.5811116" lon="9.7637478"><ele>10.0</ele><time>2026-04-17T10:57:39.932Z</time></trkpt><trkpt lat="40.5811973" lon="9.7636589"><ele>10.0</ele><time>2026-04-17T10:57:41.934Z</time></trkpt><trkpt lat="40.5812552" lon="9.7635338"><ele>10.2</ele><time>2026-04-17T10:57:43.932Z</time></trkpt><trkpt lat="40.5813016" lon="9.7634083"><ele>10.4</ele><time>2026-04-17T10:57:45.932Z</time></trkpt><trkpt lat="40.5813441" lon="9.7632842"><ele>10.600000000000001</ele><time>2026-04-17T10:57:47.933Z</time></trkpt><trkpt lat="40.5813863" lon="9.7631582"><ele>10.8</ele><time>2026-04-17T10:57:49.932Z</time></trkpt><trkpt lat="40.5814345" lon="9.7630385"><ele>11.0</ele><time>2026-04-17T10:57:51.932Z</time></trkpt><trkpt lat="40.5814811" lon="9.7629183"><ele>11.0</ele><time>2026-04-17T10:57:53.933Z</time></trkpt><trkpt lat="40.5815243" lon="9.7628035"><ele>11.0</ele><time>2026-04-17T10:57:55.933Z</time></trkpt><trkpt lat="40.5815652" lon="9.7626863"><ele>11.0</ele><time>2026-04-17T10:57:57.932Z</time></trkpt><trkpt lat="40.5816066" lon="9.7625773"><ele>11.0</ele><time>2026-04-17T10:57:59.931Z</time></trkpt><trkpt lat="40.5816479" lon="9.7624793"><ele>11.0</ele><time>2026-04-17T10:58:01.931Z</time></trkpt><trkpt lat="40.5816825" lon="9.7623791"><ele>11.200000000000001</ele><time>2026-04-17T10:58:03.933Z</time></trkpt><trkpt lat="40.5817248" lon="9.7622751"><ele>11.4</ele><time>2026-04-17T10:58:05.934Z</time></trkpt><trkpt lat="40.5817649" lon="9.7621702"><ele>11.6</ele><time>2026-04-17T10:58:07.932Z</time></trkpt><trkpt lat="40.5818179" lon="9.7620744"><ele>11.8</ele><time>2026-04-17T10:58:09.932Z</time></trkpt><trkpt lat="40.5818687" lon="9.7619676"><ele>12.0</ele><time>2026-04-17T10:58:11.932Z</time></trkpt><trkpt lat="40.581924" lon="9.7618742"><ele>12.6</ele><time>2026-04-17T10:58:13.932Z</time></trkpt><trkpt lat="40.5819919" lon="9.7617855"><ele>13.2</ele><time>2026-04-17T10:58:15.933Z</time></trkpt><trkpt lat="40.5820624" lon="9.7616952"><ele>13.8</ele><time>2026-04-17T10:58:17.933Z</time></trkpt><trkpt lat="40.5821286" lon="9.7616011"><ele>14.4</ele><time>2026-04-17T10:58:19.932Z</time></trkpt><trkpt lat="40.5821621" lon="9.7614856"><ele>15.0</ele><time>2026-04-17T10:58:21.932Z</time></trkpt><trkpt lat="40.5821628" lon="9.7613633"><ele>14.0</ele><time>2026-04-17T10:58:23.931Z</time></trkpt><trkpt lat="40.5821718" lon="9.7612467"><ele>13.0</ele><time>2026-04-17T10:58:25.933Z</time></trkpt><trkpt lat="40.5821923" lon="9.7611309"><ele>12.0</ele><time>2026-04-17T10:58:27.931Z</time></trkpt><trkpt lat="40.5822142" lon="9.7610215"><ele>11.0</ele><time>2026-04-17T10:58:29.932Z</time></trkpt><trkpt lat="40.5822507" lon="9.7609172"><ele>10.0</ele><time>2026-04-17T10:58:31.932Z</time></trkpt><trkpt lat="40.5822897" lon="9.7608114"><ele>9.0</ele><time>2026-04-17T10:58:33.932Z</time></trkpt><trkpt lat="40.582331" lon="9.7607076"><ele>9.0</ele><time>2026-04-17T10:58:35.932Z</time></trkpt><trkpt lat="40.5823711" lon="9.7606049"><ele>9.0</ele><time>2026-04-17T10:58:37.933Z</time></trkpt><trkpt lat="40.5824114" lon="9.7605054"><ele>9.0</ele><time>2026-04-17T10:58:39.931Z</time></trkpt><trkpt lat="40.5824507" lon="9.7604093"><ele>9.0</ele><time>2026-04-17T10:58:41.931Z</time></trkpt><trkpt lat="40.5824912" lon="9.7603117"><ele>9.0</ele><time>2026-04-17T10:58:43.933Z</time></trkpt><trkpt lat="40.5825263" lon="9.7602157"><ele>9.0</ele><time>2026-04-17T10:58:45.933Z</time></trkpt><trkpt lat="40.5825649" lon="9.7601222"><ele>9.833333333333334</ele><time>2026-04-17T10:58:47.932Z</time></trkpt><trkpt lat="40.5826026" lon="9.7600287"><ele>10.666666666666668</ele><time>2026-04-17T10:58:49.932Z</time></trkpt><trkpt lat="40.582634" lon="9.7599502"><ele>11.5</ele><time>2026-04-17T10:58:51.933Z</time></trkpt><trkpt lat="40.5826734" lon="9.7598685"><ele>12.333333333333334</ele><time>2026-04-17T10:59:23.932Z</time></trkpt><trkpt lat="40.5826987" lon="9.7597313"><ele>13.166666666666668</ele><time>2026-04-17T10:59:26.932Z</time></trkpt><trkpt lat="40.5827361" lon="9.7596587"><ele>14.0</ele><time>2026-04-17T10:59:28.931Z</time></trkpt><trkpt lat="40.5827683" lon="9.7595803"><ele>14.000000000000002</ele><time>2026-04-17T10:59:30.934Z</time></trkpt><trkpt lat="40.5828042" lon="9.7594979"><ele>14.0</ele><time>2026-04-17T10:59:32.933Z</time></trkpt><trkpt lat="40.5828332" lon="9.7594076"><ele>14.0</ele><time>2026-04-17T10:59:34.933Z</time></trkpt><trkpt lat="40.5828642" lon="9.7593178"><ele>14.0</ele><time>2026-04-17T10:59:36.933Z</time></trkpt><trkpt lat="40.5828993" lon="9.7592303"><ele>14.000000000000002</ele><time>2026-04-17T10:59:38.932Z</time></trkpt><trkpt lat="40.5829296" lon="9.7591381"><ele>14.0</ele><time>2026-04-17T10:59:40.933Z</time></trkpt><trkpt lat="40.5829447" lon="9.7590336"><ele>13.399999999999999</ele><time>2026-04-17T10:59:42.933Z</time></trkpt><trkpt lat="40.5830038" lon="9.7587735"><ele>12.799999999999999</ele><time>2026-04-17T10:59:44.932Z</time></trkpt><trkpt lat="40.5830124" lon="9.7586632"><ele>12.2</ele><time>2026-04-17T10:59:46.933Z</time></trkpt><trkpt lat="40.5829613" lon="9.7586126"><ele>11.600000000000001</ele><time>2026-04-17T10:59:50.932Z</time></trkpt><trkpt lat="40.5829592" lon="9.7584902"><ele>11.0</ele><time>2026-04-17T10:59:52.931Z</time></trkpt><trkpt lat="40.5829619" lon="9.7583714"><ele>10.833333333333332</ele><time>2026-04-17T10:59:54.932Z</time></trkpt><trkpt lat="40.5829574" lon="9.7582573"><ele>10.666666666666666</ele><time>2026-04-17T10:59:56.931Z</time></trkpt><trkpt lat="40.5829548" lon="9.7581421"><ele>10.5</ele><time>2026-04-17T10:59:58.934Z</time></trkpt><trkpt lat="40.5829648" lon="9.7580307"><ele>10.333333333333334</ele><time>2026-04-17T11:00:00.933Z</time></trkpt><trkpt lat="40.5829635" lon="9.7579199"><ele>10.166666666666668</ele><time>2026-04-17T11:00:02.933Z</time></trkpt><trkpt lat="40.5829612" lon="9.7578098"><ele>10.0</ele><time>2026-04-17T11:00:04.935Z</time></trkpt><trkpt lat="40.5829563" lon="9.7577057"><ele>10.0</ele><time>2026-04-17T11:00:06.932Z</time></trkpt><trkpt lat="40.5829552" lon="9.7575996"><ele>10.0</ele><time>2026-04-17T11:00:08.932Z</time></trkpt><trkpt lat="40.582958" lon="9.7574926"><ele>10.0</ele><time>2026-04-17T11:00:10.933Z</time></trkpt><trkpt lat="40.582956" lon="9.757385"><ele>10.0</ele><time>2026-04-17T11:00:12.932Z</time></trkpt><trkpt lat="40.5829524" lon="9.7572834"><ele>10.0</ele><time>2026-04-17T11:00:14.932Z</time></trkpt><trkpt lat="40.5829575" lon="9.7571811"><ele>10.0</ele><time>2026-04-17T11:00:16.931Z</time></trkpt><trkpt lat="40.5829638" lon="9.7570755"><ele>10.0</ele><time>2026-04-17T11:00:18.931Z</time></trkpt><trkpt lat="40.5829619" lon="9.7569677"><ele>10.0</ele><time>2026-04-17T11:00:20.933Z</time></trkpt><trkpt lat="40.5829596" lon="9.7568584"><ele>10.0</ele><time>2026-04-17T11:00:22.932Z</time></trkpt><trkpt lat="40.5829532" lon="9.7567578"><ele>10.0</ele><time>2026-04-17T11:00:24.933Z</time></trkpt><trkpt lat="40.5829394" lon="9.7566608"><ele>10.0</ele><time>2026-04-17T11:00:26.933Z</time></trkpt><trkpt lat="40.5829195" lon="9.7565631"><ele>10.0</ele><time>2026-04-17T11:00:28.932Z</time></trkpt><trkpt lat="40.5828973" lon="9.756464"><ele>9.833333333333334</ele><time>2026-04-17T11:00:30.931Z</time></trkpt><trkpt lat="40.5828623" lon="9.7563681"><ele>9.666666666666668</ele><time>2026-04-17T11:00:32.932Z</time></trkpt><trkpt lat="40.5828242" lon="9.7562752"><ele>9.5</ele><time>2026-04-17T11:00:34.931Z</time></trkpt><trkpt lat="40.5827785" lon="9.7561897"><ele>9.333333333333334</ele><time>2026-04-17T11:00:36.932Z</time></trkpt><trkpt lat="40.5827381" lon="9.7560948"><ele>9.166666666666666</ele><time>2026-04-17T11:00:38.906Z</time></trkpt><trkpt lat="40.5826996" lon="9.7559906"><ele>9.0</ele><time>2026-04-17T11:00:40.932Z</time></trkpt><trkpt lat="40.5826655" lon="9.7558878"><ele>11.333333333333334</ele><time>2026-04-17T11:00:42.932Z</time></trkpt><trkpt lat="40.5826489" lon="9.7557749"><ele>13.666666666666668</ele><time>2026-04-17T11:00:44.932Z</time></trkpt><trkpt lat="40.5826373" lon="9.7556713"><ele>16.0</ele><time>2026-04-17T11:00:46.933Z</time></trkpt><trkpt lat="40.5826227" lon="9.7555659"><ele>18.333333333333336</ele><time>2026-04-17T11:00:48.931Z</time></trkpt><trkpt lat="40.5826112" lon="9.7554561"><ele>20.666666666666668</ele><time>2026-04-17T11:00:50.936Z</time></trkpt><trkpt lat="40.5826089" lon="9.7553489"><ele>23.0</ele><time>2026-04-17T11:00:52.933Z</time></trkpt><trkpt lat="40.5826048" lon="9.7552414"><ele>22.333333333333336</ele><time>2026-04-17T11:00:54.933Z</time></trkpt><trkpt lat="40.5825913" lon="9.7551359"><ele>21.666666666666668</ele><time>2026-04-17T11:00:56.933Z</time></trkpt><trkpt lat="40.5825791" lon="9.7550291"><ele>21.0</ele><time>2026-04-17T11:00:58.933Z</time></trkpt><trkpt lat="40.5825658" lon="9.7549192"><ele>20.333333333333332</ele><time>2026-04-17T11:01:00.931Z</time></trkpt><trkpt lat="40.5825608" lon="9.7548043"><ele>19.666666666666664</ele><time>2026-04-17T11:01:02.932Z</time></trkpt><trkpt lat="40.5825522" lon="9.7546902"><ele>19.0</ele><time>2026-04-17T11:01:04.931Z</time></trkpt><trkpt lat="40.5825415" lon="9.7545815"><ele>19.0</ele><time>2026-04-17T11:01:06.932Z</time></trkpt><trkpt lat="40.5825315" lon="9.754478"><ele>19.0</ele><time>2026-04-17T11:01:08.932Z</time></trkpt><trkpt lat="40.5825258" lon="9.7543745"><ele>19.0</ele><time>2026-04-17T11:01:10.932Z</time></trkpt><trkpt lat="40.5825158" lon="9.7542703"><ele>19.0</ele><time>2026-04-17T11:01:12.932Z</time></trkpt><trkpt lat="40.5825052" lon="9.7541668"><ele>19.0</ele><time>2026-04-17T11:01:14.916Z</time></trkpt><trkpt lat="40.5825052" lon="9.7540619"><ele>19.0</ele><time>2026-04-17T11:01:16.932Z</time></trkpt><trkpt lat="40.5824937" lon="9.7539567"><ele>18.666666666666664</ele><time>2026-04-17T11:01:18.931Z</time></trkpt><trkpt lat="40.5824807" lon="9.7538516"><ele>18.333333333333332</ele><time>2026-04-17T11:01:20.932Z</time></trkpt><trkpt lat="40.5824662" lon="9.7537399"><ele>18.0</ele><time>2026-04-17T11:01:22.931Z</time></trkpt><trkpt lat="40.5824386" lon="9.7536294"><ele>17.666666666666668</ele><time>2026-04-17T11:01:24.931Z</time></trkpt><trkpt lat="40.5824123" lon="9.7535068"><ele>17.333333333333336</ele><time>2026-04-17T11:01:26.932Z</time></trkpt><trkpt lat="40.5823899" lon="9.7533838"><ele>17.0</ele><time>2026-04-17T11:01:28.933Z</time></trkpt><trkpt lat="40.5823585" lon="9.7532606"><ele>16.6</ele><time>2026-04-17T11:01:30.931Z</time></trkpt><trkpt lat="40.5823265" lon="9.7531356"><ele>16.2</ele><time>2026-04-17T11:01:32.933Z</time></trkpt><trkpt lat="40.5822947" lon="9.753003"><ele>15.8</ele><time>2026-04-17T11:01:34.931Z</time></trkpt><trkpt lat="40.5822665" lon="9.752868"><ele>15.4</ele><time>2026-04-17T11:01:36.931Z</time></trkpt><trkpt lat="40.5822383" lon="9.7527317"><ele>15.0</ele><time>2026-04-17T11:01:38.933Z</time></trkpt><trkpt lat="40.5822059" lon="9.7525929"><ele>14.4</ele><time>2026-04-17T11:01:40.932Z</time></trkpt><trkpt lat="40.5821782" lon="9.7524696"><ele>13.8</ele><time>2026-04-17T11:01:42.931Z</time></trkpt><trkpt lat="40.58215" lon="9.7523541"><ele>13.2</ele><time>2026-04-17T11:01:44.932Z</time></trkpt><trkpt lat="40.5821256" lon="9.7522415"><ele>12.6</ele><time>2026-04-17T11:01:46.932Z</time></trkpt><trkpt lat="40.582097" lon="9.7521231"><ele>12.0</ele><time>2026-04-17T11:01:48.932Z</time></trkpt><trkpt lat="40.5820703" lon="9.7520093"><ele>12.0</ele><time>2026-04-17T11:01:50.932Z</time></trkpt><trkpt lat="40.5820454" lon="9.7519018"><ele>12.0</ele><time>2026-04-17T11:01:52.933Z</time></trkpt><trkpt lat="40.5820228" lon="9.7517958"><ele>12.0</ele><time>2026-04-17T11:01:54.932Z</time></trkpt><trkpt lat="40.5820006" lon="9.7516878"><ele>12.0</ele><time>2026-04-17T11:01:56.931Z</time></trkpt><trkpt lat="40.5819743" lon="9.7515811"><ele>12.0</ele><time>2026-04-17T11:01:58.931Z</time></trkpt><trkpt lat="40.5819524" lon="9.7514734"><ele>12.0</ele><time>2026-04-17T11:02:00.932Z</time></trkpt><trkpt lat="40.5819262" lon="9.7513655"><ele>12.666666666666666</ele><time>2026-04-17T11:02:02.932Z</time></trkpt><trkpt lat="40.5819001" lon="9.7512553"><ele>13.333333333333332</ele><time>2026-04-17T11:02:04.932Z</time></trkpt><trkpt lat="40.5818734" lon="9.7511493"><ele>14.0</ele><time>2026-04-17T11:02:06.933Z</time></trkpt><trkpt lat="40.5818469" lon="9.7510412"><ele>14.666666666666666</ele><time>2026-04-17T11:02:08.932Z</time></trkpt><trkpt lat="40.5818203" lon="9.750932"><ele>15.333333333333332</ele><time>2026-04-17T11:02:10.932Z</time></trkpt><trkpt lat="40.5817979" lon="9.7508272"><ele>16.0</ele><time>2026-04-17T11:02:12.933Z</time></trkpt><trkpt lat="40.5817696" lon="9.7507168"><ele>15.999999999999998</ele><time>2026-04-17T11:02:14.933Z</time></trkpt><trkpt lat="40.5817428" lon="9.7506077"><ele>16.0</ele><time>2026-04-17T11:02:16.931Z</time></trkpt><trkpt lat="40.581723" lon="9.7504996"><ele>16.0</ele><time>2026-04-17T11:02:18.931Z</time></trkpt><trkpt lat="40.5817031" lon="9.7503827"><ele>16.0</ele><time>2026-04-17T11:02:20.931Z</time></trkpt><trkpt lat="40.5816887" lon="9.7502752"><ele>15.999999999999998</ele><time>2026-04-17T11:02:22.932Z</time></trkpt><trkpt lat="40.5816744" lon="9.7501625"><ele>16.0</ele><time>2026-04-17T11:02:24.932Z</time></trkpt><trkpt lat="40.5816617" lon="9.7500509"><ele>15.600000000000001</ele><time>2026-04-17T11:02:26.932Z</time></trkpt><trkpt lat="40.5816444" lon="9.7499224"><ele>15.200000000000001</ele><time>2026-04-17T11:02:29.931Z</time></trkpt><trkpt lat="40.5816422" lon="9.7497903"><ele>14.799999999999999</ele><time>2026-04-17T11:02:31.932Z</time></trkpt><trkpt lat="40.5816262" lon="9.7496784"><ele>14.399999999999999</ele><time>2026-04-17T11:02:33.931Z</time></trkpt><trkpt lat="40.5816173" lon="9.7495644"><ele>14.0</ele><time>2026-04-17T11:02:35.931Z</time></trkpt><trkpt lat="40.5816039" lon="9.7494516"><ele>13.833333333333334</ele><time>2026-04-17T11:02:37.931Z</time></trkpt><trkpt lat="40.5815933" lon="9.7493395"><ele>13.666666666666668</ele><time>2026-04-17T11:02:39.931Z</time></trkpt><trkpt lat="40.5815796" lon="9.7492348"><ele>13.5</ele><time>2026-04-17T11:02:41.928Z</time></trkpt><trkpt lat="40.5815664" lon="9.7491308"><ele>13.333333333333332</ele><time>2026-04-17T11:02:43.932Z</time></trkpt><trkpt lat="40.5815517" lon="9.7490224"><ele>13.166666666666666</ele><time>2026-04-17T11:02:45.931Z</time></trkpt><trkpt lat="40.5815418" lon="9.7489125"><ele>13.0</ele><time>2026-04-17T11:02:47.931Z</time></trkpt><trkpt lat="40.5815258" lon="9.7488055"><ele>12.999999999999998</ele><time>2026-04-17T11:02:49.932Z</time></trkpt><trkpt lat="40.5815091" lon="9.7486987"><ele>13.0</ele><time>2026-04-17T11:02:51.932Z</time></trkpt><trkpt lat="40.5814749" lon="9.7485954"><ele>13.0</ele><time>2026-04-17T11:02:53.932Z</time></trkpt><trkpt lat="40.581439" lon="9.7484925"><ele>13.0</ele><time>2026-04-17T11:02:55.931Z</time></trkpt><trkpt lat="40.5813886" lon="9.748397"><ele>12.999999999999998</ele><time>2026-04-17T11:02:57.932Z</time></trkpt><trkpt lat="40.581335" lon="9.7482993"><ele>13.0</ele><time>2026-04-17T11:02:59.932Z</time></trkpt><trkpt lat="40.5812711" lon="9.7482059"><ele>13.2</ele><time>2026-04-17T11:03:01.932Z</time></trkpt><trkpt lat="40.5812103" lon="9.7481088"><ele>13.4</ele><time>2026-04-17T11:03:03.931Z</time></trkpt><trkpt lat="40.5811478" lon="9.7480164"><ele>13.599999999999998</ele><time>2026-04-17T11:03:05.931Z</time></trkpt><trkpt lat="40.5810941" lon="9.7479119"><ele>13.799999999999999</ele><time>2026-04-17T11:03:07.932Z</time></trkpt><trkpt lat="40.5810386" lon="9.7478105"><ele>14.0</ele><time>2026-04-17T11:03:09.931Z</time></trkpt><trkpt lat="40.5809899" lon="9.7476957"><ele>13.666666666666668</ele><time>2026-04-17T11:03:11.931Z</time></trkpt><trkpt lat="40.5809556" lon="9.7475807"><ele>13.333333333333334</ele><time>2026-04-17T11:03:13.932Z</time></trkpt><trkpt lat="40.5809223" lon="9.7474643"><ele>13.0</ele><time>2026-04-17T11:03:15.931Z</time></trkpt><trkpt lat="40.5808951" lon="9.7473578"><ele>12.666666666666668</ele><time>2026-04-17T11:03:17.933Z</time></trkpt><trkpt lat="40.5808638" lon="9.7472506"><ele>12.333333333333334</ele><time>2026-04-17T11:03:19.932Z</time></trkpt><trkpt lat="40.5808392" lon="9.7471428"><ele>12.0</ele><time>2026-04-17T11:03:21.932Z</time></trkpt><trkpt lat="40.5808078" lon="9.7470328"><ele>12.0</ele><time>2026-04-17T11:03:23.932Z</time></trkpt><trkpt lat="40.5807787" lon="9.7469253"><ele>12.0</ele><time>2026-04-17T11:03:25.932Z</time></trkpt><trkpt lat="40.5807505" lon="9.7468244"><ele>12.0</ele><time>2026-04-17T11:03:27.932Z</time></trkpt><trkpt lat="40.5807257" lon="9.7467276"><ele>12.0</ele><time>2026-04-17T11:03:29.932Z</time></trkpt><trkpt lat="40.5807001" lon="9.746635"><ele>12.0</ele><time>2026-04-17T11:03:31.931Z</time></trkpt><trkpt lat="40.5806758" lon="9.7465428"><ele>12.0</ele><time>2026-04-17T11:03:33.932Z</time></trkpt><trkpt lat="40.5806456" lon="9.7464478"><ele>12.0</ele><time>2026-04-17T11:03:35.932Z</time></trkpt><trkpt lat="40.5806116" lon="9.7463429"><ele>12.0</ele><time>2026-04-17T11:03:37.931Z</time></trkpt><trkpt lat="40.5805863" lon="9.7462357"><ele>12.0</ele><time>2026-04-17T11:03:39.932Z</time></trkpt><trkpt lat="40.5805576" lon="9.7461311"><ele>12.0</ele><time>2026-04-17T11:03:41.932Z</time></trkpt><trkpt lat="40.5805268" lon="9.7460297"><ele>12.0</ele><time>2026-04-17T11:03:43.932Z</time></trkpt><trkpt lat="40.5804983" lon="9.745931"><ele>12.0</ele><time>2026-04-17T11:03:45.931Z</time></trkpt><trkpt lat="40.580475" lon="9.7458309"><ele>12.0</ele><time>2026-04-17T11:03:47.932Z</time></trkpt><trkpt lat="40.5804474" lon="9.7457315"><ele>12.0</ele><time>2026-04-17T11:03:49.932Z</time></trkpt><trkpt lat="40.5804188" lon="9.7456288"><ele>12.0</ele><time>2026-04-17T11:03:51.933Z</time></trkpt><trkpt lat="40.5803885" lon="9.7455319"><ele>12.0</ele><time>2026-04-17T11:03:53.932Z</time></trkpt><trkpt lat="40.5803587" lon="9.7454343"><ele>12.0</ele><time>2026-04-17T11:03:55.932Z</time></trkpt><trkpt lat="40.5803351" lon="9.7453353"><ele>12.0</ele><time>2026-04-17T11:03:57.931Z</time></trkpt><trkpt lat="40.5803127" lon="9.7452463"><ele>12.57142857142857</ele><time>2026-04-17T11:03:59.93Z</time></trkpt><trkpt lat="40.5802889" lon="9.7451581"><ele>13.142857142857142</ele><time>2026-04-17T11:04:01.932Z</time></trkpt><trkpt lat="40.5802692" lon="9.7450666"><ele>13.714285714285714</ele><time>2026-04-17T11:04:03.932Z</time></trkpt><trkpt lat="40.5802467" lon="9.7449688"><ele>14.285714285714285</ele><time>2026-04-17T11:04:05.932Z</time></trkpt><trkpt lat="40.580222" lon="9.7448736"><ele>14.857142857142856</ele><time>2026-04-17T11:04:07.932Z</time></trkpt><trkpt lat="40.5802002" lon="9.7447807"><ele>15.428571428571427</ele><time>2026-04-17T11:04:09.933Z</time></trkpt><trkpt lat="40.5801779" lon="9.7446869"><ele>16.0</ele><time>2026-04-17T11:04:11.931Z</time></trkpt><trkpt lat="40.5801559" lon="9.7445915"><ele>15.999999999999998</ele><time>2026-04-17T11:04:13.932Z</time></trkpt><trkpt lat="40.5801231" lon="9.7445003"><ele>16.0</ele><time>2026-04-17T11:04:15.933Z</time></trkpt><trkpt lat="40.5800901" lon="9.744404"><ele>16.0</ele><time>2026-04-17T11:04:17.931Z</time></trkpt><trkpt lat="40.5800576" lon="9.7442962"><ele>16.0</ele><time>2026-04-17T11:04:19.931Z</time></trkpt><trkpt lat="40.5800232" lon="9.7441812"><ele>15.999999999999998</ele><time>2026-04-17T11:04:21.932Z</time></trkpt><trkpt lat="40.5799925" lon="9.7440656"><ele>16.0</ele><time>2026-04-17T11:04:23.931Z</time></trkpt><trkpt lat="40.5799696" lon="9.7439669"><ele>15.499999999999998</ele><time>2026-04-17T11:04:25.932Z</time></trkpt><trkpt lat="40.5799414" lon="9.7438523"><ele>15.0</ele><time>2026-04-17T11:04:27.932Z</time></trkpt><trkpt lat="40.5799184" lon="9.7437386"><ele>14.5</ele><time>2026-04-17T11:04:29.932Z</time></trkpt><trkpt lat="40.5798864" lon="9.7436249"><ele>14.0</ele><time>2026-04-17T11:04:31.931Z</time></trkpt><trkpt lat="40.579858" lon="9.7435175"><ele>13.499999999999998</ele><time>2026-04-17T11:04:33.932Z</time></trkpt><trkpt lat="40.5798359" lon="9.7434137"><ele>13.0</ele><time>2026-04-17T11:04:35.931Z</time></trkpt><trkpt lat="40.5798119" lon="9.7433124"><ele>13.0</ele><time>2026-04-17T11:04:37.931Z</time></trkpt><trkpt lat="40.579792" lon="9.7432078"><ele>13.0</ele><time>2026-04-17T11:04:39.931Z</time></trkpt><trkpt lat="40.5797664" lon="9.7430727"><ele>13.0</ele><time>2026-04-17T11:04:42.933Z</time></trkpt><trkpt lat="40.5797475" lon="9.7429471"><ele>13.0</ele><time>2026-04-17T11:04:44.931Z</time></trkpt><trkpt lat="40.5797388" lon="9.7428391"><ele>13.0</ele><time>2026-04-17T11:04:46.931Z</time></trkpt><trkpt lat="40.5797328" lon="9.7427311"><ele>12.833333333333332</ele><time>2026-04-17T11:04:48.932Z</time></trkpt><trkpt lat="40.5797248" lon="9.7426227"><ele>12.666666666666666</ele><time>2026-04-17T11:04:50.932Z</time></trkpt><trkpt lat="40.5797166" lon="9.7425099"><ele>12.5</ele><time>2026-04-17T11:04:52.932Z</time></trkpt><trkpt lat="40.5797128" lon="9.7423959"><ele>12.333333333333332</ele><time>2026-04-17T11:04:54.931Z</time></trkpt><trkpt lat="40.579711" lon="9.7422782"><ele>12.166666666666666</ele><time>2026-04-17T11:04:56.933Z</time></trkpt><trkpt lat="40.5797129" lon="9.7421755"><ele>12.0</ele><time>2026-04-17T11:04:58.933Z</time></trkpt><trkpt lat="40.5797063" lon="9.7420459"><ele>12.0</ele><time>2026-04-17T11:05:00.931Z</time></trkpt><trkpt lat="40.5797109" lon="9.7419278"><ele>12.0</ele><time>2026-04-17T11:05:02.93Z</time></trkpt><trkpt lat="40.5797222" lon="9.741816"><ele>12.0</ele><time>2026-04-17T11:05:04.931Z</time></trkpt><trkpt lat="40.5797283" lon="9.7417054"><ele>12.0</ele><time>2026-04-17T11:05:06.932Z</time></trkpt><trkpt lat="40.5797381" lon="9.7415975"><ele>12.0</ele><time>2026-04-17T11:05:08.93Z</time></trkpt><trkpt lat="40.5797474" lon="9.741486"><ele>12.0</ele><time>2026-04-17T11:05:10.931Z</time></trkpt><trkpt lat="40.5797524" lon="9.7413742"><ele>12.5</ele><time>2026-04-17T11:05:12.931Z</time></trkpt><trkpt lat="40.5797534" lon="9.7412665"><ele>13.0</ele><time>2026-04-17T11:05:14.932Z</time></trkpt><trkpt lat="40.5797586" lon="9.7411623"><ele>13.5</ele><time>2026-04-17T11:05:16.932Z</time></trkpt><trkpt lat="40.579762" lon="9.7410553"><ele>14.0</ele><time>2026-04-17T11:05:18.931Z</time></trkpt><trkpt lat="40.5797689" lon="9.7409445"><ele>14.5</ele><time>2026-04-17T11:05:20.931Z</time></trkpt><trkpt lat="40.5797703" lon="9.7408361"><ele>15.0</ele><time>2026-04-17T11:05:22.93Z</time></trkpt><trkpt lat="40.5797719" lon="9.7407288"><ele>15.166666666666666</ele><time>2026-04-17T11:05:24.931Z</time></trkpt><trkpt lat="40.5797775" lon="9.7406189"><ele>15.333333333333332</ele><time>2026-04-17T11:05:26.932Z</time></trkpt><trkpt lat="40.5797703" lon="9.7405079"><ele>15.5</ele><time>2026-04-17T11:05:28.933Z</time></trkpt><trkpt lat="40.5797467" lon="9.7403972"><ele>15.666666666666666</ele><time>2026-04-17T11:05:30.931Z</time></trkpt><trkpt lat="40.5797097" lon="9.7402914"><ele>15.833333333333332</ele><time>2026-04-17T11:05:32.932Z</time></trkpt><trkpt lat="40.5796544" lon="9.7401962"><ele>16.0</ele><time>2026-04-17T11:05:34.932Z</time></trkpt><trkpt lat="40.5795911" lon="9.7401158"><ele>17.0</ele><time>2026-04-17T11:05:36.931Z</time></trkpt><trkpt lat="40.5795151" lon="9.7400461"><ele>18.0</ele><time>2026-04-17T11:05:38.931Z</time></trkpt><trkpt lat="40.579433" lon="9.7399853"><ele>19.0</ele><time>2026-04-17T11:05:40.931Z</time></trkpt><trkpt lat="40.5793488" lon="9.7399288"><ele>20.0</ele><time>2026-04-17T11:05:42.932Z</time></trkpt><trkpt lat="40.5792668" lon="9.739862"><ele>21.0</ele><time>2026-04-17T11:05:44.932Z</time></trkpt><trkpt lat="40.5791845" lon="9.7397923"><ele>21.0</ele><time>2026-04-17T11:05:46.93Z</time></trkpt><trkpt lat="40.5791017" lon="9.7397291"><ele>21.0</ele><time>2026-04-17T11:05:48.931Z</time></trkpt><trkpt lat="40.5790192" lon="9.7396596"><ele>21.0</ele><time>2026-04-17T11:05:50.931Z</time></trkpt><trkpt lat="40.5789413" lon="9.7395858"><ele>21.0</ele><time>2026-04-17T11:05:52.932Z</time></trkpt><trkpt lat="40.5788838" lon="9.7394806"><ele>21.0</ele><time>2026-04-17T11:05:54.931Z</time></trkpt><trkpt lat="40.5788571" lon="9.7393486"><ele>19.6</ele><time>2026-04-17T11:05:56.931Z</time></trkpt><trkpt lat="40.5788389" lon="9.7392186"><ele>18.200000000000003</ele><time>2026-04-17T11:05:58.93Z</time></trkpt><trkpt lat="40.5788158" lon="9.7390972"><ele>16.799999999999997</ele><time>2026-04-17T11:06:00.931Z</time></trkpt><trkpt lat="40.5788086" lon="9.7389823"><ele>15.399999999999999</ele><time>2026-04-17T11:06:02.932Z</time></trkpt><trkpt lat="40.5788061" lon="9.7388688"><ele>14.0</ele><time>2026-04-17T11:06:04.932Z</time></trkpt><trkpt lat="40.5788098" lon="9.7387543"><ele>14.000000000000002</ele><time>2026-04-17T11:06:06.931Z</time></trkpt><trkpt lat="40.5788197" lon="9.7386408"><ele>14.0</ele><time>2026-04-17T11:06:08.932Z</time></trkpt><trkpt lat="40.5788266" lon="9.7385267"><ele>14.0</ele><time>2026-04-17T11:06:10.932Z</time></trkpt><trkpt lat="40.5788372" lon="9.7384149"><ele>14.0</ele><time>2026-04-17T11:06:12.933Z</time></trkpt><trkpt lat="40.5788486" lon="9.7382856"><ele>14.000000000000002</ele><time>2026-04-17T11:06:14.931Z</time></trkpt><trkpt lat="40.578863" lon="9.7381678"><ele>14.0</ele><time>2026-04-17T11:06:16.933Z</time></trkpt><trkpt lat="40.5788806" lon="9.738055"><ele>14.000000000000002</ele><time>2026-04-17T11:06:18.931Z</time></trkpt><trkpt lat="40.5788939" lon="9.7379451"><ele>14.0</ele><time>2026-04-17T11:06:20.931Z</time></trkpt><trkpt lat="40.5788986" lon="9.7378412"><ele>14.0</ele><time>2026-04-17T11:06:22.931Z</time></trkpt><trkpt lat="40.5789016" lon="9.7377414"><ele>14.0</ele><time>2026-04-17T11:06:24.93Z</time></trkpt><trkpt lat="40.5789055" lon="9.7376345"><ele>14.000000000000002</ele><time>2026-04-17T11:06:26.931Z</time></trkpt><trkpt lat="40.5789114" lon="9.7375237"><ele>14.0</ele><time>2026-04-17T11:06:28.931Z</time></trkpt><trkpt lat="40.5789118" lon="9.7374246"><ele>14.0</ele><time>2026-04-17T11:06:30.931Z</time></trkpt><trkpt lat="40.5789104" lon="9.7373165"><ele>13.999999999999998</ele><time>2026-04-17T11:06:32.931Z</time></trkpt><trkpt lat="40.5789005" lon="9.7371931"><ele>13.999999999999998</ele><time>2026-04-17T11:06:34.93Z</time></trkpt><trkpt lat="40.578878" lon="9.7370766"><ele>14.0</ele><time>2026-04-17T11:06:36.93Z</time></trkpt><trkpt lat="40.5788504" lon="9.7369579"><ele>14.0</ele><time>2026-04-17T11:06:38.93Z</time></trkpt><trkpt lat="40.5788139" lon="9.7368384"><ele>13.833333333333334</ele><time>2026-04-17T11:06:40.93Z</time></trkpt><trkpt lat="40.5787909" lon="9.7367198"><ele>13.666666666666668</ele><time>2026-04-17T11:06:42.93Z</time></trkpt><trkpt lat="40.5787514" lon="9.7366153"><ele>13.5</ele><time>2026-04-17T11:06:44.931Z</time></trkpt><trkpt lat="40.578719" lon="9.7365088"><ele>13.333333333333332</ele><time>2026-04-17T11:06:46.931Z</time></trkpt><trkpt lat="40.578688" lon="9.7364042"><ele>13.166666666666666</ele><time>2026-04-17T11:06:48.93Z</time></trkpt><trkpt lat="40.5786476" lon="9.7363026"><ele>13.0</ele><time>2026-04-17T11:06:50.93Z</time></trkpt><trkpt lat="40.5786059" lon="9.7362018"><ele>15.0</ele><time>2026-04-17T11:06:52.93Z</time></trkpt><trkpt lat="40.5785608" lon="9.7360983"><ele>17.0</ele><time>2026-04-17T11:06:54.932Z</time></trkpt><trkpt lat="40.5785148" lon="9.7359926"><ele>19.0</ele><time>2026-04-17T11:06:56.931Z</time></trkpt><trkpt lat="40.5784724" lon="9.7358857"><ele>21.0</ele><time>2026-04-17T11:06:58.93Z</time></trkpt><trkpt lat="40.5784218" lon="9.7357771"><ele>23.0</ele><time>2026-04-17T11:07:00.931Z</time></trkpt><trkpt lat="40.578372" lon="9.7356698"><ele>23.0</ele><time>2026-04-17T11:07:02.931Z</time></trkpt><trkpt lat="40.5783291" lon="9.7355676"><ele>23.0</ele><time>2026-04-17T11:07:04.931Z</time></trkpt><trkpt lat="40.5782873" lon="9.7354667"><ele>23.0</ele><time>2026-04-17T11:07:06.931Z</time></trkpt><trkpt lat="40.5782485" lon="9.7353659"><ele>23.0</ele><time>2026-04-17T11:07:08.931Z</time></trkpt><trkpt lat="40.5782059" lon="9.7352681"><ele>23.0</ele><time>2026-04-17T11:07:10.932Z</time></trkpt><trkpt lat="40.5781584" lon="9.7351764"><ele>23.0</ele><time>2026-04-17T11:07:12.932Z</time></trkpt><trkpt lat="40.5781151" lon="9.7350852"><ele>23.0</ele><time>2026-04-17T11:07:14.932Z</time></trkpt><trkpt lat="40.5780663" lon="9.7350007"><ele>23.0</ele><time>2026-04-17T11:07:16.93Z</time></trkpt><trkpt lat="40.5780118" lon="9.7349142"><ele>23.0</ele><time>2026-04-17T11:07:18.93Z</time></trkpt><trkpt lat="40.5779491" lon="9.7348227"><ele>23.0</ele><time>2026-04-17T11:07:20.933Z</time></trkpt><trkpt lat="40.5778885" lon="9.7347255"><ele>23.0</ele><time>2026-04-17T11:07:22.93Z</time></trkpt><trkpt lat="40.5778191" lon="9.7346315"><ele>22.666666666666668</ele><time>2026-04-17T11:07:24.932Z</time></trkpt><trkpt lat="40.5777575" lon="9.7345341"><ele>22.333333333333336</ele><time>2026-04-17T11:07:26.931Z</time></trkpt><trkpt lat="40.5776936" lon="9.7344461"><ele>22.0</ele><time>2026-04-17T11:07:28.93Z</time></trkpt><trkpt lat="40.5776357" lon="9.7343628"><ele>21.666666666666668</ele><time>2026-04-17T11:07:30.931Z</time></trkpt><trkpt lat="40.57757" lon="9.734289"><ele>21.333333333333332</ele><time>2026-04-17T11:07:32.931Z</time></trkpt><trkpt lat="40.577501" lon="9.7342184"><ele>21.0</ele><time>2026-04-17T11:07:34.93Z</time></trkpt><trkpt lat="40.577431" lon="9.7341534"><ele>21.0</ele><time>2026-04-17T11:07:36.931Z</time></trkpt><trkpt lat="40.5773546" lon="9.7341001"><ele>21.0</ele><time>2026-04-17T11:07:38.931Z</time></trkpt><trkpt lat="40.5772712" lon="9.7340381"><ele>21.0</ele><time>2026-04-17T11:07:40.931Z</time></trkpt><trkpt lat="40.5771843" lon="9.7339678"><ele>21.0</ele><time>2026-04-17T11:07:42.932Z</time></trkpt><trkpt lat="40.5770992" lon="9.7339064"><ele>21.0</ele><time>2026-04-17T11:07:44.93Z</time></trkpt><trkpt lat="40.5770238" lon="9.7338136"><ele>20.2</ele><time>2026-04-17T11:07:46.933Z</time></trkpt><trkpt lat="40.5769806" lon="9.7336815"><ele>19.400000000000002</ele><time>2026-04-17T11:07:48.931Z</time></trkpt><trkpt lat="40.5769575" lon="9.7335365"><ele>18.6</ele><time>2026-04-17T11:07:50.932Z</time></trkpt><trkpt lat="40.5769304" lon="9.7334021"><ele>17.8</ele><time>2026-04-17T11:07:52.931Z</time></trkpt><trkpt lat="40.5769097" lon="9.7332687"><ele>17.0</ele><time>2026-04-17T11:07:54.93Z</time></trkpt><trkpt lat="40.5768845" lon="9.7331352"><ele>17.0</ele><time>2026-04-17T11:07:56.931Z</time></trkpt><trkpt lat="40.5768638" lon="9.733003"><ele>17.0</ele><time>2026-04-17T11:07:58.93Z</time></trkpt><trkpt lat="40.5768419" lon="9.7328724"><ele>17.0</ele><time>2026-04-17T11:08:00.932Z</time></trkpt><trkpt lat="40.5768261" lon="9.7327531"><ele>17.0</ele><time>2026-04-17T11:08:02.93Z</time></trkpt><trkpt lat="40.576803" lon="9.7326326"><ele>17.0</ele><time>2026-04-17T11:08:04.931Z</time></trkpt><trkpt lat="40.5767812" lon="9.7325125"><ele>17.8</ele><time>2026-04-17T11:08:06.931Z</time></trkpt><trkpt lat="40.5767654" lon="9.7323979"><ele>18.6</ele><time>2026-04-17T11:08:08.93Z</time></trkpt><trkpt lat="40.5767438" lon="9.7322821"><ele>19.400000000000002</ele><time>2026-04-17T11:08:10.93Z</time></trkpt><trkpt lat="40.5767227" lon="9.7321646"><ele>20.2</ele><time>2026-04-17T11:08:12.931Z</time></trkpt><trkpt lat="40.576697" lon="9.7320467"><ele>21.0</ele><time>2026-04-17T11:08:14.931Z</time></trkpt><trkpt lat="40.5766731" lon="9.7319302"><ele>22.4</ele><time>2026-04-17T11:08:16.93Z</time></trkpt><trkpt lat="40.5766446" lon="9.7318147"><ele>23.8</ele><time>2026-04-17T11:08:18.931Z</time></trkpt><trkpt lat="40.5766159" lon="9.7317012"><ele>25.199999999999996</ele><time>2026-04-17T11:08:20.931Z</time></trkpt><trkpt lat="40.5765798" lon="9.731592"><ele>26.599999999999998</ele><time>2026-04-17T11:08:22.932Z</time></trkpt><trkpt lat="40.5765357" lon="9.7314873"><ele>28.0</ele><time>2026-04-17T11:08:24.931Z</time></trkpt><trkpt lat="40.5764885" lon="9.7313809"><ele>28.0</ele><time>2026-04-17T11:08:26.93Z</time></trkpt><trkpt lat="40.5764425" lon="9.731279"><ele>27.999999999999996</ele><time>2026-04-17T11:08:28.932Z</time></trkpt><trkpt lat="40.5763925" lon="9.7311807"><ele>27.999999999999996</ele><time>2026-04-17T11:08:30.931Z</time></trkpt><trkpt lat="40.5763413" lon="9.7310673"><ele>28.0</ele><time>2026-04-17T11:08:32.93Z</time></trkpt><trkpt lat="40.5762903" lon="9.730948"><ele>28.0</ele><time>2026-04-17T11:08:34.931Z</time></trkpt><trkpt lat="40.5762398" lon="9.7308206"><ele>28.2</ele><time>2026-04-17T11:08:36.931Z</time></trkpt><trkpt lat="40.5761853" lon="9.7306864"><ele>28.4</ele><time>2026-04-17T11:08:38.931Z</time></trkpt><trkpt lat="40.5761239" lon="9.7305487"><ele>28.599999999999998</ele><time>2026-04-17T11:08:40.931Z</time></trkpt><trkpt lat="40.5760633" lon="9.7304032"><ele>28.799999999999997</ele><time>2026-04-17T11:08:42.93Z</time></trkpt><trkpt lat="40.5760353" lon="9.730326"><ele>29.0</ele><time>2026-04-17T11:08:43.931Z</time></trkpt><trkpt lat="40.5760094" lon="9.7302478"><ele>28.428571428571434</ele><time>2026-04-17T11:08:44.931Z</time></trkpt><trkpt lat="40.5759863" lon="9.7301663"><ele>27.857142857142858</ele><time>2026-04-17T11:08:45.932Z</time></trkpt><trkpt lat="40.5759662" lon="9.7300824"><ele>27.28571428571429</ele><time>2026-04-17T11:08:46.931Z</time></trkpt><trkpt lat="40.5759475" lon="9.7299964"><ele>26.714285714285715</ele><time>2026-04-17T11:08:47.932Z</time></trkpt><trkpt lat="40.5759338" lon="9.72991"><ele>26.142857142857146</ele><time>2026-04-17T11:08:48.931Z</time></trkpt><trkpt lat="40.5759244" lon="9.7298197"><ele>25.571428571428573</ele><time>2026-04-17T11:08:49.932Z</time></trkpt><trkpt lat="40.5759206" lon="9.729729"><ele>25.0</ele><time>2026-04-17T11:08:50.932Z</time></trkpt><trkpt lat="40.5759197" lon="9.7296371"><ele>25.000000000000004</ele><time>2026-04-17T11:08:51.931Z</time></trkpt><trkpt lat="40.5759165" lon="9.7295449"><ele>25.0</ele><time>2026-04-17T11:08:52.93Z</time></trkpt><trkpt lat="40.5759147" lon="9.7294536"><ele>25.0</ele><time>2026-04-17T11:08:53.931Z</time></trkpt><trkpt lat="40.5759169" lon="9.7293685"><ele>25.0</ele><time>2026-04-17T11:08:54.93Z</time></trkpt><trkpt lat="40.5759185" lon="9.729214"><ele>25.000000000000004</ele><time>2026-04-17T11:08:56.931Z</time></trkpt><trkpt lat="40.5759123" lon="9.7290713"><ele>25.0</ele><time>2026-04-17T11:08:58.931Z</time></trkpt><trkpt lat="40.5759009" lon="9.7289503"><ele>24.833333333333336</ele><time>2026-04-17T11:09:00.931Z</time></trkpt><trkpt lat="40.5758841" lon="9.7288426"><ele>24.666666666666668</ele><time>2026-04-17T11:09:02.931Z</time></trkpt><trkpt lat="40.5758623" lon="9.7287373"><ele>24.5</ele><time>2026-04-17T11:09:04.93Z</time></trkpt><trkpt lat="40.5758376" lon="9.7286359"><ele>24.333333333333336</ele><time>2026-04-17T11:09:06.932Z</time></trkpt><trkpt lat="40.5758089" lon="9.728535"><ele>24.166666666666668</ele><time>2026-04-17T11:09:08.931Z</time></trkpt><trkpt lat="40.5757827" lon="9.7284304"><ele>24.0</ele><time>2026-04-17T11:09:10.931Z</time></trkpt><trkpt lat="40.5757526" lon="9.728315"><ele>23.799999999999997</ele><time>2026-04-17T11:09:12.931Z</time></trkpt><trkpt lat="40.575716" lon="9.7281868"><ele>23.599999999999998</ele><time>2026-04-17T11:09:14.93Z</time></trkpt><trkpt lat="40.5756818" lon="9.7280625"><ele>23.4</ele><time>2026-04-17T11:09:16.931Z</time></trkpt><trkpt lat="40.5756479" lon="9.7279322"><ele>23.2</ele><time>2026-04-17T11:09:18.931Z</time></trkpt><trkpt lat="40.5756158" lon="9.7278052"><ele>23.0</ele><time>2026-04-17T11:09:20.93Z</time></trkpt><trkpt lat="40.5755807" lon="9.727676"><ele>23.0</ele><time>2026-04-17T11:09:22.931Z</time></trkpt><trkpt lat="40.5755485" lon="9.7275429"><ele>23.0</ele><time>2026-04-17T11:09:24.931Z</time></trkpt><trkpt lat="40.5755102" lon="9.727412"><ele>23.0</ele><time>2026-04-17T11:09:26.931Z</time></trkpt><trkpt lat="40.5754757" lon="9.7272769"><ele>23.0</ele><time>2026-04-17T11:09:28.93Z</time></trkpt><trkpt lat="40.5754473" lon="9.7271556"><ele>23.0</ele><time>2026-04-17T11:09:30.931Z</time></trkpt><trkpt lat="40.5754175" lon="9.7270359"><ele>23.0</ele><time>2026-04-17T11:09:32.93Z</time></trkpt><trkpt lat="40.5753829" lon="9.7269205"><ele>23.0</ele><time>2026-04-17T11:09:34.932Z</time></trkpt><trkpt lat="40.5753567" lon="9.7268114"><ele>23.0</ele><time>2026-04-17T11:09:36.93Z</time></trkpt><trkpt lat="40.5753314" lon="9.7267015"><ele>23.0</ele><time>2026-04-17T11:09:38.932Z</time></trkpt><trkpt lat="40.5753029" lon="9.7265917"><ele>23.0</ele><time>2026-04-17T11:09:40.931Z</time></trkpt><trkpt lat="40.5752767" lon="9.7264848"><ele>23.0</ele><time>2026-04-17T11:09:42.931Z</time></trkpt><trkpt lat="40.5752456" lon="9.7263777"><ele>23.5</ele><time>2026-04-17T11:09:44.93Z</time></trkpt><trkpt lat="40.5752187" lon="9.7262663"><ele>24.0</ele><time>2026-04-17T11:09:46.932Z</time></trkpt><trkpt lat="40.5751895" lon="9.7261578"><ele>24.5</ele><time>2026-04-17T11:09:48.931Z</time></trkpt><trkpt lat="40.5751648" lon="9.7260499"><ele>25.0</ele><time>2026-04-17T11:09:50.93Z</time></trkpt><trkpt lat="40.5751381" lon="9.7259441"><ele>25.499999999999996</ele><time>2026-04-17T11:09:52.931Z</time></trkpt><trkpt lat="40.5751104" lon="9.7258323"><ele>26.0</ele><time>2026-04-17T11:09:54.93Z</time></trkpt><trkpt lat="40.5750783" lon="9.7257202"><ele>26.200000000000003</ele><time>2026-04-17T11:09:56.931Z</time></trkpt><trkpt lat="40.5750505" lon="9.7256097"><ele>26.400000000000002</ele><time>2026-04-17T11:09:58.931Z</time></trkpt><trkpt lat="40.5750219" lon="9.7254938"><ele>26.6</ele><time>2026-04-17T11:10:00.931Z</time></trkpt><trkpt lat="40.5749888" lon="9.7253832"><ele>26.8</ele><time>2026-04-17T11:10:02.931Z</time></trkpt><trkpt lat="40.574957" lon="9.7252728"><ele>27.0</ele><time>2026-04-17T11:10:04.93Z</time></trkpt><trkpt lat="40.5749258" lon="9.7251602"><ele>27.400000000000002</ele><time>2026-04-17T11:10:06.931Z</time></trkpt><trkpt lat="40.5748852" lon="9.7250444"><ele>27.800000000000004</ele><time>2026-04-17T11:10:08.929Z</time></trkpt><trkpt lat="40.5748516" lon="9.7249265"><ele>28.2</ele><time>2026-04-17T11:10:10.929Z</time></trkpt><trkpt lat="40.574819" lon="9.7248121"><ele>28.6</ele><time>2026-04-17T11:10:12.932Z</time></trkpt><trkpt lat="40.5747926" lon="9.7247028"><ele>29.0</ele><time>2026-04-17T11:10:14.931Z</time></trkpt><trkpt lat="40.5747713" lon="9.7245959"><ele>29.0</ele><time>2026-04-17T11:10:16.93Z</time></trkpt><trkpt lat="40.5747555" lon="9.7244926"><ele>29.0</ele><time>2026-04-17T11:10:18.93Z</time></trkpt><trkpt lat="40.5747468" lon="9.7243894"><ele>29.0</ele><time>2026-04-17T11:10:20.931Z</time></trkpt><trkpt lat="40.5747362" lon="9.7242676"><ele>29.0</ele><time>2026-04-17T11:10:22.931Z</time></trkpt><trkpt lat="40.5747385" lon="9.7241289"><ele>29.0</ele><time>2026-04-17T11:10:24.931Z</time></trkpt><trkpt lat="40.5747428" lon="9.7239798"><ele>29.166666666666664</ele><time>2026-04-17T11:10:26.931Z</time></trkpt><trkpt lat="40.5747405" lon="9.7238225"><ele>29.333333333333332</ele><time>2026-04-17T11:10:28.929Z</time></trkpt><trkpt lat="40.5747379" lon="9.7236621"><ele>29.5</ele><time>2026-04-17T11:10:30.93Z</time></trkpt><trkpt lat="40.5747285" lon="9.7235791"><ele>29.666666666666664</ele><time>2026-04-17T11:10:31.93Z</time></trkpt><trkpt lat="40.5747136" lon="9.7234947"><ele>29.833333333333332</ele><time>2026-04-17T11:10:32.931Z</time></trkpt><trkpt lat="40.5746934" lon="9.7234131"><ele>30.0</ele><time>2026-04-17T11:10:33.93Z</time></trkpt><trkpt lat="40.5746691" lon="9.723326"><ele>29.833333333333332</ele><time>2026-04-17T11:10:34.931Z</time></trkpt><trkpt lat="40.5746421" lon="9.7232363"><ele>29.666666666666664</ele><time>2026-04-17T11:10:35.931Z</time></trkpt><trkpt lat="40.5746088" lon="9.7231488"><ele>29.5</ele><time>2026-04-17T11:10:36.931Z</time></trkpt><trkpt lat="40.5745688" lon="9.7230601"><ele>29.333333333333332</ele><time>2026-04-17T11:10:37.932Z</time></trkpt><trkpt lat="40.5745322" lon="9.7229656"><ele>29.166666666666664</ele><time>2026-04-17T11:10:38.931Z</time></trkpt><trkpt lat="40.5745007" lon="9.7228628"><ele>29.0</ele><time>2026-04-17T11:10:39.93Z</time></trkpt><trkpt lat="40.5744798" lon="9.7227535"><ele>28.166666666666664</ele><time>2026-04-17T11:10:40.93Z</time></trkpt><trkpt lat="40.5744718" lon="9.722642"><ele>27.333333333333332</ele><time>2026-04-17T11:10:41.931Z</time></trkpt><trkpt lat="40.5744732" lon="9.7225261"><ele>26.5</ele><time>2026-04-17T11:10:42.93Z</time></trkpt><trkpt lat="40.5744896" lon="9.722413"><ele>25.666666666666664</ele><time>2026-04-17T11:10:43.932Z</time></trkpt><trkpt lat="40.5745009" lon="9.7222999"><ele>24.833333333333332</ele><time>2026-04-17T11:10:44.931Z</time></trkpt><trkpt lat="40.574505" lon="9.7221946"><ele>24.0</ele><time>2026-04-17T11:10:45.931Z</time></trkpt><trkpt lat="40.5745075" lon="9.7220924"><ele>24.0</ele><time>2026-04-17T11:10:46.931Z</time></trkpt><trkpt lat="40.5745016" lon="9.7219921"><ele>24.0</ele><time>2026-04-17T11:10:47.931Z</time></trkpt><trkpt lat="40.5744917" lon="9.7218913"><ele>24.0</ele><time>2026-04-17T11:10:48.93Z</time></trkpt><trkpt lat="40.5744826" lon="9.7217895"><ele>24.0</ele><time>2026-04-17T11:10:49.932Z</time></trkpt><trkpt lat="40.5744742" lon="9.7216898"><ele>24.0</ele><time>2026-04-17T11:10:50.931Z</time></trkpt><trkpt lat="40.5744646" lon="9.7215936"><ele>24.0</ele><time>2026-04-17T11:10:51.929Z</time></trkpt><trkpt lat="40.5744549" lon="9.7215039"><ele>23.6</ele><time>2026-04-17T11:10:52.931Z</time></trkpt><trkpt lat="40.5744416" lon="9.7213428"><ele>23.2</ele><time>2026-04-17T11:10:54.929Z</time></trkpt><trkpt lat="40.5744276" lon="9.7212029"><ele>22.8</ele><time>2026-04-17T11:10:56.931Z</time></trkpt><trkpt lat="40.5744178" lon="9.7210725"><ele>22.400000000000002</ele><time>2026-04-17T11:10:58.93Z</time></trkpt><trkpt lat="40.5744111" lon="9.7209497"><ele>22.0</ele><time>2026-04-17T11:11:00.93Z</time></trkpt><trkpt lat="40.5744013" lon="9.7208257"><ele>22.0</ele><time>2026-04-17T11:11:02.931Z</time></trkpt><trkpt lat="40.574385" lon="9.7207012"><ele>22.0</ele><time>2026-04-17T11:11:04.93Z</time></trkpt><trkpt lat="40.5743698" lon="9.720573"><ele>22.0</ele><time>2026-04-17T11:11:06.93Z</time></trkpt><trkpt lat="40.5743606" lon="9.7204429"><ele>22.0</ele><time>2026-04-17T11:11:08.931Z</time></trkpt><trkpt lat="40.5743469" lon="9.7203157"><ele>22.0</ele><time>2026-04-17T11:11:10.931Z</time></trkpt><trkpt lat="40.5743337" lon="9.7201883"><ele>22.200000000000003</ele><time>2026-04-17T11:11:12.93Z</time></trkpt><trkpt lat="40.5743226" lon="9.7200579"><ele>22.4</ele><time>2026-04-17T11:11:14.93Z</time></trkpt><trkpt lat="40.5743112" lon="9.7199295"><ele>22.6</ele><time>2026-04-17T11:11:16.931Z</time></trkpt><trkpt lat="40.5742981" lon="9.7198037"><ele>22.799999999999997</ele><time>2026-04-17T11:11:18.931Z</time></trkpt><trkpt lat="40.57429" lon="9.7196809"><ele>23.0</ele><time>2026-04-17T11:11:20.93Z</time></trkpt><trkpt lat="40.5742802" lon="9.7195572"><ele>23.0</ele><time>2026-04-17T11:11:22.93Z</time></trkpt><trkpt lat="40.5742698" lon="9.7194381"><ele>23.0</ele><time>2026-04-17T11:11:24.93Z</time></trkpt><trkpt lat="40.5742543" lon="9.7193205"><ele>23.0</ele><time>2026-04-17T11:11:26.931Z</time></trkpt><trkpt lat="40.5742421" lon="9.7192019"><ele>23.0</ele><time>2026-04-17T11:11:28.929Z</time></trkpt><trkpt lat="40.5742269" lon="9.7190854"><ele>23.0</ele><time>2026-04-17T11:11:30.929Z</time></trkpt><trkpt lat="40.5742191" lon="9.7189769"><ele>23.0</ele><time>2026-04-17T11:11:32.93Z</time></trkpt><trkpt lat="40.5742111" lon="9.7188716"><ele>23.599999999999998</ele><time>2026-04-17T11:11:34.93Z</time></trkpt><trkpt lat="40.5741978" lon="9.7187639"><ele>24.2</ele><time>2026-04-17T11:11:36.931Z</time></trkpt><trkpt lat="40.5741789" lon="9.7186501"><ele>24.8</ele><time>2026-04-17T11:11:38.93Z</time></trkpt><trkpt lat="40.5741582" lon="9.7185253"><ele>25.4</ele><time>2026-04-17T11:11:40.932Z</time></trkpt><trkpt lat="40.5741362" lon="9.7183967"><ele>26.0</ele><time>2026-04-17T11:11:42.931Z</time></trkpt><trkpt lat="40.5741134" lon="9.7182573"><ele>26.0</ele><time>2026-04-17T11:11:44.931Z</time></trkpt><trkpt lat="40.5740813" lon="9.7181019"><ele>26.0</ele><time>2026-04-17T11:11:46.929Z</time></trkpt><trkpt lat="40.574066" lon="9.71802"><ele>26.0</ele><time>2026-04-17T11:11:47.932Z</time></trkpt><trkpt lat="40.5740532" lon="9.7179358"><ele>26.0</ele><time>2026-04-17T11:11:48.931Z</time></trkpt><trkpt lat="40.5740391" lon="9.7178524"><ele>26.0</ele><time>2026-04-17T11:11:49.93Z</time></trkpt><trkpt lat="40.5740269" lon="9.7177696"><ele>26.0</ele><time>2026-04-17T11:11:50.931Z</time></trkpt><trkpt lat="40.5740148" lon="9.7176849"><ele>26.0</ele><time>2026-04-17T11:11:51.931Z</time></trkpt><trkpt lat="40.574002" lon="9.7175966"><ele>26.0</ele><time>2026-04-17T11:11:52.93Z</time></trkpt><trkpt lat="40.5739867" lon="9.7175118"><ele>26.0</ele><time>2026-04-17T11:11:53.93Z</time></trkpt><trkpt lat="40.5739703" lon="9.7174246"><ele>26.0</ele><time>2026-04-17T11:11:54.931Z</time></trkpt><trkpt lat="40.573955" lon="9.7173343"><ele>26.0</ele><time>2026-04-17T11:11:55.93Z</time></trkpt><trkpt lat="40.5739384" lon="9.7172428"><ele>26.0</ele><time>2026-04-17T11:11:56.93Z</time></trkpt><trkpt lat="40.5739222" lon="9.7171505"><ele>26.0</ele><time>2026-04-17T11:11:57.931Z</time></trkpt><trkpt lat="40.5739041" lon="9.7170579"><ele>26.0</ele><time>2026-04-17T11:11:58.931Z</time></trkpt><trkpt lat="40.57389" lon="9.7169616"><ele>25.285714285714285</ele><time>2026-04-17T11:11:59.93Z</time></trkpt><trkpt lat="40.5738723" lon="9.7168668"><ele>24.571428571428573</ele><time>2026-04-17T11:12:00.93Z</time></trkpt><trkpt lat="40.5738554" lon="9.7167745"><ele>23.857142857142858</ele><time>2026-04-17T11:12:01.93Z</time></trkpt><trkpt lat="40.5738378" lon="9.7166817"><ele>23.142857142857142</ele><time>2026-04-17T11:12:02.932Z</time></trkpt><trkpt lat="40.5738207" lon="9.7165899"><ele>22.42857142857143</ele><time>2026-04-17T11:12:03.929Z</time></trkpt><trkpt lat="40.5738044" lon="9.7165004"><ele>21.714285714285715</ele><time>2026-04-17T11:12:04.931Z</time></trkpt><trkpt lat="40.5737881" lon="9.7164136"><ele>21.0</ele><time>2026-04-17T11:12:05.931Z</time></trkpt><trkpt lat="40.5737749" lon="9.7163277"><ele>21.0</ele><time>2026-04-17T11:12:06.931Z</time></trkpt><trkpt lat="40.5737601" lon="9.7162404"><ele>21.0</ele><time>2026-04-17T11:12:07.931Z</time></trkpt><trkpt lat="40.5737463" lon="9.7161537"><ele>21.0</ele><time>2026-04-17T11:12:08.93Z</time></trkpt><trkpt lat="40.5737327" lon="9.7160685"><ele>21.0</ele><time>2026-04-17T11:12:09.93Z</time></trkpt><trkpt lat="40.5737181" lon="9.7159857"><ele>21.0</ele><time>2026-04-17T11:12:10.931Z</time></trkpt><trkpt lat="40.5736929" lon="9.71583"><ele>21.0</ele><time>2026-04-17T11:12:12.93Z</time></trkpt><trkpt lat="40.5736664" lon="9.7156848"><ele>21.200000000000003</ele><time>2026-04-17T11:12:14.931Z</time></trkpt><trkpt lat="40.5736402" lon="9.7155504"><ele>21.400000000000002</ele><time>2026-04-17T11:12:16.931Z</time></trkpt><trkpt lat="40.5736114" lon="9.7154191"><ele>21.6</ele><time>2026-04-17T11:12:18.93Z</time></trkpt><trkpt lat="40.5735855" lon="9.7152775"><ele>21.8</ele><time>2026-04-17T11:12:20.93Z</time></trkpt><trkpt lat="40.5735602" lon="9.7151378"><ele>22.0</ele><time>2026-04-17T11:12:22.93Z</time></trkpt><trkpt lat="40.5735425" lon="9.7149882"><ele>22.0</ele><time>2026-04-17T11:12:24.93Z</time></trkpt><trkpt lat="40.573519" lon="9.7148356"><ele>22.0</ele><time>2026-04-17T11:12:26.931Z</time></trkpt><trkpt lat="40.5734926" lon="9.7146792"><ele>22.0</ele><time>2026-04-17T11:12:28.93Z</time></trkpt><trkpt lat="40.5734697" lon="9.7145272"><ele>22.0</ele><time>2026-04-17T11:12:30.93Z</time></trkpt><trkpt lat="40.5734427" lon="9.7143702"><ele>21.8</ele><time>2026-04-17T11:12:32.931Z</time></trkpt><trkpt lat="40.5734156" lon="9.7142206"><ele>21.6</ele><time>2026-04-17T11:12:34.93Z</time></trkpt><trkpt lat="40.5733862" lon="9.714076"><ele>21.400000000000002</ele><time>2026-04-17T11:12:36.931Z</time></trkpt><trkpt lat="40.5733671" lon="9.7139349"><ele>21.200000000000003</ele><time>2026-04-17T11:12:38.931Z</time></trkpt><trkpt lat="40.5733459" lon="9.7137984"><ele>21.0</ele><time>2026-04-17T11:12:40.93Z</time></trkpt><trkpt lat="40.5733231" lon="9.7136611"><ele>21.0</ele><time>2026-04-17T11:12:42.931Z</time></trkpt><trkpt lat="40.5732998" lon="9.7135363"><ele>21.0</ele><time>2026-04-17T11:12:44.931Z</time></trkpt><trkpt lat="40.573277" lon="9.7134163"><ele>21.0</ele><time>2026-04-17T11:12:46.931Z</time></trkpt><trkpt lat="40.5732551" lon="9.7132909"><ele>21.0</ele><time>2026-04-17T11:12:48.931Z</time></trkpt><trkpt lat="40.5732315" lon="9.7131636"><ele>21.0</ele><time>2026-04-17T11:12:50.931Z</time></trkpt><trkpt lat="40.5732047" lon="9.7130265"><ele>21.0</ele><time>2026-04-17T11:12:52.93Z</time></trkpt><trkpt lat="40.573157" lon="9.7128794"><ele>21.0</ele><time>2026-04-17T11:12:54.931Z</time></trkpt><trkpt lat="40.5731338" lon="9.7128006"><ele>21.0</ele><time>2026-04-17T11:12:55.93Z</time></trkpt><trkpt lat="40.573104" lon="9.7127158"><ele>21.0</ele><time>2026-04-17T11:12:56.931Z</time></trkpt><trkpt lat="40.5730695" lon="9.712629"><ele>21.0</ele><time>2026-04-17T11:12:57.93Z</time></trkpt><trkpt lat="40.5730306" lon="9.7125385"><ele>21.0</ele><time>2026-04-17T11:12:58.931Z</time></trkpt><trkpt lat="40.5729925" lon="9.7124426"><ele>20.666666666666668</ele><time>2026-04-17T11:12:59.931Z</time></trkpt><trkpt lat="40.5729557" lon="9.7123436"><ele>20.333333333333332</ele><time>2026-04-17T11:13:00.929Z</time></trkpt><trkpt lat="40.5729182" lon="9.7122413"><ele>20.0</ele><time>2026-04-17T11:13:01.931Z</time></trkpt><trkpt lat="40.5728788" lon="9.7121381"><ele>19.666666666666664</ele><time>2026-04-17T11:13:02.931Z</time></trkpt><trkpt lat="40.5728381" lon="9.7120386"><ele>19.333333333333332</ele><time>2026-04-17T11:13:03.929Z</time></trkpt><trkpt lat="40.5728014" lon="9.7119414"><ele>19.0</ele><time>2026-04-17T11:13:04.931Z</time></trkpt><trkpt lat="40.5727677" lon="9.7118492"><ele>18.4</ele><time>2026-04-17T11:13:05.93Z</time></trkpt><trkpt lat="40.5727348" lon="9.711758"><ele>17.799999999999997</ele><time>2026-04-17T11:13:06.93Z</time></trkpt><trkpt lat="40.5726997" lon="9.7116701"><ele>17.200000000000003</ele><time>2026-04-17T11:13:07.93Z</time></trkpt><trkpt lat="40.5726653" lon="9.7115894"><ele>16.6</ele><time>2026-04-17T11:13:08.932Z</time></trkpt><trkpt lat="40.572607" lon="9.7114408"><ele>16.0</ele><time>2026-04-17T11:13:10.931Z</time></trkpt><trkpt lat="40.5725607" lon="9.711312"><ele>16.0</ele><time>2026-04-17T11:13:12.931Z</time></trkpt><trkpt lat="40.5725134" lon="9.7111987"><ele>16.0</ele><time>2026-04-17T11:13:14.93Z</time></trkpt><trkpt lat="40.5724707" lon="9.7110843"><ele>16.0</ele><time>2026-04-17T11:13:16.931Z</time></trkpt><trkpt lat="40.5724219" lon="9.7109664"><ele>16.0</ele><time>2026-04-17T11:13:18.929Z</time></trkpt><trkpt lat="40.5723775" lon="9.7108604"><ele>16.0</ele><time>2026-04-17T11:13:20.93Z</time></trkpt><trkpt lat="40.5723399" lon="9.7107569"><ele>16.166666666666664</ele><time>2026-04-17T11:13:22.931Z</time></trkpt><trkpt lat="40.5723005" lon="9.7106627"><ele>16.333333333333332</ele><time>2026-04-17T11:13:24.93Z</time></trkpt><trkpt lat="40.5722649" lon="9.7105694"><ele>16.5</ele><time>2026-04-17T11:13:26.932Z</time></trkpt><trkpt lat="40.5722206" lon="9.7104458"><ele>16.666666666666668</ele><time>2026-04-17T11:13:29.93Z</time></trkpt><trkpt lat="40.5721816" lon="9.710347"><ele>16.833333333333336</ele><time>2026-04-17T11:13:31.929Z</time></trkpt><trkpt lat="40.5721457" lon="9.7102469"><ele>17.0</ele><time>2026-04-17T11:13:33.93Z</time></trkpt><trkpt lat="40.5721081" lon="9.7101441"><ele>17.0</ele><time>2026-04-17T11:13:35.931Z</time></trkpt><trkpt lat="40.5720695" lon="9.710035"><ele>17.0</ele><time>2026-04-17T11:13:37.929Z</time></trkpt><trkpt lat="40.5720186" lon="9.7099125"><ele>17.0</ele><time>2026-04-17T11:13:39.93Z</time></trkpt><trkpt lat="40.5719679" lon="9.7097728"><ele>17.0</ele><time>2026-04-17T11:13:41.93Z</time></trkpt><trkpt lat="40.5719114" lon="9.7096243"><ele>17.0</ele><time>2026-04-17T11:13:43.931Z</time></trkpt><trkpt lat="40.5718801" lon="9.7095456"><ele>17.142857142857142</ele><time>2026-04-17T11:13:44.931Z</time></trkpt><trkpt lat="40.5718483" lon="9.7094665"><ele>17.285714285714285</ele><time>2026-04-17T11:13:45.929Z</time></trkpt><trkpt lat="40.5718173" lon="9.7093841"><ele>17.42857142857143</ele><time>2026-04-17T11:13:46.93Z</time></trkpt><trkpt lat="40.5717862" lon="9.7092976"><ele>17.57142857142857</ele><time>2026-04-17T11:13:47.931Z</time></trkpt><trkpt lat="40.5717528" lon="9.7092132"><ele>17.714285714285715</ele><time>2026-04-17T11:13:48.929Z</time></trkpt><trkpt lat="40.5717196" lon="9.709128"><ele>17.857142857142858</ele><time>2026-04-17T11:13:49.931Z</time></trkpt><trkpt lat="40.5716875" lon="9.7090428"><ele>18.0</ele><time>2026-04-17T11:13:50.931Z</time></trkpt><trkpt lat="40.5716553" lon="9.7089566"><ele>18.000000000000004</ele><time>2026-04-17T11:13:51.93Z</time></trkpt><trkpt lat="40.5716212" lon="9.7088714"><ele>18.0</ele><time>2026-04-17T11:13:52.93Z</time></trkpt><trkpt lat="40.571587" lon="9.7087835"><ele>18.0</ele><time>2026-04-17T11:13:53.93Z</time></trkpt><trkpt lat="40.5715527" lon="9.7086978"><ele>18.0</ele><time>2026-04-17T11:13:54.93Z</time></trkpt><trkpt lat="40.5715198" lon="9.7086087"><ele>18.0</ele><time>2026-04-17T11:13:55.929Z</time></trkpt><trkpt lat="40.5714852" lon="9.7085209"><ele>18.000000000000004</ele><time>2026-04-17T11:13:56.93Z</time></trkpt><trkpt lat="40.5714495" lon="9.7084344"><ele>18.0</ele><time>2026-04-17T11:13:57.93Z</time></trkpt><trkpt lat="40.5714138" lon="9.7083443"><ele>17.333333333333332</ele><time>2026-04-17T11:13:58.93Z</time></trkpt><trkpt lat="40.5713802" lon="9.7082502"><ele>16.666666666666668</ele><time>2026-04-17T11:13:59.929Z</time></trkpt><trkpt lat="40.5713435" lon="9.7081526"><ele>16.0</ele><time>2026-04-17T11:14:00.929Z</time></trkpt><trkpt lat="40.5713045" lon="9.7080543"><ele>15.333333333333334</ele><time>2026-04-17T11:14:01.93Z</time></trkpt><trkpt lat="40.5712672" lon="9.7079585"><ele>14.666666666666668</ele><time>2026-04-17T11:14:02.93Z</time></trkpt><trkpt lat="40.5712308" lon="9.7078619"><ele>14.0</ele><time>2026-04-17T11:14:03.93Z</time></trkpt><trkpt lat="40.5711918" lon="9.7077661"><ele>14.0</ele><time>2026-04-17T11:14:04.93Z</time></trkpt><trkpt lat="40.5711541" lon="9.7076755"><ele>14.0</ele><time>2026-04-17T11:14:05.93Z</time></trkpt><trkpt lat="40.5711205" lon="9.7075867"><ele>14.0</ele><time>2026-04-17T11:14:06.931Z</time></trkpt><trkpt lat="40.5710887" lon="9.7074998"><ele>14.0</ele><time>2026-04-17T11:14:07.931Z</time></trkpt><trkpt lat="40.5710563" lon="9.7074174"><ele>14.0</ele><time>2026-04-17T11:14:08.93Z</time></trkpt><trkpt lat="40.5710264" lon="9.7073373"><ele>14.0</ele><time>2026-04-17T11:14:09.93Z</time></trkpt><trkpt lat="40.5709994" lon="9.7072616"><ele>14.0</ele><time>2026-04-17T11:14:10.93Z</time></trkpt><trkpt lat="40.5709481" lon="9.70712"><ele>14.0</ele><time>2026-04-17T11:14:12.93Z</time></trkpt><trkpt lat="40.5708983" lon="9.7069851"><ele>13.999999999999998</ele><time>2026-04-17T11:14:14.929Z</time></trkpt><trkpt lat="40.5708516" lon="9.706863"><ele>13.999999999999998</ele><time>2026-04-17T11:14:16.93Z</time></trkpt><trkpt lat="40.5708044" lon="9.706744"><ele>14.0</ele><time>2026-04-17T11:14:18.931Z</time></trkpt><trkpt lat="40.5707609" lon="9.7066293"><ele>14.0</ele><time>2026-04-17T11:14:20.93Z</time></trkpt><trkpt lat="40.5707185" lon="9.7065168"><ele>14.0</ele><time>2026-04-17T11:14:22.93Z</time></trkpt><trkpt lat="40.5706732" lon="9.7064028"><ele>13.999999999999998</ele><time>2026-04-17T11:14:24.931Z</time></trkpt><trkpt lat="40.5706307" lon="9.7062845"><ele>13.999999999999998</ele><time>2026-04-17T11:14:26.929Z</time></trkpt><trkpt lat="40.5705847" lon="9.7061657"><ele>14.0</ele><time>2026-04-17T11:14:28.93Z</time></trkpt><trkpt lat="40.5705355" lon="9.7060491"><ele>14.0</ele><time>2026-04-17T11:14:30.931Z</time></trkpt><trkpt lat="40.5704919" lon="9.7059277"><ele>14.2</ele><time>2026-04-17T11:14:32.931Z</time></trkpt><trkpt lat="40.5704423" lon="9.7058091"><ele>14.399999999999999</ele><time>2026-04-17T11:14:34.929Z</time></trkpt><trkpt lat="40.5703976" lon="9.7056886"><ele>14.6</ele><time>2026-04-17T11:14:36.931Z</time></trkpt><trkpt lat="40.5703483" lon="9.7055684"><ele>14.8</ele><time>2026-04-17T11:14:38.93Z</time></trkpt><trkpt lat="40.5703043" lon="9.7054444"><ele>15.0</ele><time>2026-04-17T11:14:40.931Z</time></trkpt><trkpt lat="40.5702594" lon="9.7053171"><ele>16.4</ele><time>2026-04-17T11:14:42.931Z</time></trkpt><trkpt lat="40.5702092" lon="9.7051925"><ele>17.8</ele><time>2026-04-17T11:14:44.93Z</time></trkpt><trkpt lat="40.5701611" lon="9.7050666"><ele>19.200000000000003</ele><time>2026-04-17T11:14:46.929Z</time></trkpt><trkpt lat="40.5701119" lon="9.7049435"><ele>20.6</ele><time>2026-04-17T11:14:48.929Z</time></trkpt><trkpt lat="40.5700606" lon="9.7048156"><ele>22.0</ele><time>2026-04-17T11:14:50.929Z</time></trkpt><trkpt lat="40.5700141" lon="9.704698"><ele>22.0</ele><time>2026-04-17T11:14:52.93Z</time></trkpt><trkpt lat="40.5699608" lon="9.7045715"><ele>22.0</ele><time>2026-04-17T11:14:54.929Z</time></trkpt><trkpt lat="40.5699106" lon="9.704441"><ele>22.0</ele><time>2026-04-17T11:14:56.93Z</time></trkpt><trkpt lat="40.5698631" lon="9.7043141"><ele>22.0</ele><time>2026-04-17T11:14:58.93Z</time></trkpt><trkpt lat="40.5698156" lon="9.7041928"><ele>22.0</ele><time>2026-04-17T11:15:00.93Z</time></trkpt><trkpt lat="40.5697693" lon="9.7040683"><ele>21.8</ele><time>2026-04-17T11:15:02.932Z</time></trkpt><trkpt lat="40.5697244" lon="9.7039384"><ele>21.6</ele><time>2026-04-17T11:15:04.93Z</time></trkpt><trkpt lat="40.5696753" lon="9.7038028"><ele>21.400000000000002</ele><time>2026-04-17T11:15:06.929Z</time></trkpt><trkpt lat="40.569623" lon="9.7036669"><ele>21.200000000000003</ele><time>2026-04-17T11:15:08.93Z</time></trkpt><trkpt lat="40.5695715" lon="9.7035403"><ele>21.0</ele><time>2026-04-17T11:15:10.931Z</time></trkpt><trkpt lat="40.569527" lon="9.7034103"><ele>21.0</ele><time>2026-04-17T11:15:12.93Z</time></trkpt><trkpt lat="40.5694884" lon="9.7032738"><ele>21.0</ele><time>2026-04-17T11:15:14.931Z</time></trkpt><trkpt lat="40.5694492" lon="9.7031412"><ele>21.0</ele><time>2026-04-17T11:15:16.93Z</time></trkpt><trkpt lat="40.5694217" lon="9.7030159"><ele>21.0</ele><time>2026-04-17T11:15:18.93Z</time></trkpt><trkpt lat="40.5693912" lon="9.7028907"><ele>21.0</ele><time>2026-04-17T11:15:20.929Z</time></trkpt><trkpt lat="40.5693783" lon="9.7027534"><ele>19.8</ele><time>2026-04-17T11:15:22.931Z</time></trkpt><trkpt lat="40.5693567" lon="9.7026184"><ele>18.6</ele><time>2026-04-17T11:15:24.93Z</time></trkpt><trkpt lat="40.5693332" lon="9.702483"><ele>17.4</ele><time>2026-04-17T11:15:26.929Z</time></trkpt><trkpt lat="40.5693148" lon="9.7023425"><ele>16.2</ele><time>2026-04-17T11:15:28.93Z</time></trkpt><trkpt lat="40.5692866" lon="9.7022028"><ele>15.0</ele><time>2026-04-17T11:15:30.93Z</time></trkpt><trkpt lat="40.569262" lon="9.7020601"><ele>15.0</ele><time>2026-04-17T11:15:32.929Z</time></trkpt><trkpt lat="40.56924" lon="9.7019211"><ele>15.0</ele><time>2026-04-17T11:15:34.931Z</time></trkpt><trkpt lat="40.5692154" lon="9.7017793"><ele>15.0</ele><time>2026-04-17T11:15:36.93Z</time></trkpt><trkpt lat="40.5691987" lon="9.7016459"><ele>15.0</ele><time>2026-04-17T11:15:38.93Z</time></trkpt><trkpt lat="40.5691813" lon="9.7015135"><ele>15.0</ele><time>2026-04-17T11:15:40.93Z</time></trkpt><trkpt lat="40.5691738" lon="9.7013834"><ele>14.8</ele><time>2026-04-17T11:15:42.931Z</time></trkpt><trkpt lat="40.5691876" lon="9.7012561"><ele>14.6</ele><time>2026-04-17T11:15:44.93Z</time></trkpt><trkpt lat="40.5692141" lon="9.7011308"><ele>14.399999999999999</ele><time>2026-04-17T11:15:46.931Z</time></trkpt><trkpt lat="40.5692626" lon="9.7010166"><ele>14.2</ele><time>2026-04-17T11:15:48.93Z</time></trkpt><trkpt lat="40.5693121" lon="9.7009137"><ele>14.0</ele><time>2026-04-17T11:15:50.93Z</time></trkpt><trkpt lat="40.569366" lon="9.7008141"><ele>14.399999999999999</ele><time>2026-04-17T11:15:52.93Z</time></trkpt><trkpt lat="40.5694183" lon="9.7007156"><ele>14.799999999999999</ele><time>2026-04-17T11:15:54.931Z</time></trkpt><trkpt lat="40.5694769" lon="9.7006217"><ele>15.200000000000001</ele><time>2026-04-17T11:15:56.93Z</time></trkpt><trkpt lat="40.5695283" lon="9.7005219"><ele>15.600000000000001</ele><time>2026-04-17T11:15:58.929Z</time></trkpt><trkpt lat="40.5695814" lon="9.7004159"><ele>16.0</ele><time>2026-04-17T11:16:00.93Z</time></trkpt><trkpt lat="40.5696324" lon="9.7003152"><ele>16.6</ele><time>2026-04-17T11:16:02.93Z</time></trkpt><trkpt lat="40.569675" lon="9.7002188"><ele>17.200000000000003</ele><time>2026-04-17T11:16:04.93Z</time></trkpt><trkpt lat="40.5697216" lon="9.7001294"><ele>17.799999999999997</ele><time>2026-04-17T11:16:06.931Z</time></trkpt><trkpt lat="40.5697704" lon="9.7000393"><ele>18.4</ele><time>2026-04-17T11:16:08.93Z</time></trkpt><trkpt lat="40.5698532" lon="9.6999187"><ele>19.0</ele><time>2026-04-17T11:16:11.93Z</time></trkpt><trkpt lat="40.5698945" lon="9.6998138"><ele>19.0</ele><time>2026-04-17T11:16:13.93Z</time></trkpt><trkpt lat="40.5699363" lon="9.6997087"><ele>19.0</ele><time>2026-04-17T11:16:15.931Z</time></trkpt><trkpt lat="40.5699834" lon="9.6996075"><ele>19.0</ele><time>2026-04-17T11:16:17.93Z</time></trkpt><trkpt lat="40.5700496" lon="9.6994943"><ele>19.0</ele><time>2026-04-17T11:16:19.93Z</time></trkpt><trkpt lat="40.5701059" lon="9.699384"><ele>19.0</ele><time>2026-04-17T11:16:21.93Z</time></trkpt><trkpt lat="40.5701653" lon="9.6992849"><ele>19.2</ele><time>2026-04-17T11:16:23.93Z</time></trkpt><trkpt lat="40.5702205" lon="9.6991724"><ele>19.4</ele><time>2026-04-17T11:16:25.93Z</time></trkpt><trkpt lat="40.5702775" lon="9.6990565"><ele>19.6</ele><time>2026-04-17T11:16:27.929Z</time></trkpt><trkpt lat="40.570336" lon="9.6989443"><ele>19.8</ele><time>2026-04-17T11:16:29.929Z</time></trkpt><trkpt lat="40.5703878" lon="9.6988332"><ele>20.0</ele><time>2026-04-17T11:16:31.93Z</time></trkpt><trkpt lat="40.5704423" lon="9.6987179"><ele>20.2</ele><time>2026-04-17T11:16:33.929Z</time></trkpt><trkpt lat="40.5705053" lon="9.6986109"><ele>20.4</ele><time>2026-04-17T11:16:35.931Z</time></trkpt><trkpt lat="40.5705645" lon="9.6984987"><ele>20.6</ele><time>2026-04-17T11:16:37.93Z</time></trkpt><trkpt lat="40.5706263" lon="9.6983879"><ele>20.8</ele><time>2026-04-17T11:16:39.931Z</time></trkpt><trkpt lat="40.5706875" lon="9.6982765"><ele>21.0</ele><time>2026-04-17T11:16:41.93Z</time></trkpt><trkpt lat="40.5707369" lon="9.6981652"><ele>21.8</ele><time>2026-04-17T11:16:43.929Z</time></trkpt><trkpt lat="40.5707779" lon="9.6980399"><ele>22.6</ele><time>2026-04-17T11:16:45.93Z</time></trkpt><trkpt lat="40.5708465" lon="9.6979393"><ele>23.4</ele><time>2026-04-17T11:16:47.93Z</time></trkpt><trkpt lat="40.5708968" lon="9.6978266"><ele>24.2</ele><time>2026-04-17T11:16:49.93Z</time></trkpt><trkpt lat="40.5709471" lon="9.6977231"><ele>25.0</ele><time>2026-04-17T11:16:51.929Z</time></trkpt><trkpt lat="40.5710004" lon="9.6976148"><ele>25.6</ele><time>2026-04-17T11:16:53.93Z</time></trkpt><trkpt lat="40.5710576" lon="9.6975041"><ele>26.2</ele><time>2026-04-17T11:16:55.93Z</time></trkpt><trkpt lat="40.5711097" lon="9.6974055"><ele>26.799999999999997</ele><time>2026-04-17T11:16:57.93Z</time></trkpt><trkpt lat="40.5711581" lon="9.6972896"><ele>27.4</ele><time>2026-04-17T11:16:59.931Z</time></trkpt><trkpt lat="40.5712128" lon="9.6971998"><ele>28.0</ele><time>2026-04-17T11:17:01.929Z</time></trkpt><trkpt lat="40.571215" lon="9.6971016"><ele>31.0</ele><time>2026-04-17T11:17:03.93Z</time></trkpt><trkpt lat="40.5711496" lon="9.6970691"><ele>28.0</ele><time>2026-04-17T11:17:33.93Z</time></trkpt></trkseg></trk></gpx>